[[{"header":{"parameterUnit":"m.s-1","parameterCategory":1,"la1":31.0,"la2":29.5877,"lo1":-88.7671,"lo2":-86.6584,"dx":0.0162,"dy":0.0185,"nx":115,"ny":88,"refTime":"2023-01-10T18:00:00:Z","depth":0,"parameterNumber":2,"parameterNumberName":"U-component_of_WINDS"},"data":[0.0,0.0,0.0,0.0,0.0,0.0,0.0,0.0,0.0,0.0,0.0,0.0,0.0,0.0,0.0,0.0,0.0,0.0,0.0,0.0,0.0,0.0,0.0,0.0,0.0,0.0,0.0,0.0,0.0,0.0,0.0,0.0,0.0,0.0,0.0,0.0,0.0,0.0,0.0,0.0,0.0,0.0,0.0,0.0,0.0,0.0,0.0,0.0,0.0,0.0,0.0,0.0,0.0,0.0,0.0,0.0,0.0,0.0,0.0,0.0,0.0,0.0,0.0,0.0,0.0,0.0,0.0,0.0,0.0,0.0,0.0,0.0,0.0,0.0,0.0,0.0,0.0,0.0,0.0,0.0,0.0,0.0,0.0,0.0,0.0,0.0,0.0,0.0,0.0,0.0,0.0,0.0,0.0,0.0,0.0,0.0,0.0,0.0,0.0,0.0,0.0,0.0,0.0,0.0,0.0,0.0,0.0,0.0,0.0,0.0,0.0,0.0,0.0,0.0,0.0,0.0,0.0,0.0,0.0,0.0,0.0,0.0,0.0,0.0,0.0,0.0,0.0,0.0,0.0,0.0,0.0,0.0,0.0,0.0,0.0,0.0,0.0,0.0,0.0,0.0,0.0,0.0,0.0,0.0,0.0,0.0,0.0,0.0,0.0,0.0,0.0,0.0,0.0,0.0,0.0,0.0,0.0,0.0,0.0,0.0,0.0,0.0,0.0,0.0,0.0,0.0,0.0,0.0,0.0,0.0,0.0,0.0,0.0,0.0,0.0,0.0,0.0,0.0,0.0,0.0,0.0,0.0,0.0,0.0,0.0,0.0,0.0,0.0,0.0,0.0,0.0,0.0,0.0,0.0,0.0,0.0,0.0,0.0,0.0,0.0,0.0,0.0,0.0,0.0,0.0,0.0,0.0,0.0,0.0,0.0,0.0,0.0,0.0,0.0,0.0,0.0,0.0,0.0,0.0,0.0,0.0,0.0,0.0,0.0,0.0,0.0,0.0,0.0,0.0,0.0,0.0,0.0,0.0,0.0,0.0,0.0,0.0,0.0,0.0,0.0,0.0,0.0,0.0,0.0,0.0,0.0,0.0,0.0,0.0,0.0,0.0,0.0,0.0,0.0,0.0,0.0,0.0,0.0,0.0,0.0,0.0,0.0,0.0,0.0,0.0,0.0,0.0,0.0,0.0,0.0,0.0,0.0,0.0,0.0,0.0,0.0,0.0,0.0,0.0,0.0,0.0,0.0,0.0,0.0,0.0,0.0,0.0,0.0,0.0,0.0,0.0,0.0,0.0,0.0,0.0,0.0,0.0,0.0,0.0,0.0,0.0,0.0,0.0,0.0,0.0,0.0,0.0,0.0,0.0,0.0,0.0,0.0,0.0,0.0,0.0,0.0,0.0,0.0,0.0,0.0,0.0,0.0,0.0,0.0,0.0,0.0,0.0,0.0,0.0,0.0,0.0,0.0,0.0,0.0,0.0,0.0,0.0,0.0,0.0,0.0,0.0,0.0,0.0,0.0,0.0,0.0,0.0,0.0,0.0,0.0,0.0,0.0,0.0,0.0,0.0,0.0,0.0,0.0,0.0,0.0,0.0,0.0,0.0,0.0,0.0,0.0,0.0,0.0,0.0,0.0,0.0,0.0,0.0,0.0,0.0,0.0,0.0,0.0,0.0,0.0,0.0,0.0,0.0,0.0,0.0,0.0,0.0,0.0,0.0,0.0,0.0,0.0,0.0,0.0,0.0,0.0,0.0,0.0,0.0,0.0,0.0,0.0,0.0,0.0,0.0,0.0,0.0,0.0,0.0,0.0,0.0,0.0,0.0,0.0,0.0,0.0,0.0,0.0,0.0,0.0,0.0,0.0,0.0,0.0,0.0,0.0,0.0,0.0,0.0,0.0,0.0,0.0,0.0,0.0,0.0,0.0,0.0,0.0,0.0,0.0,0.0,0.0,0.0,0.0,0.0,0.0,0.0,0.0,0.0,0.0,0.0,0.0,0.0,0.0,0.0,0.0,0.0,0.0,0.0,0.0,0.0,0.0,0.0,0.0,0.0,0.0,0.0,0.0,0.0,0.0,0.0,0.0,0.0,0.0,0.0,0.0,0.0,0.0,0.0,0.0,0.0,0.0,0.0,0.0,0.0,0.0,0.0,0.0,0.0,0.0,0.0,0.0,0.0,0.0,0.0,0.0,0.0,0.0,0.0,0.0,0.0,0.0,0.0,0.0,0.0,0.0,0.0,0.0,0.0,0.0,0.0,0.0,0.0,0.0,0.0,0.0,0.0,0.0,0.0,0.0,0.0,0.0,0.0,0.0,0.0,0.0,0.0,0.0,0.0,0.0,0.0,0.0,0.0,0.0,0.0,0.0,0.0,0.0,0.0,0.0,0.0,0.0,0.0,0.0,0.0,0.0,0.0,0.0,0.0,0.0,0.0,0.0,0.0,0.0,0.0,0.0,0.0,0.0,0.0,0.0,0.0,0.0,0.0,0.0,0.0,0.0,0.0,0.0,0.0,0.0,0.0,0.0,0.0,0.0,0.0,0.0,0.0,0.0,0.0,0.0,0.0,0.0,0.0,0.0,0.0,0.0,0.0,0.0,0.0,0.0,0.0,0.0,0.0,0.0,0.0,0.0,0.0,0.0,0.0,0.0,0.0,0.0,0.0,0.0,0.0,0.0,0.0,0.0,0.0,0.0,0.0,0.0,0.0,0.0,0.0,0.0,0.0,0.0,0.0,0.0,0.0,0.0,0.0,0.0,0.0,0.0,0.0,0.0,0.0,0.0,0.0,0.0,0.0,0.0,0.0,0.0,0.0,0.0,0.0,0.0,0.0,0.0,0.0,0.0,0.0,0.0,0.0,0.0,0.0,0.0,0.0,0.0,0.0,0.0,0.0,0.0,0.0,0.0,0.0,0.0,0.0,0.0,0.0,0.0,0.0,0.0,0.0,0.0,0.0,0.0,0.0,0.0,0.0,0.0,0.0,0.0,0.0,0.0,0.0,0.0,0.0,0.0,0.0,0.0,0.0,0.0,0.0,0.0,0.0,0.0,0.0,0.0,0.0,0.0,0.0,0.0,0.0,0.0,0.0,0.0,0.0,0.0,0.0,0.0,0.0,0.0,0.0,0.0,0.0,0.0,0.0,0.0,0.0,0.0,0.0,0.0,0.0,0.0,0.0,0.0,0.0,0.0,0.0,0.0,0.0,0.0,0.0,0.0,0.0,0.0,0.0,0.0,0.0,0.0,0.0,0.0,0.0,0.0,0.0,0.0,0.0,0.0,0.0,0.0,0.0,0.0,0.0,0.0,0.0,0.0,0.0,0.0,0.0,0.0,0.0,0.0,0.0,0.0,0.0,0.0,0.0,0.0,0.0,0.0,0.0,0.0,0.0,0.0,0.0,0.0,0.0,0.0,0.0,0.0,0.0,0.0,0.0,0.0,0.0,0.0,0.0,0.0,0.0,0.0,0.0,0.0,0.0,0.0,0.0,0.0,0.0,0.0,0.0,0.0,0.0,0.0,0.0,0.0,0.0,0.0,0.0,0.0,0.0,0.0,0.0,0.0,0.0,0.0,0.0,0.0,0.0,0.0,0.0,0.0,0.0,0.0,0.0,0.0,0.0,0.0,0.0,0.0,0.0,0.0,0.0,0.0,0.0,0.0,0.0,0.0,0.0,0.0,0.0,0.0,0.0,0.0,0.0,0.0,0.0,0.0,0.0,0.0,0.0,0.0,0.0,0.0,0.0,0.0,0.0,0.0,0.0,0.0,0.0,0.0,0.0,0.0,0.0,0.0,0.0,0.0,0.0,0.0,0.0,0.0,0.0,0.0,0.0,0.0,0.0,0.0,0.0,0.0,0.0,0.0,0.0,0.0,0.0,0.0,0.0,0.0,0.0,0.0,0.0,0.0,0.0,0.0,0.0,0.0,0.0,0.0,0.0,0.0,0.0,0.0,0.0,0.0,0.0,0.0,0.0,0.0,0.0,0.0,0.0,0.0,0.0,0.0,0.0,0.0,0.0,0.0,0.0,0.0,0.0,0.0,0.0,0.0,0.0,0.0,0.0,0.0,0.0,0.0,0.0,0.0,0.0,0.0,0.0,0.0,0.0,0.0,0.0,0.0,0.0,0.0,0.0,0.0,0.0,0.0,0.0,0.0,0.0,0.0,0.0,0.0,0.0,0.0,0.0,0.0,0.0,0.0,0.0,0.0,0.0,0.0,0.0,0.0,0.0,0.0,0.0,0.0,0.0,0.0,-1.7094,0.0,0.0,0.0,-1.7094,0.0,0.0,0.0,0.0,0.0,0.0,0.0,0.0,0.0,0.0,0.0,0.0,0.0,0.0,0.0,0.0,0.0,0.0,0.0,0.0,0.0,0.0,0.0,0.0,0.0,0.0,0.0,0.0,0.0,0.0,0.0,0.0,0.0,0.0,0.0,0.0,0.0,0.0,0.0,0.0,0.0,0.0,0.0,0.0,0.0,0.0,0.0,0.0,0.0,0.0,0.0,0.0,0.0,0.0,0.0,0.0,0.0,0.0,0.0,0.0,0.0,0.0,0.0,0.0,0.0,0.0,0.0,0.0,0.0,0.0,0.0,0.0,0.0,0.0,0.0,0.0,0.0,0.0,0.0,0.0,0.0,0.0,0.0,0.0,0.0,0.0,0.0,0.0,0.0,0.0,0.0,0.0,0.0,0.0,0.0,0.0,0.0,0.0,0.0,0.0,0.0,0.0,0.0,0.0,0.0,0.0,0.0,0.0,0.0,0.0,-1.7199,-1.7199,-1.7199,-1.7199,-1.7199,0.0,0.0,0.0,0.0,0.0,0.0,0.0,0.0,0.0,0.0,0.0,0.0,0.0,0.0,0.0,0.0,0.0,0.0,0.0,0.0,0.0,0.0,0.0,0.0,0.0,0.0,0.0,0.0,0.0,0.0,0.0,0.0,0.0,0.0,0.0,0.0,0.0,0.0,0.0,0.0,0.0,0.0,0.0,0.0,0.0,0.0,0.0,0.0,0.0,0.0,0.0,0.0,0.0,0.0,0.0,0.0,0.0,0.0,0.0,0.0,0.0,0.0,0.0,0.0,0.0,0.0,0.0,0.0,0.0,0.0,0.0,0.0,0.0,0.0,0.0,0.0,0.0,0.0,0.0,0.0,0.0,0.0,0.0,0.0,0.0,0.0,0.0,0.0,0.0,0.0,0.0,0.0,0.0,0.0,0.0,0.0,0.0,0.0,0.0,0.0,0.0,0.0,0.0,0.0,0.0,0.0,0.0,0.0,0.0,0.0,0.0,0.0,-1.7136,-1.7115,-1.7073,0.0,0.0,0.0,0.0,0.0,0.0,0.0,0.0,0.0,0.0,0.0,0.0,0.0,0.0,0.0,0.0,0.0,0.0,0.0,0.0,0.0,0.0,0.0,0.0,0.0,0.0,0.0,0.0,0.0,0.0,0.0,0.0,0.0,0.0,0.0,0.0,0.0,0.0,0.0,0.0,0.0,0.0,0.0,0.0,0.0,0.0,0.0,0.0,0.0,0.0,0.0,0.0,0.0,0.0,0.0,0.0,0.0,0.0,0.0,0.0,0.0,0.0,0.0,0.0,0.0,0.0,0.0,0.0,0.0,0.0,0.0,0.0,0.0,0.0,0.0,0.0,0.0,0.0,0.0,0.0,0.0,0.0,0.0,0.0,0.0,0.0,0.0,0.0,0.0,0.0,0.0,0.0,0.0,0.0,0.0,0.0,0.0,0.0,0.0,0.0,0.0,0.0,0.0,0.0,0.0,0.0,0.0,0.0,0.0,0.0,-1.7015,-1.6905,-1.6931,0.0,-1.674,0.0,0.0,0.0,0.0,0.0,0.0,0.0,0.0,0.0,0.0,0.0,0.0,0.0,0.0,0.0,0.0,0.0,0.0,0.0,0.0,0.0,0.0,0.0,0.0,0.0,0.0,0.0,0.0,0.0,0.0,0.0,0.0,0.0,0.0,0.0,0.0,0.0,0.0,0.0,0.0,0.0,0.0,0.0,0.0,0.0,0.0,0.0,0.0,0.0,0.0,0.0,0.0,0.0,0.0,0.0,0.0,0.0,0.0,0.0,0.0,0.0,0.0,0.0,0.0,0.0,0.0,0.0,0.0,0.0,0.0,0.0,0.0,0.0,0.0,0.0,0.0,0.0,0.0,0.0,0.0,0.0,0.0,0.0,0.0,0.0,0.0,0.0,0.0,0.0,0.0,0.0,0.0,0.0,0.0,0.0,0.0,0.0,0.0,0.0,0.0,0.0,0.0,0.0,0.0,0.0,0.0,0.0,0.0,0.0,0.0,-1.6968,-1.691,-1.691,-1.6846,0.0,0.0,0.0,0.0,0.0,0.0,0.0,0.0,0.0,0.0,0.0,0.0,0.0,0.0,0.0,0.0,0.0,0.0,0.0,0.0,0.0,0.0,0.0,0.0,0.0,0.0,0.0,0.0,0.0,0.0,0.0,0.0,0.0,0.0,0.0,0.0,0.0,0.0,0.0,0.0,0.0,0.0,0.0,0.0,0.0,0.0,0.0,0.0,0.0,0.0,0.0,0.0,0.0,0.0,0.0,0.0,0.0,0.0,0.0,0.0,0.0,0.0,0.0,0.0,0.0,0.0,0.0,0.0,0.0,0.0,0.0,0.0,0.0,0.0,0.0,0.0,0.0,0.0,0.0,0.0,0.0,0.0,0.0,0.0,0.0,0.0,0.0,0.0,0.0,0.0,0.0,0.0,0.0,0.0,0.0,0.0,0.0,0.0,0.0,0.0,0.0,0.0,0.0,0.0,0.0,0.0,0.0,0.0,0.0,0.0,-1.672,-1.6888,-1.6778,-1.6778,-1.6761,-1.6654,0.0,0.0,0.0,0.0,0.0,0.0,0.0,0.0,0.0,0.0,0.0,0.0,0.0,0.0,0.0,0.0,0.0,0.0,0.0,0.0,0.0,0.0,0.0,0.0,0.0,0.0,0.0,0.0,0.0,0.0,0.0,0.0,0.0,0.0,0.0,0.0,0.0,0.0,0.0,0.0,0.0,0.0,0.0,0.0,0.0,0.0,0.0,0.0,0.0,0.0,0.0,0.0,0.0,0.0,0.0,0.0,0.0,0.0,0.0,0.0,0.0,0.0,0.0,0.0,0.0,0.0,0.0,0.0,0.0,0.0,0.0,0.0,0.0,0.0,0.0,0.0,0.0,0.0,0.0,0.0,0.0,0.0,0.0,0.0,0.0,0.0,0.0,0.0,0.0,0.0,0.0,0.0,0.0,0.0,0.0,0.0,0.0,0.0,0.0,0.0,0.0,0.0,0.0,0.0,0.0,0.0,0.0,0.0,-1.6858,-1.6757,-1.6654,-1.6543,-1.6522,-1.6522,0.0,0.0,0.0,0.0,0.0,0.0,0.0,0.0,0.0,0.0,0.0,0.0,0.0,0.0,0.0,0.0,0.0,0.0,0.0,0.0,0.0,0.0,0.0,0.0,0.0,0.0,0.0,0.0,0.0,0.0,0.0,0.0,0.0,0.0,0.0,0.0,0.0,0.0,0.0,0.0,0.0,0.0,0.0,0.0,0.0,0.0,0.0,0.0,0.0,0.0,0.0,0.0,0.0,0.0,0.0,0.0,0.0,0.0,0.0,0.0,0.0,0.0,0.0,0.0,0.0,0.0,0.0,0.0,0.0,0.0,0.0,0.0,0.0,0.0,0.0,0.0,0.0,0.0,0.0,0.0,0.0,0.0,0.0,0.0,0.0,0.0,0.0,0.0,0.0,0.0,0.0,0.0,0.0,0.0,0.0,0.0,0.0,0.0,0.0,0.0,0.0,0.0,0.0,0.0,0.0,0.0,0.0,0.0,0.0,-1.6782,-1.6654,-1.6543,-1.65,-1.65,-1.65,0.0,0.0,0.0,0.0,0.0,0.0,0.0,0.0,0.0,0.0,0.0,0.0,0.0,0.0,0.0,0.0,0.0,0.0,0.0,0.0,0.0,0.0,0.0,0.0,0.0,0.0,0.0,0.0,0.0,0.0,0.0,0.0,0.0,0.0,0.0,0.0,0.0,0.0,0.0,0.0,0.0,0.0,0.0,0.0,0.0,0.0,0.0,0.0,0.0,0.0,0.0,0.0,0.0,0.0,0.0,0.0,0.0,0.0,0.0,0.0,0.0,0.0,0.0,0.0,0.0,0.0,0.0,0.0,0.0,0.0,0.0,0.0,0.0,0.0,0.0,0.0,0.0,0.0,0.0,0.0,0.0,0.0,0.0,0.0,0.0,0.0,0.0,0.0,0.0,0.0,0.0,0.0,0.0,0.0,0.0,0.0,0.0,0.0,0.0,0.0,0.0,0.0,0.0,0.0,0.0,0.0,0.0,0.0,0.0,-1.6633,-1.6543,-1.65,-1.65,-1.65,-1.65,0.0,0.0,0.0,0.0,0.0,0.0,0.0,0.0,0.0,0.0,0.0,0.0,0.0,0.0,0.0,0.0,0.0,0.0,0.0,0.0,0.0,0.0,0.0,0.0,0.0,0.0,0.0,0.0,0.0,0.0,0.0,0.0,0.0,0.0,0.0,0.0,0.0,0.0,0.0,0.0,0.0,0.0,0.0,0.0,0.0,0.0,0.0,0.0,0.0,0.0,0.0,0.0,0.0,0.0,0.0,0.0,0.0,0.0,0.0,0.0,0.0,0.0,0.0,0.0,0.0,0.0,0.0,0.0,0.0,0.0,0.0,0.0,0.0,0.0,0.0,0.0,0.0,0.0,0.0,0.0,0.0,0.0,0.0,0.0,0.0,0.0,0.0,0.0,0.0,0.0,0.0,0.0,0.0,0.0,0.0,0.0,0.0,0.0,0.0,0.0,0.0,0.0,0.0,0.0,0.0,0.0,0.0,0.0,-1.6654,-1.65,-1.65,-1.65,-1.65,-1.65,-1.65,0.0,0.0,0.0,0.0,0.0,0.0,0.0,0.0,0.0,0.0,0.0,0.0,0.0,0.0,0.0,0.0,0.0,0.0,0.0,0.0,0.0,0.0,0.0,0.0,0.0,0.0,0.0,0.0,0.0,0.0,0.0,0.0,0.0,0.0,0.0,0.0,0.0,0.0,0.0,0.0,0.0,0.0,0.0,0.0,0.0,0.0,0.0,0.0,0.0,0.0,0.0,0.0,0.0,0.0,0.0,0.0,0.0,0.0,0.0,0.0,0.0,0.0,0.0,0.0,0.0,0.0,0.0,0.0,0.0,0.0,0.0,0.0,0.0,0.0,0.0,0.0,0.0,0.0,0.0,0.0,0.0,0.0,0.0,0.0,0.0,0.0,0.0,0.0,0.0,0.0,0.0,0.0,0.0,0.0,0.0,0.0,0.0,0.0,0.0,0.0,0.0,0.0,0.0,0.0,0.0,0.0,0.0,0.0,0.0,-1.6525,-1.65,-1.65,-1.65,-1.65,-1.65,0.0,0.0,0.0,0.0,0.0,0.0,0.0,0.0,0.0,0.0,0.0,0.0,0.0,0.0,0.0,0.0,0.0,0.0,0.0,0.0,0.0,0.0,0.0,0.0,0.0,0.0,0.0,0.0,0.0,0.0,0.0,0.0,0.0,0.0,0.0,0.0,0.0,0.0,0.0,0.0,0.0,0.0,0.0,0.0,0.0,0.0,0.0,0.0,0.0,0.0,0.0,0.0,0.0,0.0,0.0,0.0,0.0,0.0,0.0,0.0,0.0,0.0,0.0,0.0,0.0,0.0,0.0,0.0,0.0,0.0,0.0,0.0,0.0,0.0,0.0,0.0,0.0,0.0,0.0,0.0,0.0,0.0,0.0,0.0,0.0,0.0,0.0,0.0,0.0,0.0,0.0,0.0,0.0,0.0,0.0,0.0,0.0,0.0,0.0,0.0,0.0,0.0,0.0,0.0,0.0,0.0,0.0,0.0,0.0,-1.8078,-1.8053,-1.8053,-1.8053,-1.8078,-1.7553,-1.655,0.0,0.0,0.0,0.0,0.0,0.0,0.0,0.0,0.0,0.0,0.0,0.0,0.0,0.0,0.0,0.0,0.0,0.0,0.0,0.0,0.0,0.0,0.0,0.0,0.0,0.0,0.0,0.0,0.0,0.0,0.0,0.0,0.0,0.0,0.0,0.0,0.0,0.0,0.0,0.0,0.0,0.0,0.0,0.0,0.0,0.0,0.0,0.0,0.0,0.0,0.0,0.0,0.0,0.0,0.0,0.0,0.0,0.0,0.0,0.0,0.0,0.0,0.0,0.0,0.0,0.0,0.0,0.0,0.0,0.0,0.0,0.0,0.0,0.0,0.0,0.0,0.0,0.0,0.0,0.0,0.0,0.0,0.0,0.0,0.0,0.0,0.0,0.0,0.0,0.0,0.0,0.0,0.0,0.0,0.0,0.0,0.0,0.0,0.0,0.0,0.0,0.0,0.0,0.0,0.0,0.0,0.0,0.0,-2.0943,-2.1043,-2.0993,-2.0817,-2.0691,-1.9459,0.0,0.0,0.0,0.0,0.0,0.0,0.0,0.0,0.0,0.0,0.0,0.0,0.0,0.0,0.0,0.0,0.0,0.0,0.0,0.0,0.0,0.0,0.0,0.0,0.0,0.0,0.0,0.0,0.0,0.0,0.0,0.0,0.0,0.0,0.0,0.0,0.0,0.0,0.0,0.0,0.0,0.0,0.0,0.0,0.0,0.0,0.0,0.0,0.0,0.0,0.0,0.0,0.0,0.0,0.0,0.0,0.0,0.0,0.0,0.0,0.0,0.0,0.0,0.0,0.0,0.0,0.0,0.0,0.0,0.0,0.0,0.0,0.0,0.0,0.0,0.0,0.0,0.0,0.0,0.0,0.0,0.0,0.0,0.0,0.0,0.0,0.0,0.0,0.0,0.0,0.0,0.0,0.0,0.0,0.0,0.0,0.0,0.0,0.0,0.0,0.0,0.0,0.0,0.0,0.0,0.0,0.0,0.0,0.0,-2.4262,-2.5141,-2.4582,-2.2573,-2.132,-2.0163,0.0,0.0,0.0,0.0,0.0,0.0,0.0,0.0,0.0,0.0,0.0,0.0,0.0,0.0,0.0,0.0,0.0,0.0,0.0,0.0,0.0,0.0,0.0,0.0,0.0,0.0,0.0,0.0,0.0,0.0,0.0,0.0,0.0,0.0,0.0,0.0,0.0,0.0,0.0,0.0,0.0,0.0,0.0,0.0,0.0,0.0,0.0,0.0,0.0,0.0,0.0,0.0,0.0,0.0,0.0,0.0,0.0,0.0,0.0,0.0,0.0,0.0,0.0,0.0,0.0,0.0,0.0,0.0,0.0,0.0,0.0,0.0,0.0,0.0,0.0,0.0,0.0,0.0,0.0,0.0,0.0,0.0,0.0,0.0,0.0,0.0,0.0,0.0,0.0,0.0,0.0,0.0,0.0,0.0,0.0,0.0,0.0,0.0,0.0,0.0,0.0,0.0,0.0,0.0,0.0,0.0,0.0,0.0,-2.3527,-2.5561,-2.7821,-2.8147,-2.628,-2.3778,-2.1694,0.0,0.0,0.0,0.0,0.0,0.0,0.0,0.0,0.0,0.0,0.0,0.0,0.0,0.0,0.0,0.0,0.0,0.0,0.0,0.0,0.0,0.0,0.0,0.0,0.0,0.0,0.0,0.0,0.0,0.0,0.0,0.0,0.0,0.0,0.0,0.0,0.0,0.0,0.0,0.0,0.0,0.0,0.0,0.0,0.0,0.0,0.0,0.0,0.0,0.0,0.0,0.0,0.0,0.0,0.0,0.0,0.0,0.0,0.0,0.0,0.0,0.0,0.0,0.0,0.0,0.0,0.0,0.0,0.0,0.0,0.0,0.0,0.0,0.0,0.0,0.0,0.0,0.0,0.0,0.0,0.0,0.0,0.0,0.0,0.0,0.0,0.0,0.0,0.0,0.0,0.0,0.0,0.0,0.0,0.0,0.0,0.0,0.0,0.0,0.0,0.0,0.0,0.0,0.0,0.0,0.0,0.0,0.0,-2.4732,-2.5963,-2.9503,-3.116,-3.0608,-2.6907,-2.3678,0.0,0.0,0.0,0.0,0.0,0.0,0.0,0.0,0.0,0.0,0.0,0.0,0.0,0.0,0.0,0.0,0.0,0.0,0.0,0.0,0.0,0.0,0.0,0.0,0.0,0.0,0.0,0.0,0.0,0.0,0.0,0.0,0.0,0.0,0.0,0.0,0.0,0.0,0.0,0.0,0.0,0.0,0.0,0.0,0.0,0.0,0.0,0.0,0.0,0.0,0.0,0.0,0.0,0.0,0.0,0.0,0.0,0.0,0.0,0.0,0.0,0.0,0.0,0.0,0.0,0.0,0.0,0.0,0.0,0.0,0.0,0.0,0.0,0.0,0.0,0.0,0.0,0.0,0.0,0.0,0.0,0.0,0.0,0.0,0.0,0.0,0.0,0.0,0.0,0.0,0.0,0.0,0.0,0.0,0.0,0.0,0.0,0.0,0.0,0.0,0.0,0.0,0.0,0.0,0.0,0.0,0.0,0.0,-2.6214,-2.8161,-3.0281,-3.1336,-3.121,-2.7469,-2.4757,0.0,0.0,0.0,0.0,0.0,0.0,0.0,0.0,0.0,0.0,0.0,0.0,0.0,0.0,0.0,0.0,0.0,0.0,0.0,0.0,0.0,0.0,0.0,0.0,0.0,0.0,0.0,0.0,0.0,0.0,0.0,0.0,0.0,0.0,0.0,0.0,0.0,0.0,0.0,0.0,0.0,0.0,0.0,0.0,0.0,0.0,0.0,0.0,-1.8473,0.0,0.0,0.0,0.0,0.0,0.0,0.0,0.0,0.0,0.0,0.0,0.0,0.0,0.0,0.0,0.0,0.0,0.0,0.0,0.0,0.0,0.0,0.0,0.0,0.0,0.0,0.0,0.0,0.0,0.0,0.0,0.0,0.0,0.0,0.0,0.0,0.0,0.0,0.0,0.0,0.0,0.0,0.0,0.0,0.0,0.0,0.0,0.0,0.0,0.0,0.0,0.0,0.0,0.0,0.0,0.0,0.0,0.0,0.0,-2.7344,-2.9302,-3.1461,-3.2315,-3.1712,-2.9026,-2.6666,0.0,0.0,0.0,0.0,0.0,0.0,0.0,0.0,0.0,0.0,0.0,0.0,0.0,0.0,0.0,0.0,0.0,0.0,0.0,0.0,0.0,0.0,0.0,0.0,0.0,0.0,0.0,0.0,0.0,0.0,0.0,0.0,0.0,0.0,0.0,0.0,0.0,0.0,0.0,0.0,0.0,0.0,0.0,0.0,0.0,0.0,0.0,0.0,0.0,0.0,0.0,0.0,0.0,0.0,0.0,0.0,0.0,0.0,0.0,0.0,0.0,0.0,0.0,0.0,0.0,0.0,0.0,0.0,0.0,0.0,0.0,0.0,0.0,0.0,0.0,0.0,0.0,0.0,0.0,0.0,0.0,0.0,0.0,0.0,0.0,0.0,0.0,0.0,0.0,0.0,0.0,0.0,0.0,0.0,0.0,0.0,0.0,0.0,0.0,0.0,0.0,0.0,0.0,0.0,0.0,0.0,0.0,-2.6197,-2.8398,-3.0407,-3.2717,-3.3445,-3.2466,-3.0633,-2.8473,-2.5879,0.0,0.0,0.0,0.0,0.0,0.0,0.0,0.0,0.0,0.0,0.0,0.0,0.0,0.0,0.0,0.0,0.0,0.0,0.0,0.0,0.0,0.0,0.0,0.0,0.0,0.0,0.0,0.0,0.0,0.0,0.0,0.0,0.0,0.0,0.0,0.0,0.0,0.0,-1.628,-1.6229,0.0,0.0,0.0,0.0,0.0,0.0,0.0,0.0,-1.9736,0.0,0.0,0.0,0.0,0.0,0.0,0.0,0.0,0.0,0.0,0.0,0.0,0.0,0.0,0.0,0.0,0.0,0.0,0.0,0.0,0.0,0.0,0.0,0.0,0.0,0.0,0.0,0.0,0.0,0.0,0.0,0.0,0.0,0.0,0.0,0.0,0.0,0.0,0.0,0.0,0.0,0.0,0.0,0.0,0.0,0.0,0.0,0.0,0.0,0.0,0.0,0.0,0.0,0.0,0.0,0.0,-2.7224,-2.7744,-2.9679,-3.3119,-3.3671,-3.3822,-3.3545,-3.0618,-2.8349,-2.6826,0.0,0.0,0.0,0.0,0.0,0.0,0.0,0.0,0.0,0.0,0.0,0.0,0.0,0.0,0.0,0.0,0.0,0.0,0.0,0.0,0.0,0.0,0.0,0.0,0.0,0.0,0.0,0.0,0.0,0.0,0.0,0.0,0.0,0.0,0.0,0.0,0.0,0.0,0.0,-1.8188,-1.8416,0.0,0.0,0.0,0.0,0.0,0.0,0.0,0.0,-2.2479,0.0,0.0,0.0,0.0,0.0,0.0,0.0,0.0,0.0,0.0,0.0,0.0,0.0,0.0,0.0,0.0,0.0,0.0,0.0,0.0,0.0,0.0,0.0,0.0,0.0,0.0,0.0,0.0,0.0,0.0,0.0,0.0,0.0,0.0,0.0,0.0,0.0,0.0,0.0,0.0,0.0,0.0,0.0,0.0,0.0,0.0,0.0,0.0,0.0,0.0,0.0,0.0,0.0,0.0,0.0,-2.8731,-3.0765,-3.2803,-3.4966,-3.5333,-3.4984,-3.3872,-3.1486,-2.9075,0.0,0.0,0.0,0.0,0.0,0.0,0.0,0.0,0.0,0.0,0.0,0.0,0.0,0.0,0.0,0.0,0.0,0.0,0.0,0.0,0.0,0.0,0.0,0.0,0.0,0.0,0.0,0.0,0.0,0.0,0.0,0.0,0.0,0.0,0.0,0.0,0.0,0.0,0.0,0.0,-2.0243,-2.0962,-2.4505,0.0,0.0,0.0,0.0,0.0,0.0,-2.5188,-2.4204,0.0,0.0,0.0,0.0,0.0,0.0,0.0,0.0,0.0,0.0,0.0,0.0,0.0,0.0,0.0,0.0,0.0,0.0,0.0,0.0,0.0,0.0,0.0,0.0,0.0,0.0,0.0,0.0,0.0,0.0,0.0,0.0,0.0,0.0,0.0,0.0,0.0,0.0,0.0,0.0,0.0,0.0,0.0,0.0,0.0,0.0,0.0,0.0,0.0,0.0,0.0,0.0,0.0,0.0,0.0,-3.0062,-3.3448,-3.5751,-3.67,-3.7105,-3.6515,-3.486,-3.2449,-2.9872,0.0,0.0,0.0,0.0,0.0,0.0,0.0,0.0,0.0,0.0,0.0,0.0,0.0,0.0,0.0,0.0,0.0,0.0,0.0,0.0,0.0,0.0,0.0,0.0,0.0,0.0,0.0,0.0,0.0,0.0,0.0,0.0,0.0,0.0,0.0,0.0,0.0,0.0,0.0,0.0,0.0,-2.3689,-2.7482,-2.6819,0.0,0.0,0.0,0.0,-2.7196,-2.7211,0.0,0.0,0.0,0.0,0.0,0.0,0.0,0.0,0.0,0.0,0.0,0.0,0.0,0.0,0.0,0.0,0.0,0.0,0.0,0.0,0.0,0.0,0.0,0.0,0.0,0.0,0.0,0.0,0.0,0.0,0.0,0.0,0.0,0.0,0.0,0.0,0.0,0.0,0.0,0.0,0.0,0.0,0.0,0.0,0.0,0.0,0.0,0.0,0.0,0.0,0.0,0.0,0.0,0.0,0.0,0.0,-3.1687,-3.442,-3.6811,-3.8786,-3.8472,-3.8131,-3.7828,-3.3133,-3.025,0.0,0.0,0.0,0.0,0.0,0.0,0.0,0.0,0.0,0.0,0.0,0.0,0.0,0.0,0.0,0.0,0.0,0.0,0.0,0.0,0.0,0.0,0.0,0.0,0.0,0.0,0.0,0.0,0.0,0.0,0.0,0.0,0.0,0.0,0.0,0.0,0.0,0.0,0.0,0.0,0.0,-2.5687,-2.8691,-2.8649,-2.8107,0.0,0.0,-3.2436,-3.1827,-3.3132,0.0,0.0,0.0,0.0,0.0,0.0,0.0,0.0,0.0,0.0,0.0,0.0,0.0,0.0,0.0,0.0,0.0,0.0,0.0,0.0,0.0,0.0,0.0,0.0,0.0,0.0,0.0,0.0,0.0,0.0,0.0,0.0,0.0,0.0,0.0,0.0,0.0,0.0,0.0,0.0,0.0,0.0,0.0,0.0,0.0,0.0,0.0,0.0,0.0,0.0,0.0,0.0,0.0,0.0,0.0,-3.1808,-3.3477,-3.8086,-4.052,-4.0586,-4.0364,-3.9633,-3.8401,-3.4159,-3.1314,0.0,0.0,0.0,0.0,0.0,0.0,0.0,0.0,0.0,0.0,0.0,0.0,0.0,0.0,0.0,0.0,0.0,0.0,0.0,0.0,0.0,0.0,0.0,0.0,0.0,0.0,0.0,0.0,0.0,0.0,0.0,0.0,0.0,0.0,0.0,0.0,0.0,0.0,0.0,0.0,0.0,0.0,-3.0734,-3.1596,0.0,0.0,0.0,-3.3955,-3.1884,0.0,0.0,0.0,0.0,0.0,0.0,0.0,0.0,0.0,0.0,0.0,0.0,0.0,0.0,0.0,0.0,0.0,0.0,0.0,0.0,0.0,0.0,0.0,0.0,0.0,0.0,0.0,0.0,0.0,0.0,0.0,0.0,0.0,0.0,0.0,0.0,0.0,0.0,0.0,0.0,0.0,0.0,0.0,0.0,0.0,0.0,0.0,0.0,0.0,0.0,0.0,0.0,0.0,0.0,0.0,0.0,0.0,-3.498,-4.0902,-4.3589,-4.2704,-4.2348,-4.1449,-3.9821,-3.654,0.0,0.0,0.0,0.0,0.0,0.0,0.0,0.0,0.0,0.0,0.0,0.0,0.0,0.0,0.0,0.0,0.0,0.0,0.0,0.0,0.0,0.0,0.0,0.0,0.0,0.0,0.0,-1.4637,0.0,0.0,0.0,0.0,0.0,0.0,0.0,0.0,0.0,0.0,0.0,0.0,0.0,0.0,-3.084,-3.2806,-3.4147,-3.5136,0.0,0.0,-3.5561,-3.3689,-3.7293,-3.8191,0.0,0.0,0.0,0.0,0.0,0.0,0.0,0.0,0.0,0.0,0.0,0.0,0.0,0.0,0.0,0.0,0.0,0.0,0.0,0.0,0.0,0.0,0.0,0.0,0.0,0.0,0.0,0.0,0.0,0.0,0.0,0.0,0.0,0.0,0.0,0.0,0.0,0.0,0.0,0.0,0.0,0.0,0.0,0.0,0.0,0.0,0.0,0.0,0.0,0.0,0.0,0.0,0.0,0.0,-3.4404,-3.6286,-4.1337,-4.456,-4.5486,-4.4443,-4.3806,-4.3574,-4.1001,-3.7841,0.0,0.0,0.0,0.0,0.0,0.0,0.0,0.0,0.0,0.0,0.0,0.0,0.0,0.0,0.0,0.0,0.0,0.0,0.0,0.0,0.0,0.0,0.0,0.0,0.0,0.0,0.0,0.0,0.0,0.0,0.0,0.0,0.0,0.0,0.0,0.0,0.0,0.0,0.0,0.0,0.0,-3.3536,-3.4497,-3.5663,-3.7197,0.0,0.0,-3.8302,-3.9874,-4.2444,-4.2315,-3.6507,0.0,0.0,0.0,0.0,0.0,0.0,0.0,0.0,0.0,0.0,0.0,0.0,0.0,0.0,0.0,0.0,0.0,0.0,0.0,0.0,0.0,0.0,0.0,0.0,0.0,0.0,0.0,0.0,0.0,0.0,0.0,0.0,0.0,0.0,0.0,0.0,0.0,0.0,0.0,0.0,0.0,0.0,0.0,0.0,0.0,0.0,0.0,0.0,0.0,0.0,0.0,0.0,0.0,-3.6038,-3.7535,-4.2934,-4.5808,-4.5837,-4.4995,-4.4385,-4.4008,-4.186,-3.9102,0.0,0.0,0.0,0.0,0.0,0.0,0.0,0.0,0.0,0.0,0.0,0.0,0.0,0.0,0.0,0.0,0.0,0.0,0.0,0.0,0.0,0.0,0.0,0.0,0.0,0.0,0.0,0.0,-2.3989,-2.4771,-2.4008,0.0,0.0,0.0,0.0,0.0,0.0,0.0,0.0,0.0,0.0,-3.5596,-3.8838,-4.0016,0.0,0.0,-4.2304,-4.1846,-4.1278,-4.3457,-4.3223,-3.7248,-3.6574,0.0,0.0,0.0,0.0,0.0,0.0,0.0,0.0,0.0,0.0,0.0,0.0,0.0,0.0,0.0,0.0,0.0,0.0,0.0,0.0,0.0,0.0,0.0,0.0,0.0,0.0,0.0,0.0,0.0,0.0,0.0,0.0,0.0,0.0,0.0,0.0,0.0,0.0,0.0,0.0,0.0,0.0,0.0,0.0,0.0,0.0,0.0,0.0,0.0,0.0,0.0,0.0,-3.7405,-3.8783,-4.4269,-4.7085,-4.7027,-4.6185,-4.5547,-4.5111,-4.3602,-4.1395,0.0,0.0,0.0,0.0,0.0,0.0,0.0,0.0,0.0,0.0,0.0,0.0,0.0,0.0,0.0,0.0,0.0,0.0,0.0,0.0,0.0,0.0,0.0,0.0,0.0,0.0,0.0,0.0,-2.595,-2.6899,-2.625,0.0,0.0,0.0,0.0,0.0,0.0,0.0,0.0,0.0,0.0,-3.8857,-4.1766,-4.273,-4.3443,-4.4239,-4.4015,-4.3453,-4.275,-4.426,-4.4157,-3.9928,0.0,0.0,0.0,0.0,0.0,0.0,0.0,0.0,0.0,0.0,0.0,0.0,0.0,0.0,0.0,0.0,0.0,0.0,0.0,0.0,0.0,0.0,0.0,0.0,0.0,0.0,0.0,0.0,0.0,0.0,-2.2802,0.0,0.0,0.0,0.0,0.0,0.0,0.0,0.0,0.0,0.0,0.0,0.0,0.0,0.0,0.0,0.0,0.0,0.0,0.0,0.0,0.0,0.0,-3.8231,-4.0128,-4.5184,-4.8381,-4.9485,-4.8362,-4.7712,-4.7637,-4.7027,-4.5415,-4.2789,0.0,0.0,0.0,0.0,0.0,0.0,0.0,0.0,0.0,0.0,0.0,0.0,0.0,0.0,0.0,0.0,0.0,0.0,0.0,0.0,0.0,0.0,0.0,0.0,0.0,0.0,-1.917,-2.2981,-2.6275,0.0,0.0,0.0,0.0,0.0,0.0,0.0,0.0,0.0,0.0,-4.032,-4.3651,-4.2619,-4.2962,-4.3686,-4.4476,-4.2942,-4.2534,-4.5016,-4.5457,-4.5556,0.0,0.0,0.0,0.0,0.0,0.0,0.0,0.0,0.0,0.0,0.0,0.0,0.0,0.0,0.0,0.0,0.0,0.0,0.0,0.0,0.0,0.0,0.0,0.0,0.0,0.0,0.0,-2.5092,-2.5092,0.0,0.0,0.0,0.0,0.0,0.0,0.0,0.0,0.0,0.0,0.0,-3.7559,-3.8409,0.0,0.0,0.0,0.0,0.0,0.0,0.0,0.0,0.0,0.0,0.0,0.0,-4.0665,-4.136,-4.674,-4.9586,-4.9556,-4.8623,-4.8062,-4.8062,-4.7672,-4.604,-4.305,0.0,0.0,0.0,0.0,0.0,0.0,0.0,0.0,0.0,0.0,0.0,0.0,0.0,0.0,0.0,0.0,0.0,0.0,0.0,0.0,0.0,0.0,0.0,0.0,0.0,-2.4229,0.0,0.0,0.0,0.0,0.0,0.0,0.0,0.0,0.0,0.0,0.0,-3.6667,-4.0252,-4.1277,-4.2414,-4.4253,-4.5122,-4.655,0.0,0.0,0.0,0.0,0.0,0.0,0.0,0.0,0.0,0.0,0.0,0.0,0.0,0.0,-3.8654,-3.4235,-3.4544,-3.5579,-3.6028,0.0,0.0,0.0,0.0,0.0,0.0,0.0,0.0,0.0,0.0,0.0,0.0,0.0,0.0,-3.0742,0.0,-2.9661,0.0,0.0,0.0,0.0,0.0,0.0,0.0,0.0,-3.9288,-4.1151,-4.2514,-4.3551,-4.4107,0.0,-4.3201,-3.917,0.0,0.0,0.0,0.0,0.0,0.0,0.0,0.0,-4.2912,-4.2953,-4.8306,-5.108,-5.0825,-5.0063,-4.9644,-4.9644,-4.9267,-4.7724,-4.4734,-4.1069,-3.7907,0.0,0.0,0.0,0.0,0.0,0.0,0.0,0.0,0.0,0.0,0.0,0.0,0.0,0.0,0.0,0.0,0.0,0.0,0.0,0.0,0.0,0.0,0.0,-2.8118,0.0,0.0,0.0,0.0,0.0,0.0,0.0,0.0,0.0,-3.6769,-3.8432,-4.0966,-4.4236,-4.4625,-4.4752,-4.5212,0.0,0.0,0.0,0.0,0.0,0.0,0.0,-4.5557,-4.4751,-4.5276,-4.6028,-4.6797,-4.7348,-4.7642,-4.7642,0.0,0.0,-4.0448,-4.0384,-4.1321,-4.143,-4.1265,-4.1564,-4.3129,-4.3569,-4.4047,0.0,0.0,0.0,0.0,0.0,0.0,0.0,0.0,-3.9216,-3.9149,0.0,-3.6241,0.0,0.0,0.0,0.0,0.0,-4.0817,0.0,0.0,-4.8067,-4.9756,-4.7372,-4.8061,-4.8442,-4.8309,-4.5913,-4.4611,-4.442,-4.2623,0.0,0.0,0.0,0.0,0.0,0.0,-4.492,-4.5124,-5.0058,-5.2911,-5.3444,-5.2911,-5.2536,-5.2457,-5.1837,-5.0357,-4.7992,-4.5756,-4.3838,-4.2133,-3.563,0.0,0.0,0.0,0.0,0.0,0.0,0.0,0.0,0.0,0.0,0.0,0.0,0.0,0.0,0.0,0.0,0.0,0.0,0.0,0.0,-3.052,0.0,0.0,0.0,0.0,0.0,0.0,0.0,0.0,0.0,0.0,-3.8931,-4.2671,-4.6013,-4.6709,0.0,0.0,0.0,0.0,-4.8431,-4.3797,-4.3499,-4.4029,-4.4194,-4.6444,-4.9127,-5.1843,0.0,0.0,-5.4787,-5.247,-5.0947,-5.0749,-5.2501,-5.1848,-4.6604,-4.5583,-4.511,-4.4327,-4.474,-4.5038,-4.5728,-4.7171,-4.7628,-4.7339,0.0,0.0,0.0,0.0,-4.0183,-4.0216,-4.0812,-4.0812,-4.0779,-4.0746,-3.9918,0.0,0.0,0.0,0.0,0.0,0.0,-4.5351,-4.7735,-4.9658,-5.1413,-5.3135,-5.3386,-5.3775,-5.4204,-5.3461,-5.3128,-5.3095,-5.254,-4.8019,-3.9934,0.0,0.0,0.0,0.0,-4.8176,-4.9499,-5.4041,-5.6171,-5.5425,-5.6046,-5.5681,-5.4292,-5.2627,-5.1362,-5.0445,-4.9536,-4.7445,-4.4078,-4.1316,0.0,0.0,0.0,0.0,0.0,0.0,0.0,0.0,0.0,0.0,0.0,0.0,0.0,0.0,0.0,0.0,0.0,0.0,0.0,-3.278,-3.5696,-3.63,0.0,0.0,0.0,0.0,0.0,0.0,0.0,0.0,0.0,-4.6013,-4.5384,-4.5284,0.0,0.0,-4.5019,-4.4059,-4.6609,-4.9028,-5.0087,-5.0055,0.0,0.0,-5.234,-5.2142,-5.3003,-5.6249,-5.8833,-5.9164,-6.0225,-6.1053,-6.0986,-6.1504,-6.1098,-5.8903,-5.5398,-5.3153,-5.3165,-5.3702,-5.4545,-5.57,-5.6887,-5.7617,-5.1874,-4.7802,-4.6543,-4.598,-4.5947,-4.5516,-4.5814,-4.6609,-4.6609,-4.6578,-4.6478,-4.5386,-4.4856,-4.4854,-4.3992,0.0,0.0,0.0,-4.8961,-5.1877,-5.191,-5.3069,-5.5085,-5.545,-5.5984,-5.668,-5.6978,-5.7442,-5.7972,-5.6812,-5.3239,-4.7359,0.0,0.0,-4.5869,-4.9463,-5.1662,-5.2454,-5.6151,-5.7878,-5.7417,-5.8369,-5.7997,-5.6151,-5.4993,-5.3975,-5.3088,-5.226,-5.0952,-4.897,-4.6001,-4.2639,0.0,0.0,0.0,0.0,0.0,0.0,0.0,0.0,0.0,0.0,0.0,-2.6977,-2.5069,0.0,0.0,0.0,-3.5825,-3.7173,-3.8418,-3.9518,0.0,0.0,0.0,0.0,0.0,0.0,0.0,-4.0491,-4.6005,-5.0224,-5.0422,-4.9261,-4.8763,-4.9956,-4.9226,-4.8332,-4.7571,0.0,-5.2316,-5.3011,-5.2782,-5.3213,-5.524,-5.5326,-5.5719,-5.7508,-5.9893,-6.1914,-6.2742,-6.4299,-6.5359,-6.5425,-6.5425,-6.5213,-6.4636,-6.1905,-5.9659,-5.9344,-5.9569,-6.0234,-6.1342,-6.2228,-6.2738,-5.4655,-5.4527,-5.2539,-5.1614,-5.1481,-5.1415,-5.2506,-5.4357,-5.4357,-5.446,-5.4291,-5.1676,-5.0551,-5.0419,-4.8431,0.0,-5.168,-5.1713,-5.2804,-5.4792,-5.4821,-5.4858,-5.4854,-5.5549,-5.6216,-5.6879,-5.7541,-5.8568,-5.9694,-5.721,-5.615,-5.6647,-5.5355,-5.3272,-5.0746,-5.3512,-5.4824,-5.4401,-5.688,-5.8614,-5.9471,-6.0089,-5.9632,-5.8087,-5.8208,-5.7439,-5.5681,-5.4435,-5.4328,-5.5323,-5.0027,-4.7221,-4.7606,0.0,0.0,0.0,0.0,0.0,0.0,0.0,0.0,0.0,0.0,0.0,0.0,0.0,0.0,0.0,-4.2022,0.0,-4.5046,-4.2911,0.0,0.0,0.0,-4.21,-4.4851,-4.7238,-4.863,-4.8658,0.0,0.0,-5.3161,-5.3828,-5.5055,-5.7056,-5.7415,-5.6553,-5.3967,-5.5979,-5.6958,-5.4095,-5.3628,-5.3961,-5.5425,-5.7105,-5.9776,-6.3391,-6.4608,-6.4807,-6.5459,-6.569,-6.5724,-6.5955,-6.579,-6.5778,-6.579,-6.5667,-6.518,-6.3437,-6.2841,-6.2937,-6.3591,-6.3846,-6.4116,-5.615,-5.6117,-5.562,-5.4427,-5.287,-5.234,-5.2705,-5.3665,-5.3699,-5.396,-5.4423,-5.3761,-5.3463,-5.343,-5.2937,-5.34,-5.4593,-5.5156,-5.5984,-5.7011,-5.7608,-5.7873,-5.7873,-5.8038,-5.8204,-5.8369,-5.8535,-5.8833,-5.9131,-5.8469,-5.7641,-5.6713,-5.6349,-5.4982,-5.2748,-5.3437,-5.4574,-5.6067,-5.7798,-5.9896,-6.2202,-6.1404,-6.0631,-6.0007,-5.9568,-5.8729,-5.7565,-5.7936,-5.7694,-5.6789,-5.5017,-5.2916,-5.0398,-4.4964,0.0,0.0,0.0,0.0,0.0,0.0,0.0,0.0,0.0,-3.351,-3.0289,0.0,-3.8321,0.0,-4.6847,-5.1435,-5.0606,-5.0415,0.0,0.0,-4.6941,-4.6938,-4.8894,-5.2023,-5.3494,-5.2033,-5.4814,-5.7122,-5.7859,-5.8093,-5.9427,-6.2456,-5.8225,-5.4922,-5.5472,-5.7185,-5.8562,-5.883,-5.9996,-6.1368,-6.1434,-6.2531,-6.3909,-6.5969,-6.629,-6.6678,-6.7724,-6.791,-6.8076,-6.8606,-6.8738,-6.8771,-6.8672,-6.8738,-6.8564,-6.8021,-6.6303,-6.4912,-6.5633,-6.6223,-6.6576,-5.7674,-5.7641,-5.7309,-5.5918,-5.393,-5.4162,-5.4527,-5.4858,-5.4891,-5.5123,-5.5521,-5.5819,-5.615,-5.6481,-5.6481,-5.6713,-5.7111,-5.7475,-5.7873,-5.8303,-5.8701,-5.8899,-5.8899,-5.8899,-5.9231,-5.986,-5.9893,-6.0225,-6.0821,-6.0821,-6.0423,-5.9669,-5.9628,-5.8535,-5.6382,-5.5057,-5.5156,-5.668,-5.88,-6.1152,-6.368,-6.3272,-6.2319,-6.0924,-6.0161,-5.8936,-5.7086,-5.6556,-5.6168,-5.5998,-5.443,-5.302,-5.1729,-4.6925,-4.3427,0.0,0.0,0.0,0.0,0.0,0.0,0.0,0.0,0.0,0.0,0.0,-4.3429,-4.4122,-5.075,-5.4162,-5.2111,-5.2348,-5.235,-5.1719,-5.169,-5.2561,-5.4804,-5.741,-5.8624,-5.7678,-5.9626,-6.1632,-6.2973,-6.2594,-6.3148,-6.5805,-6.23,-5.96,-6.0108,-6.0991,-6.1776,-6.228,-6.3355,-6.4346,-6.4866,-6.5526,-6.6454,-6.7691,-6.8092,-6.8414,-6.931,-6.9403,-6.9523,-6.9888,-6.9893,-6.9798,-6.9798,-6.9798,-6.9864,-6.9997,-6.9003,-6.8009,-6.7976,-6.8307,-6.8437,-5.8899,-5.8833,-5.8204,-5.6846,-5.5118,-5.6448,-5.6614,-5.5984,-5.5984,-5.6216,-5.6614,-5.7541,-5.827,-5.8899,-5.8899,-5.8899,-5.8899,-5.8999,-5.9032,-5.9032,-5.9131,-5.9198,-5.9164,-5.9164,-5.9893,-6.1218,-6.1251,-6.1947,-6.3282,-6.3315,-6.314,-6.2875,-6.2884,-6.1815,-5.9694,-5.7177,-5.615,-5.6713,-5.9496,-6.1881,-6.3769,-6.4133,-6.3073,-6.0688,-5.9993,-5.8469,-5.5847,-5.3776,-5.328,-5.4448,-5.2011,-5.1316,-5.3,-4.8464,-4.5549,0.0,-4.1806,0.0,0.0,0.0,0.0,0.0,0.0,0.0,0.0,-4.6709,-4.9061,-5.0884,-5.4063,-5.5123,-5.2906,-5.2952,-5.3928,-5.5833,-5.6683,-5.8203,-6.0851,-6.2482,-6.3478,-6.3782,-6.4586,-6.5868,-6.7382,-6.6759,-6.6582,-6.7582,-6.7155,-6.6226,-6.5809,-6.5539,-6.5312,-6.484,-6.4873,-6.5598,-6.6445,-6.7097,-6.7825,-6.9065,-6.9233,-6.9623,-7.0134,-7.0083,-7.0043,-7.0143,-6.9988,-6.9798,-6.9798,-6.9798,-6.9997,-7.0527,-7.0494,-7.0262,-6.9931,-6.9831,-6.9699,-5.8899,-5.8866,-5.8734,-5.8469,-5.8104,-5.8369,-5.6117,-5.2343,-5.2343,-5.3632,-5.5913,-5.7839,-5.8767,-5.8899,-5.8899,-5.8899,-5.8933,-5.9529,-5.9794,-5.9794,-6.0423,-6.0688,-6.0688,-6.0688,-6.1152,-6.1989,-6.2022,-6.2453,-6.3315,-6.3315,-6.2378,-6.0655,-6.0622,-5.9827,-5.827,0.0,0.0,0.0,-5.8999,-6.0423,-6.0755,-5.9198,-5.8071,-5.7541,-5.7972,0.0,-5.6547,-5.6062,-5.5699,-5.5383,-5.4241,0.0,0.0,0.0,0.0,0.0,0.0,0.0,0.0,0.0,0.0,0.0,-4.7901,-4.7239,-4.7239,-4.8796,-5.138,-5.509,-5.7177,-5.888,-6.0237,-6.0984,-6.1599,-6.2171,-6.1917,-6.2199,-6.3504,-6.5005,-6.6205,-6.7089,-6.8405,-6.9192,-6.8967,-6.9172,-6.9219,-6.8972,-6.935,-6.9519,-6.922,-6.8114,-6.7421,-6.7277,-6.7582,-6.8147,-6.8475,-6.8644,-6.8725,-6.8897,-6.8852,-6.9099,-6.9623,-6.9528,-6.9577,-7.009,-6.9988,-6.9798,-6.9765,-6.9798,-6.9798,-6.9997,-6.9997,-7.0129,-7.0593,-7.0693,-7.0461,-5.9993,0.0,-5.9993,-5.9363,0.0,-5.8336,-5.6249,-5.297,-5.4427,-5.6084,-5.7839,-5.8966,-5.9628,-5.996,-5.9231,-5.8899,-5.8899,-5.8535,-5.8966,-5.9993,-6.039,-6.1152,-6.2179,-6.2179,-6.2577,-6.3315,-6.3603,-6.4167,-6.4862,-6.526,-6.4862,-6.3769,-6.3769,-6.3372,-6.2676,-6.2643,-6.1583,-5.9429,-6.0854,-6.2113,-6.314,-6.2113,-6.102,-5.9993,-5.9595,0.0,0.0,0.0,0.0,0.0,0.0,0.0,0.0,0.0,0.0,-5.5454,-5.3533,-5.297,-5.4328,-5.4162,-5.4725,-5.652,-5.6316,-5.5189,-5.3036,-5.4858,-5.7641,-6.1152,-6.1998,-6.2789,-6.3981,-6.4361,-6.4531,-6.4699,-6.5162,-6.5806,-6.6683,-6.8128,-6.9223,-6.9687,-7.0208,-7.0536,-7.096,-7.0183,-6.9871,-6.9834,-7.0113,-7.0281,-6.99,-6.9783,-6.9589,-6.9165,-6.9033,-6.9214,-6.9553,-6.962,-6.9745,-6.9927,-6.9984,-7.0108,-7.0355,-7.0196,-7.0147,-7.0436,-7.0316,-7.0076,-6.9677,-6.955,-6.9456,-6.9456,-6.9362,-6.95,-7.0163,-7.0361,-7.0129,-6.1595,-6.1595,-6.1595,-6.0525,-5.8853,-5.8864,-5.7881,-5.6298,0.0,0.0,0.0,-6.0199,-6.0763,-6.1218,-6.0158,-5.9661,-5.9595,-5.8403,-5.8833,-6.0556,-6.0589,-6.1616,-6.3481,-6.3514,-6.3935,-6.4763,-6.5326,-6.6055,-6.6916,-6.7413,-6.7665,-6.7764,-6.7665,-6.7566,-6.7566,-6.7566,-6.6154,-6.3305,-6.3338,-6.4332,-6.6055,-6.5757,-6.4664,-6.2742,-6.155,-5.9926,-5.7873,-5.721,-5.6812,-5.668,-5.6117,-5.6012,-5.6476,-5.5885,-5.5719,-5.6216,-5.6117,-5.7144,-5.9463,-5.9694,-6.073,-6.3226,-6.3534,-6.2372,-5.933,-6.1393,-6.3889,-6.6365,-6.6224,-6.6001,-6.5945,-6.5755,-6.5649,-6.5857,-6.7193,-6.8409,-6.9332,-7.0836,-7.1784,-7.1889,-7.1614,-7.1585,-7.2478,-7.1091,-7.0062,-7.0697,-7.102,-7.0942,-7.0696,-7.1319,-7.1412,-7.0786,-7.0328,-7.0018,-7.0239,-7.0398,-7.0703,-7.1312,-7.1447,-7.1548,-7.1639,-7.1457,-7.132,-7.1375,-7.0922,-7.0222,-6.9654,-6.9123,-6.8864,-6.8818,-6.8679,-6.8705,-6.9401,-6.9599,-6.9467,-6.3505,-6.347,-6.3505,-6.3297,-6.3019,-6.3038,-6.2882,-6.2397,-5.9531,-5.8202,-5.831,-6.0961,-6.2124,-6.2089,-6.2477,-6.2643,-6.2685,-6.2487,-6.2543,-6.2808,-6.2808,-6.3348,-6.42,-6.4233,-6.4929,-6.6154,-6.632,-6.7049,-6.8208,-6.7877,-6.7943,-6.8407,-6.7943,-6.7599,-6.7566,-6.7566,-6.7334,-6.685,-6.5094,-6.4332,-6.4664,-6.2842,-6.1417,-6.0523,-6.039,-5.9429,-5.7873,-5.7773,-5.7342,-5.6746,-5.6581,-5.7674,-6.0125,-5.9661,-6.0357,-6.2709,-6.2411,-6.2245,-6.261,-6.2643,-6.2927,-6.3539,-6.4352,-6.4676,-6.4409,-6.4906,-6.5736,-6.6767,-6.699,-6.6842,-6.6479,-6.6406,-6.6769,-6.7513,-6.7901,-6.86,-7.0205,-7.169,-7.2905,-7.344,-7.4113,-7.3786,-7.2902,-7.2424,-7.2135,-7.247,-7.2789,-7.3701,-7.4289,-7.3685,-7.2582,-7.2264,-7.2138,-7.1816,-7.1318,-7.1142,-7.1413,-7.2124,-7.2191,-7.236,-7.2902,-7.2785,-7.2645,-7.2733,-7.1399,-7.043,-7.0049,-6.8805,-6.8181,-6.8048,-6.7969,-6.8076,-6.8884,-6.9083,-6.9169,-6.4808,-6.5156,-6.5227,-6.5227,-6.5226,-6.5207,-6.5176,-6.5108,-6.3467,-6.2135,-6.1339,-6.2716,-6.3241,-6.3124,-6.2657,-6.2457,-6.2466,-6.1467,-6.1925,-6.3378,-6.3358,-6.4299,-6.6022,-6.6154,-6.6485,-6.7115,-6.7512,-6.8042,-6.8639,-6.8738,-6.897,-6.9268,-6.8937,-6.8804,-6.8804,-6.8804,-6.8804,-6.8771,-6.7413,-6.6684,-6.6717,-6.5724,-6.5061,-6.473,-6.4365,-6.3835,-6.3173,-6.2742,-6.2543,-6.2643,-6.2212,-6.2808,-6.4498,-6.3935,-6.4133,-6.5392,-6.4862,-6.4432,-6.4432,-6.4563,-6.4737,-6.4953,-6.5383,-6.6067,-6.6954,-6.7523,-6.7937,-6.8238,-6.886,-6.8648,-6.73,-6.8022,-6.8808,-6.9187,-7.0395,-7.1678,-7.2757,-7.3546,-7.4176,-7.4464,-7.4449,-7.4188,-7.349,-7.3363,-7.3353,-7.3452,-7.4046,-7.4899,-7.5587,-7.515,-7.4436,-7.3928,-7.3119,-7.2406,-7.2004,-7.1512,-7.1661,-7.2293,-7.2394,-7.2699,-7.3308,-7.3418,-7.3202,-7.2785,-7.1926,-7.1127,-7.0443,-6.9523,-6.8784,-6.8238,-6.7978,-6.824,-6.9124,-6.996,-7.0328,-6.6532,-6.6919,-6.6919,-6.6954,-6.6952,-6.6951,-6.6949,-6.6979,-6.7123,-6.6661,-6.5705,-6.493,-6.4529,-6.4386,-6.3239,-6.2855,-6.2781,-6.1573,-6.2249,-6.4414,-6.4397,-6.5558,-6.7678,-6.7877,-6.7943,-6.8142,-6.8672,-6.9003,-6.9235,-6.9599,-6.9798,-6.9798,-6.9798,-6.9798,-6.9798,-6.9798,-6.9798,-6.9765,-6.9235,-6.8937,-6.8937,-6.8937,-6.8837,-6.8672,-6.8142,-6.7764,-6.7566,-6.7036,-6.7003,-6.7499,-6.7082,-6.7016,-6.7499,-6.7247,-6.6949,-6.6751,-6.6431,-6.6078,-6.5869,-6.6057,-6.6377,-6.6685,-6.703,-6.7839,-6.9152,-7.0182,-7.0299,-6.9815,-7.0593,-7.0477,-6.8879,-6.9639,-7.0699,-7.0941,-7.2462,-7.3797,-7.4869,-7.5105,-7.5225,-7.5225,-7.4682,-7.4178,-7.4175,-7.403,-7.3961,-7.4214,-7.4863,-7.537,-7.5442,-7.5949,-7.5967,-7.5335,-7.4072,-7.2996,-7.2617,-7.2047,-7.1896,-7.235,-7.2563,-7.3003,-7.3578,-7.3883,-7.3713,-7.316,-7.2539,-7.1784,-7.0602,-6.9749,-6.9211,-6.8618,-6.8294,-6.8536,-6.9843,-7.1099,-7.1636,-6.9539,-6.8992,-6.8971,-6.8938,-6.8952,-6.8987,-6.9034,-6.9027,-6.8989,-6.976,-7.0479,-6.7635,-6.6297,-6.6016,-6.5817,-6.6014,-6.6574,-6.6345,-6.6624,-6.7378,-6.7306,-6.7711,-6.8539,-6.8572,-6.8937,-6.9467,-6.9633,-6.9931,-7.0461,-7.003,-6.9798,-6.9798,-6.9798,-6.9798,-6.9798,-6.9798,-6.9798,-6.9798,-6.9732,-6.9699,-6.9699,-6.9699,-6.9368,-6.8705,-6.8639,-6.8274,-6.7698,-6.7533,-6.7579,-6.7566,-6.7579,-6.7499,-6.7711,-6.8142,-6.8208,-6.7612,-6.8273,-6.8302,-6.7212,-6.7265,-6.7709,-6.8493,-6.9792,-7.0906,-7.183,-7.3303,-7.2992,-7.1041,-7.1543,-7.1778,-7.0372,-7.0954,-7.186,-7.2368,-7.2905,-7.3472,-7.4849,-7.5086,-7.5406,-7.613,-7.537,-7.4974,-7.483,-7.4431,-7.4319,-7.4902,-7.5587,-7.6022,-7.6058,-7.6167,-7.6275,-7.6072,-7.5371,-7.4187,-7.2996,-7.249,-7.2355,-7.2406,-7.2935,-7.351,-7.4153,-7.4796,-7.5202,-7.3849,-7.3,-7.1862,-7.0827,-6.9704,-6.8741,-6.8943,-6.8819,-6.8851,-7.0036,-7.1427,-7.2096,-7.1857,-7.1965,-7.1965,-7.1986,-7.2047,-7.2482,-7.2674,-7.2721,-7.3222,-7.3759,-7.4083,-7.2397,-7.1052,-7.0054,-6.9069,-6.8751,-6.8982,-6.8277,-6.8272,-6.8772,-6.8565,-6.8779,-6.9268,-6.9334,-6.95,-6.9765,-6.9798,-6.9931,-7.0163,-6.9931,-6.9798,-6.9798,-6.9798,-6.9798,-6.9798,-6.9798,-6.9798,-6.9798,-6.9798,-6.9798,-6.9798,-6.9798,-6.9666,-6.9368,-6.9334,-6.9235,-6.8904,-6.8506,-6.844,-6.8837,-6.8506,-6.8473,-6.8904,-6.9169,-6.9296,-6.9171,-6.9236,-6.9131,-6.8719,-6.8449,-6.8446,-6.8914,-7.0029,-7.106,-7.1877,-7.3347,-7.3604,-7.2724,-7.3345,-7.327,-7.1606,-7.265,-7.3617,-7.3618,-7.4257,-7.5103,-7.5665,-7.5406,-7.5264,-7.5515,-7.5297,-7.5083,-7.5119,-7.5261,-7.5442,-7.5804,-7.613,-7.6311,-7.6311,-7.6275,-7.6275,-7.6242,-7.5967,-7.5119,-7.3641,-7.279,-7.2537,-7.2473,-7.2631,-7.3172,-7.4255,-7.4322,-7.4255,-7.3984,-7.3012,-7.2054,-7.1278,-7.0749,-7.0086,-7.0018,-7.049,-7.0937,-7.1217,-7.2446,-7.321,-7.3704,-7.4214,-7.4464,-7.4573,-7.4609,-7.5189,-7.5442,-7.5515,-7.6058,-7.6529,-7.6893,-7.6085,-7.5405,-7.4454,-7.2086,-7.0918,-7.0829,-7.0008,-6.9783,-7.0071,-6.9908,-7.0023,-7.0301,-7.0054,-7.0087,-7.0192,-7.0225,-7.0324,-7.0361,-7.0394,-7.0394,-7.0394,-7.0394,-7.0394,-7.0394,-7.0394,-7.0394,-7.0394,-7.0394,-7.0394,-7.0394,-7.0196,-6.9997,-6.9831,-6.9798,-6.9798,-6.9798,-6.9396,-6.9429,-7.0173,-6.9755,-6.9869,-7.06,-7.0999,-7.1427,-7.1732,-7.0783,-7.0309,-7.0501,-6.9823,-6.9601,-7.0089,-7.1098,-7.222,-7.3132,-7.439,-7.501,-7.4903,-7.5334,-7.4796,-7.318,-7.4294,-7.5067,-7.4722,-7.5679,-7.6275,-7.6239,-7.5732,-7.5478,-7.5442,-7.5551,-7.5442,-7.5515,-7.5877,-7.6203,-7.6239,-7.6456,-7.6601,-7.6674,-7.6818,-7.7,-7.6963,-7.6963,-7.6051,-7.429,-7.3362,-7.2801,-7.2212,-7.2225,-7.28,-7.3883,-7.3544,-7.3308,-7.3308,-7.2732,-7.2191,-7.147,-7.1233,-7.1244,-7.1375,-7.1788,-7.2308,-7.2395,-7.3492,-7.404,-7.5011,-7.5189,-7.5877,-7.6203,-7.6203,-7.6275,-7.6275,-7.642,-7.642,-7.7217,-7.8412,-7.7764,-7.8234,-7.8999,-7.4747,-7.2589,-7.2498,-7.2066,-7.1816,-7.1871,-7.1694,-7.1587,-7.1553,-7.0837,-7.0764,-7.1161,-7.1194,-7.1431,-7.1786,-7.1852,-7.1918,-7.1852,-7.1786,-7.1852,-7.1786,-7.1753,-7.1852,-7.1802,-7.1753,-7.1819,-7.1753,-7.1189,-7.0527,-7.0045,-6.9798,-6.9798,-6.9846,-7.0002,-7.0476,-7.1175,-7.1379,-7.1841,-7.261,-7.3897,-7.4932,-7.5579,-7.344,-7.2018,-7.2214,-7.173,-7.1656,-7.2506,-7.4292,-7.6006,-7.6378,-7.7273,-7.7476,-7.7225,-7.6983,-7.6442,-7.5156,-7.5506,-7.6097,-7.6063,-7.6169,-7.6275,-7.6275,-7.6203,-7.6239,-7.6167,-7.613,-7.6094,-7.6167,-7.6239,-7.6348,-7.6492,-7.6927,-7.7362,-7.7507,-7.8014,-7.8267,-7.8376,-7.8199,-7.7487,-7.465,-7.419,-7.335,-7.2656,-7.2867,-7.2632,-7.2744,-7.2868,-7.28,-7.2699,-7.2394,-7.2022,-7.1515,-7.1357,-7.1502,-7.1711,-7.215,-7.2552,-7.286,-7.389,-7.4323,-7.7398,-7.7434,-7.7724,-7.7833,-7.7905,-7.8376,-7.8593,-7.8666,-7.9136,-7.968,-8.0114,-7.9933,-8.0151,-8.055,-7.828,-7.6662,-7.5622,-7.4351,-7.3738,-7.3583,-7.3439,-7.3016,-7.2471,-7.2524,-7.2348,-7.2023,-7.2008,-7.1963,-7.1951,-7.2018,-7.2018,-7.2018,-7.2018,-7.2018,-7.2018,-7.2018,-7.2034,-7.2229,-7.2083,-7.2116,-7.2262,-7.185,-7.1552,-7.1398,-7.05,-7.0035,-7.0035,-7.0784,-7.1292,-7.156,-7.2089,-7.2491,-7.2873,-7.3922,-7.4892,-7.5493,-7.4424,-7.3966,-7.4477,-7.4015,-7.3933,-7.4869,-7.6089,-7.7053,-7.7311,-7.7662,-7.7738,-7.7485,-7.6975,-7.6395,-7.6146,-7.614,-7.6275,-7.6275,-7.6275,-7.6275,-7.6275,-7.6275,-7.6275,-7.6275,-7.6275,-7.6275,-7.6275,-7.6275,-7.6492,-7.6927,-7.6891,-7.7253,-7.7977,-7.8159,-7.8267,-7.8593,-7.8667,-7.8098,-7.6572,-7.6131,-7.5709,-7.4676,-7.4213,-7.386,-7.3734,-7.2609,-7.2271,-7.2326,-7.2124,-7.1921,-7.1481,-7.13,-7.1512,-7.1955,-7.2424,-7.2886,-7.311,-7.399,-7.4273,-7.91,-7.9136,-7.939,-7.9499,-7.9535,-8.0042,-8.0295,-8.0368,-8.0875,-8.1092,-8.1165,-8.1382,-8.1491,-8.1455,-8.1121,-8.0464,-7.9126,-7.7013,-7.5834,-7.5647,-7.5064,-7.4397,-7.3816,-7.3783,-7.3505,-7.3064,-7.3168,-7.3123,-7.3009,-7.296,-7.296,-7.2993,-7.296,-7.296,-7.296,-7.296,-7.3107,-7.3171,-7.3025,-7.3107,-7.3171,-7.2825,-7.2692,-7.2753,-7.2014,-7.1379,-7.1084,-7.1754,-7.2297,-7.2532,-7.3097,-7.3601,-7.4119,-7.4767,-7.547,-7.6009,-7.5709,-7.5641,-7.6189,-7.5887,-7.5919,-7.6592,-7.7576,-7.824,-7.8205,-7.8241,-7.816,-7.7833,-7.7144,-7.6637,-7.642,-7.6529,-7.6565,-7.6384,-7.6275,-7.6275,-7.6275,-7.6275,-7.6275,-7.6275,-7.6275,-7.6275,-7.6275,-7.6275,-7.6674,-7.7362,-7.7181,-7.7688,-7.8666,-7.8955,-7.881,-7.9354,-7.9571,-7.9431,-7.8745,-7.8599,-7.7245,-7.6132,-7.4974,-7.4747,-7.405,-7.2756,-7.1953,-7.2011,-7.1954,-7.1751,-7.1559,-7.1423,-7.1711,-7.2183,-7.2778,-7.3369,-7.3657,-7.4007,-7.4223,-7.9897,-8.0006,-8.0766,-8.0947,-8.0911,-8.0947,-8.1092,-8.1128,-8.1165,-8.1273,-8.1491,-8.1998,-8.2287,-8.2432,-8.283,-8.3265,-8.2492,-7.9705,-7.8227,-7.8069,-7.6688,-7.5899,-7.5534,-7.4517,-7.4093,-7.4119,-7.4631,-7.4868,-7.4752,-7.4719,-7.4719,-7.4868,-7.4719,-7.4603,-7.4902,-7.4719,-7.4835,-7.4801,-7.4685,-7.4801,-7.4917,-7.4183,-7.3849,-7.3945,-7.4071,-7.3769,-7.294,-7.313,-7.3609,-7.4161,-7.4519,-7.529,-7.627,-7.6637,-7.7111,-7.7474,-7.7342,-7.712,-7.7188,-7.7279,-7.7281,-7.7692,-7.8891,-7.9466,-7.9394,-7.9392,-7.9136,-7.8448,-7.7796,-7.7144,-7.6637,-7.7072,-7.7217,-7.6492,-7.642,-7.642,-7.6384,-7.6311,-7.6311,-7.6348,-7.642,-7.6348,-7.6348,-7.6674,-7.7181,-7.7869,-7.8303,-7.8919,-7.9861,-8.0332,-8.0875,-8.0947,-8.0839,-8.0659,-8.084,-8.084,-7.8948,-7.7248,-7.605,-7.5229,-7.4427,-7.3301,-7.2512,-7.2371,-7.2496,-7.236,-7.2394,-7.2325,-7.2726,-7.3178,-7.3591,-7.39,-7.4122,-7.4373,-7.4306,-8.073,-8.0766,-8.0984,-8.1092,-8.1092,-8.1092,-8.1382,-8.1889,-8.1925,-8.2215,-8.2722,-8.3012,-8.312,-8.3157,-8.3374,-8.3772,-8.4095,-8.1952,-8.0588,-7.9998,-7.9365,-7.8107,-7.6851,-7.6702,-7.6105,-7.5118,-7.4981,-7.5018,-7.5051,-7.5051,-7.5051,-7.5051,-7.5051,-7.5051,-7.5018,-7.5018,-7.5067,-7.5179,-7.5067,-7.5067,-7.5179,-7.4832,-7.4731,-7.4911,-7.5445,-7.571,-7.5638,-7.5701,-7.558,-7.5344,-7.5831,-7.6183,-7.6259,-7.6675,-7.7148,-7.7377,-7.7805,-7.835,-7.8781,-7.852,-7.8523,-7.8927,-7.9176,-7.9065,-7.8992,-7.8629,-7.8267,-7.7941,-7.7615,-7.7362,-7.7326,-7.7833,-7.7977,-7.7217,-7.7108,-7.7108,-7.7072,-7.6674,-7.6601,-7.7,-7.7108,-7.7362,-7.7905,-7.8231,-7.8847,-7.9499,-7.968,-7.9969,-8.1092,-8.1128,-8.1128,-8.1092,-8.1418,-8.1563,-8.1273,-8.1056,-8.008,-7.8548,-7.7349,-7.6054,-7.5125,-7.4195,-7.3376,-7.2835,-7.3005,-7.3138,-7.3172,-7.3464,-7.3898,-7.4074,-7.4287,-7.4481,-7.4588,-7.4672,-7.4772,-8.1092,-8.1092,-8.1092,-8.1092,-8.1092,-8.1092,-8.1382,-8.1817,-8.1853,-8.2143,-8.2577,-8.2903,-8.3048,-8.3084,-8.3338,-8.3772,-8.4134,-8.3102,-8.2189,-8.1273,-8.0141,-7.891,-7.7489,-7.7262,-7.6765,-7.5681,-7.5359,-7.5262,-7.5262,-7.5228,-7.5228,-7.5228,-7.5262,-7.5277,-7.5262,-7.5262,-7.5325,-7.5422,-7.5325,-7.5325,-7.5422,-7.5325,-7.5493,-7.5893,-7.6616,-7.7254,-7.7671,-7.7976,-7.7638,-7.699,-7.7652,-7.7998,-7.7697,-7.8183,-7.8249,-7.7858,-7.8434,-7.917,-7.9682,-7.9596,-7.9574,-7.9755,-7.9426,-7.9173,-7.9028,-7.8412,-7.805,-7.834,-7.8122,-7.7941,-7.805,-7.8666,-7.8847,-7.8484,-7.8122,-7.7977,-7.7869,-7.7507,-7.7434,-7.7833,-7.7941,-7.8231,-7.8702,-7.939,-8.0042,-8.0513,-8.0513,-8.0513,-8.1491,-8.1382,-8.1237,-8.1165,-8.1309,-8.1309,-8.1165,-8.1056,-8.0947,-7.99,-7.8704,-7.7444,-7.6297,-7.5385,-7.4459,-7.389,-7.3781,-7.4153,-7.4289,-7.483,-7.5242,-7.5214,-7.5354,-7.58,-7.609,-7.5505,-7.5406,-8.1092,-8.1092,-8.1092,-8.1092,-8.1092,-8.1092,-8.1201,-8.1273,-8.1273,-8.1454,-8.1635,-8.2324,-8.2505,-8.2613,-8.3229,-8.3555,-8.3483,-8.3337,-8.2829,-8.1619,-7.9934,-7.843,-7.8024,-7.6688,-7.5872,-7.5709,-7.5662,-7.5628,-7.5614,-7.5614,-7.5676,-7.5662,-7.5614,-7.5777,-7.5749,-7.5777,-7.5695,-7.5831,-7.5729,-7.5662,-7.5662,-7.5763,-7.6067,-7.6826,-7.7701,-7.8477,-7.9069,-7.993,-7.9778,-7.8676,-7.9685,-8.0489,-8.0823,-8.095,-8.0211,-7.9086,-7.9578,-8.0042,-8.0276,-8.0727,-8.0767,-8.0151,-7.9933,-7.9861,-7.9535,-7.8955,-7.8774,-7.9318,-7.9028,-7.8774,-7.8919,-7.9499,-7.9861,-7.9861,-7.9209,-7.8774,-7.8702,-7.8593,-7.8557,-7.8666,-7.8774,-7.8847,-7.9064,-7.9752,-8.0187,-8.0404,-8.0875,-8.1273,-8.1382,-8.1454,-8.1237,-8.1237,-8.1382,-8.1346,-8.1237,-8.1092,-8.0984,-8.0551,-7.9427,-7.8167,-7.6859,-7.582,-7.5536,-7.5,-7.4762,-7.5134,-7.5608,-7.6149,-7.6623,-7.6879,-7.7187,-7.7579,-7.7261,-7.6574,-7.6074,-8.1092,-8.1092,-8.1092,-8.1092,-8.1092,-8.1092,-8.1454,-8.1925,-8.1961,-8.2215,-8.2758,-8.3084,-8.3012,-8.3193,-8.3301,-8.3483,-8.3265,-8.2831,-8.2541,-8.2033,-8.0367,-7.8999,-7.8084,-7.6541,-7.5709,-7.5743,-7.5811,-7.5676,-7.5676,-7.5811,-7.5777,-7.5676,-7.5845,-7.6048,-7.642,-7.6048,-7.6048,-7.6386,-7.598,-7.5743,-7.5845,-7.6366,-7.6657,-7.7009,-7.8818,-7.987,-8.0342,-8.2118,-8.2395,-8.0953,-8.1095,-8.1782,-8.2611,-8.2713,-8.2399,-8.2023,-8.215,-8.2463,-8.2392,-8.2106,-8.1599,-8.0839,-8.0187,-7.9643,-7.9064,-7.8847,-7.881,-7.91,-7.9245,-7.9571,-7.9716,-8.0295,-8.0694,-8.0694,-8.0042,-7.939,-7.8955,-7.8738,-7.8919,-7.9426,-7.9571,-7.9825,-8.0332,-8.0984,-8.1454,-8.1491,-8.1672,-8.1817,-8.1708,-8.1672,-8.1527,-8.1418,-8.1454,-8.1418,-8.1346,-8.1201,-8.102,-8.0876,-7.9894,-7.8559,-7.7046,-7.5524,-7.5766,-7.5946,-7.6014,-7.6318,-7.6927,-7.7502,-7.7942,-7.828,-7.8163,-7.82,-7.7765,-7.7245,-7.6961,-8.1092,-8.1092,-8.1092,-8.1092,-8.1165,-8.1454,-8.1672,-8.1853,-8.2179,-8.2324,-8.2505,-8.2468,-8.2468,-8.2505,-8.2468,-8.2505,-8.2396,-8.1998,-8.1817,-8.1599,-8.0388,-7.9084,-7.7867,-7.6573,-7.6217,-7.6251,-7.6487,-7.6657,-7.669,-7.6657,-7.6657,-7.6724,-7.6657,-7.6927,-7.7266,-7.6961,-7.686,-7.7198,-7.686,-7.6657,-7.6724,-7.7509,-7.8142,-7.8605,-8.0213,-8.1283,-8.2174,-8.3781,-8.4452,-8.4337,-8.4427,-8.4644,-8.5151,-8.4967,-8.4604,-8.4029,-8.3657,-8.3338,-8.2976,-8.2505,-8.1744,-8.0802,-8.0078,-7.9752,-7.9354,-7.9209,-7.9245,-7.9788,-8.0187,-8.0368,-8.0476,-8.0875,-8.1056,-8.102,-8.0694,-8.0223,-7.9752,-7.9788,-7.9933,-8.0259,-8.044,-8.0549,-8.1092,-8.178,-8.1961,-8.1925,-8.1961,-8.1889,-8.178,-8.1817,-8.178,-8.1527,-8.1382,-8.1309,-8.1273,-8.1165,-8.1092,-8.0948,-8.0218,-7.8914,-7.7537,-7.5893,-7.5844,-7.6347,-7.6942,-7.7468,-7.7874,-7.8416,-7.9058,-7.9194,-7.8957,-7.8806,-7.8572,-7.8035,-7.7749,-8.1273,-8.1346,-8.1346,-8.1346,-8.1527,-8.2106,-8.2215,-8.178,-8.2251,-8.2251,-8.1889,-8.1527,-8.1817,-8.1346,-8.1961,-8.1491,-8.1382,-8.1527,-8.1418,-8.1237,-8.0496,-7.9509,-7.8398,-7.772,-7.7366,-7.738,-7.7866,-7.7871,-7.7803,-7.7841,-7.7908,-7.7773,-7.7807,-7.801,-7.801,-7.7942,-7.8044,-7.8228,-7.8167,-7.8114,-7.8374,-7.914,-7.9891,-8.0478,-8.1558,-8.312,-8.4379,-8.5464,-8.632,-8.8212,-8.8128,-8.7837,-8.7988,-8.7609,-8.6487,-8.529,-8.4496,-8.3627,-8.2831,-8.2794,-8.1961,-8.0766,-8.0368,-8.0078,-8.0078,-8.0042,-8.0259,-8.0766,-8.1092,-8.0984,-8.102,-8.1092,-8.1092,-8.1128,-8.1128,-8.1237,-8.1237,-8.1165,-8.1092,-8.1092,-8.1092,-8.1092,-8.1273,-8.1599,-8.1925,-8.1527,-8.1672,-8.1635,-8.1491,-8.1418,-8.1382,-8.1237,-8.1165,-8.1128,-8.1128,-8.1092,-8.1092,-8.0985,-8.0288,-7.923,-7.8223,-7.6962,-7.6336,-7.6435,-7.727,-7.7852,-7.8247,-7.8923,-7.9701,-7.9938,-7.96,-7.9736,-7.9735,-7.901,-7.8571,-8.2396,-8.2976,-8.2976,-8.2976,-8.3012,-8.3157,-8.3446,-8.3772,-8.3374,-8.3338,-8.3627,-8.3229,-8.2939,-8.2939,-8.2758,-8.265,-8.1998,-8.1925,-8.2034,-8.1997,-8.1789,-8.1461,-8.0671,-7.978,-7.9019,-7.8959,-7.9015,-7.8763,-7.8254,-7.8179,-7.8093,-7.816,-7.8545,-7.8364,-7.897,-7.888,-7.8653,-7.9411,-7.9413,-7.9518,-8.0049,-8.0831,-8.148,-8.1883,-8.3083,-8.4972,-8.6832,-8.7493,-8.8486,-8.9433,-8.8917,-8.8511,-8.9267,-8.8082,-8.7141,-8.6851,-8.5909,-8.4931,-8.4279,-8.3845,-8.3447,-8.1744,-8.1308,-8.1491,-8.0875,-8.0694,-8.0839,-8.1092,-8.1092,-8.1056,-8.1201,-8.1128,-8.1273,-8.1418,-8.1708,-8.2034,-8.1925,-8.1527,-8.1309,-8.1165,-8.1165,-8.1092,-8.1128,-8.1201,-8.1309,-8.1165,-8.1201,-8.1273,-8.1201,-8.1128,-8.1092,-8.1092,-8.1092,-8.1092,-8.1092,-8.1092,-8.1092,-8.1056,-8.0473,-7.9757,-7.8764,-7.7832,-7.7099,-7.7156,-7.7782,-7.8167,-7.828,-7.9194,-7.9938,-8.0073,-8.0209,-8.0158,-7.9938,-7.9499,-7.9193,-8.312,-8.3483,-8.3483,-8.3483,-8.3483,-8.3483,-8.3736,-8.399,-8.37,-8.37,-8.399,-8.3627,-8.3483,-8.3446,-8.312,-8.265,-8.2287,-8.1889,-8.1708,-8.178,-8.1953,-8.2378,-8.2768,-8.2152,-8.1436,-8.0327,-8.0293,-7.9864,-7.9288,-7.9124,-7.9559,-8.0204,-8.0219,-8.1201,-8.1888,-8.1509,-8.1789,-8.1974,-8.1818,-8.1722,-8.1812,-8.2576,-8.3419,-8.3738,-8.4653,-8.5991,-8.735,-8.8049,-8.8962,-8.9615,-8.9123,-8.8859,-8.9833,-8.8674,-8.791,-8.7473,-8.6237,-8.5078,-8.439,-8.3484,-8.254,-8.1522,-8.1086,-8.0686,-8.0323,-8.0214,-8.0399,-8.0581,-8.0691,-8.0873,-8.1563,-8.2106,-8.2179,-8.2287,-8.2541,-8.2867,-8.2758,-8.2468,-8.2034,-8.1817,-8.1708,-8.1454,-8.1309,-8.1128,-8.1092,-8.1128,-8.1128,-8.1201,-8.1165,-8.1092,-8.1092,-8.1092,-8.1092,-8.1092,-8.1092,-8.1092,-8.1092,-8.1056,-8.084,-8.0213,-7.9448,-7.8552,-7.7685,-7.7754,-7.7631,-7.7881,-7.8145,-7.9126,-7.987,-8.0107,-8.0175,-8.0209,-8.0074,-7.9735,-7.9531,-8.3555,-8.3664,-8.3664,-8.3664,-8.37,-8.3845,-8.4062,-8.4135,-8.3881,-8.4207,-8.399,-8.3917,-8.4098,-8.3809,-8.3555,-8.3084,-8.2976,-8.265,-8.2794,-8.2577,-8.3228,-8.3624,-8.4022,-8.4119,-8.3437,-8.1353,-8.154,-8.1194,-8.0569,-8.056,-8.1131,-8.2596,-8.2924,-8.331,-8.4817,-8.528,-8.4747,-8.4386,-8.4131,-8.3992,-8.3736,-8.4284,-8.492,-8.542,-8.5685,-8.6157,-8.7068,-8.7801,-8.868,-8.9484,-8.9089,-8.9201,-8.9237,-8.8723,-8.7917,-8.7117,-8.5698,-8.4428,-8.3229,-8.2211,-8.1226,-8.0342,-7.9722,-7.943,-7.947,-7.9725,-8.0058,-8.0426,-8.0793,-8.1233,-8.2215,-8.2831,-8.3265,-8.3374,-8.3446,-8.3483,-8.3483,-8.3483,-8.2976,-8.2324,-8.1817,-8.1454,-8.1273,-8.1092,-8.1092,-8.1092,-8.1092,-8.1092,-8.1092,-8.1092,-8.1092,-8.1092,-8.1092,-8.1092,-8.1092,-8.1092,-8.1092,-8.1056,-8.0985,-8.0584,-7.9949,-7.8968,-7.8039,-7.7327,-7.7271,-7.7468,-7.7908,-7.872,-7.9363,-7.987,-8.0175,-8.0209,-8.0107,-8.0006,-7.975,-8.3881,-8.4497,-8.4497,-8.4497,-8.4605,-8.5185,-8.5692,-8.6235,-8.5583,-8.5837,-8.6199,-8.5764,-8.5438,-8.5511,-8.609,-8.6163,-8.5656,-8.5257,-8.5149,-8.4931,-8.5438,-8.5801,-8.5293,-8.5473,-8.4852,-8.3887,-8.3138,-8.2268,-8.1556,-8.1448,-8.2383,-8.3645,-8.4036,-8.4648,-8.5496,-8.5476,-8.6098,-8.6126,-8.5848,-8.572,-8.571,-8.5562,-8.5569,-8.5909,-8.5909,-8.6271,-8.6853,-8.7331,-8.7956,-8.8798,-8.902,-8.8874,-8.8581,-8.7632,-8.6903,-8.6283,-8.5482,-8.4136,-8.2463,-8.1769,-8.0781,-7.9795,-7.9318,-7.9573,-7.9938,-8.0156,-8.0409,-8.1182,-8.1771,-8.2249,-8.2287,-8.3302,-8.3483,-8.3555,-8.3591,-8.3519,-8.3519,-8.3338,-8.3084,-8.2396,-8.1817,-8.1346,-8.1201,-8.1092,-8.1092,-8.1092,-8.1092,-8.1092,-8.1092,-8.1092,-8.1092,-8.1092,-8.1092,-8.1092,-8.1092,-8.1092,-8.1092,-8.1092,-8.1021,-8.0948,-8.0213,-7.921,-7.8301,-7.7436,-7.6917,-7.6951,-7.7536,-7.828,-7.8889,-7.9431,-7.9803,-8.0175,-8.0158,-8.0057,-7.9853,-8.3953,-8.4642,-8.4243,-8.4569,-8.5221,-8.5257,-8.5728,-8.6308,-8.6054,-8.609,-8.638,-8.6416,-8.6489,-8.6634,-8.6851,-8.6851,-8.6597,-8.6416,-8.6199,-8.609,-8.6634,-8.6634,-8.6054,-8.6271,-8.5552,-8.462,-8.3861,-8.3217,-8.2405,-8.2359,-8.3496,-8.511,-8.5541,-8.6403,-8.775,-8.8242,-8.7935,-8.7991,-8.7633,-8.7232,-8.6796,-8.6263,-8.5944,-8.5909,-8.5909,-8.609,-8.6528,-8.7699,-8.8323,-8.8909,-8.9532,-8.942,-8.8687,-8.781,-8.6827,-8.5881,-8.5043,-8.3986,-8.2454,-8.2009,-8.1237,-8.0349,-7.9763,-7.969,-7.9946,-8.0129,-8.0649,-8.1644,-8.2679,-8.3338,-8.3738,-8.4245,-8.446,-8.4207,-8.4026,-8.3809,-8.3483,-8.312,-8.265,-8.2251,-8.2034,-8.1635,-8.1165,-8.1092,-8.1092,-8.1092,-8.1092,-8.1092,-8.1092,-8.1092,-8.1092,-8.1092,-8.1092,-8.1092,-8.1092,-8.1092,-8.1092,-8.1092,-8.1056,-8.0985,-8.0326,-7.9249,-7.8266,-7.7298,-7.6975,-7.6502,-7.7096,-7.7807,-7.8416,-7.9058,-7.96,-8.004,-8.0141,-8.0107,-7.9955,-8.3953,-8.4642,-8.4171,-8.4786,-8.5909,-8.5656,-8.5837,-8.6271,-8.6452,-8.6452,-8.6452,-8.6959,-8.7285,-8.7394,-8.7467,-8.7358,-8.6815,-8.6996,-8.7032,-8.6923,-8.7141,-8.6923,-8.6489,-8.6304,-8.6036,-8.5064,-8.4752,-8.4225,-8.3434,-8.3261,-8.467,-8.6115,-8.69,-8.7941,-8.9401,-8.9758,-8.9929,-8.964,-8.935,-8.8553,-8.7249,-8.6346,-8.6057,-8.6202,-8.624,-8.6314,-8.6643,-8.7704,-8.8253,-8.8582,-8.9019,-8.9454,-8.8904,-8.8169,-8.7036,-8.5724,-8.4672,-8.3829,-8.2806,-8.2065,-8.1253,-8.047,-8.0094,-7.9947,-8.0172,-8.0511,-8.0882,-8.1998,-8.2968,-8.381,-8.4355,-8.5188,-8.5077,-8.4497,-8.4135,-8.3917,-8.3157,-8.2613,-8.2106,-8.1925,-8.207,-8.178,-8.1237,-8.1092,-8.1092,-8.1092,-8.1092,-8.1092,-8.1092,-8.1092,-8.1092,-8.1092,-8.1092,-8.1092,-8.1092,-8.1092,-8.1092,-8.1092,-8.1056,-8.0985,-8.0175,-7.9249,-7.8308,-7.7449,-7.6414,-7.6115,-7.6724,-7.7266,-7.7874,-7.8585,-7.9431,-7.9938,-8.0107,-8.0124,-8.0023,-8.3953,-8.475,-8.533,-8.6126,-8.6923,-8.743,-8.7754,-8.779,-8.7865,-8.7899,-8.7756,-8.801,-8.8118,-8.8372,-8.8915,-8.9422,-8.9748,-8.9607,-8.9244,-8.8737,-8.8302,-8.7686,-8.6887,-8.6199,-8.6163,-8.5608,-8.5646,-8.5147,-8.4442,-8.4201,-8.5181,-8.6787,-8.7555,-8.8294,-8.8882,-8.9827,-9.0147,-8.9495,-8.9353,-8.8592,-8.7215,-8.6424,-8.6499,-8.6899,-8.7156,-8.7121,-8.7085,-8.7742,-8.7851,-8.7338,-8.7442,-8.7437,-8.7178,-8.6518,-8.6114,-8.5566,-8.4908,-8.3777,-8.2465,-8.1835,-8.1167,-8.0608,-8.0094,-8.0241,-8.0686,-8.1249,-8.1842,-8.2837,-8.3441,-8.3846,-8.4246,-8.4572,-8.4353,-8.3772,-8.3193,-8.2867,-8.2324,-8.2106,-8.1599,-8.1491,-8.1563,-8.1454,-8.1092,-8.1092,-8.1092,-8.1092,-8.1092,-8.1092,-8.1092,-8.1092,-8.1092,-8.1092,-8.1092,-8.1092,-8.1092,-8.1092,-8.1092,-8.1092,-8.1021,-8.0985,-8.0361,-7.9526,-7.8729,-7.7762,-7.6588,-7.5757,-7.6149,-7.669,-7.7333,-7.8111,-7.8991,-7.9634,-8.0107,-8.0124,-8.0074,-8.5438,-8.5402,-8.5764,-8.6597,-8.7645,-8.8043,-8.8188,-8.8261,-8.8698,-8.8626,-8.8372,-8.8734,-8.935,-9.011,-9.0654,-9.0907,-9.1201,-9.0954,-9.0634,-9.0202,-8.9478,-8.8753,-8.7991,-8.7228,-8.6755,-8.6318,-8.61,-8.5662,-8.5177,-8.5234,-8.6005,-8.6963,-8.7549,-8.8023,-8.8206,-8.9191,-8.93,-8.8973,-8.8609,-8.8064,-8.7337,-8.672,-8.6429,-8.6829,-8.6976,-8.6976,-8.7122,-8.7595,-8.7704,-8.7519,-8.7917,-8.8133,-8.7655,-8.6958,-8.6371,-8.571,-8.4572,-8.3551,-8.2858,-8.2484,-8.1819,-8.1342,-8.1122,-8.1346,-8.1611,-8.1872,-8.2541,-8.3506,-8.3732,-8.399,-8.4319,-8.4572,-8.3845,-8.3193,-8.2613,-8.2251,-8.1925,-8.1454,-8.1165,-8.1128,-8.1165,-8.1273,-8.1346,-8.1273,-8.1201,-8.1092,-8.1092,-8.1092,-8.1092,-8.1092,-8.1092,-8.1092,-8.1092,-8.1092,-8.1092,-8.1092,-8.1092,-8.1056,-8.1021,-8.0912,-8.0657,-7.9949,-7.8811,-7.7848,-7.6725,-7.6148,-7.592,-7.6284,-7.7063,-7.7841,-7.8585,-7.9228,-7.9837,-8.0175,-8.0107,-8.7285,-8.6778,-8.6778,-8.7575,-8.8807,-8.8843,-8.8843,-8.8915,-8.9459,-8.9459,-8.9422,-9.0081,-9.1172,-9.201,-9.2195,-9.2123,-9.1905,-9.1479,-9.1193,-9.0871,-9.029,-8.9637,-8.8981,-8.8288,-8.7632,-8.6976,-8.683,-8.6466,-8.6065,-8.5773,-8.5843,-8.6501,-8.6537,-8.7011,-8.7705,-8.8325,-8.8543,-8.8798,-8.8105,-8.7814,-8.7705,-8.6939,-8.6903,-8.6939,-8.6939,-8.6756,-8.6682,-8.7155,-8.7628,-8.7041,-8.7331,-8.7252,-8.6885,-8.6334,-8.5894,-8.5233,-8.4168,-8.3544,-8.3181,-8.2957,-8.2774,-8.2406,-8.2186,-8.197,-8.1982,-8.2235,-8.2858,-8.4049,-8.3984,-8.4279,-8.4572,-8.4464,-8.3629,-8.2939,-8.2432,-8.2106,-8.1853,-8.1889,-8.1961,-8.2143,-8.2106,-8.178,-8.1744,-8.1527,-8.1346,-8.1165,-8.1092,-8.1092,-8.1092,-8.1092,-8.1092,-8.1092,-8.1092,-8.1092,-8.1092,-8.1092,-8.1092,-8.1021,-8.0985,-8.0876,-8.0694,-7.964,-7.8273,-7.7405,-7.6759,-7.6433,-7.6149,-7.6487,-7.6826,-7.7435,-7.8077,-7.8923,-7.9532,-7.9938,-8.0107,-8.9205,-8.9169,-8.9096,-8.9567,-9.0364,-9.0436,-9.04,-9.0259,-9.044,-9.0839,-9.135,-9.2449,-9.3012,-9.3422,-9.3386,-9.3058,-9.2368,-9.2334,-9.1788,-9.1133,-9.0404,-9.0041,-8.953,-8.9056,-8.8582,-8.8363,-8.7778,-8.7377,-8.7085,-8.6137,-8.5299,-8.4424,-8.5408,-8.5445,-8.6027,-8.7048,-8.7925,-8.8217,-8.7852,-8.7888,-8.7925,-8.7522,-8.7265,-8.8251,-8.8175,-8.7731,-8.6999,-8.6999,-8.6485,-8.5348,-8.5529,-8.5637,-8.549,-8.5123,-8.4829,-8.4499,-8.3801,-8.3251,-8.3141,-8.2737,-8.2333,-8.2223,-8.2186,-8.23,-8.2528,-8.2831,-8.3527,-8.4513,-8.4637,-8.4419,-8.4202,-8.3618,-8.3479,-8.3117,-8.2938,-8.2903,-8.2831,-8.294,-8.3085,-8.3229,-8.3048,-8.2613,-8.2396,-8.2251,-8.1527,-8.1273,-8.1128,-8.1092,-8.1092,-8.1092,-8.1092,-8.1092,-8.1092,-8.1092,-8.1092,-8.1092,-8.1092,-8.0948,-8.084,-8.0804,-8.0767,-7.9408,-7.7977,-7.7648,-7.7159,-7.682,-7.6555,-7.6826,-7.7029,-7.7096,-7.7705,-7.9025,-7.9701,-8.004,-8.0057,-9.011,-9.011,-9.0268,-9.041,-9.0618,-9.074,-9.078,-9.0819,-9.0897,-9.1448,-9.2285,-9.3565,-9.4263,-9.4379,-9.4306,-9.3905,-9.3178,-9.2783,-9.22,-9.1397,-9.074,-9.0448,-8.9971,-8.9313,-8.8434,-8.8507,-8.8141,-8.7628,-8.7079,-8.6897,-8.6639,-8.6018,-8.5255,-8.4813,-8.5215,-8.6238,-8.708,-8.7556,-8.7519,-8.7483,-8.7445,-8.7334,-8.7184,-8.7624,-8.7696,-8.7031,-8.6407,-8.6261,-8.5563,-8.4866,-8.4572,-8.4462,-8.4352,-8.4058,-8.3875,-8.3801,-8.3141,-8.281,-8.2737,-8.2406,-8.2186,-8.2186,-8.226,-8.252,-8.3151,-8.3814,-8.4591,-8.5288,-8.5547,-8.5292,-8.4749,-8.4495,-8.4278,-8.3768,-8.3552,-8.3627,-8.3738,-8.3883,-8.3882,-8.3917,-8.3627,-8.3229,-8.312,-8.3048,-8.2179,-8.1418,-8.1237,-8.1092,-8.1092,-8.1092,-8.1092,-8.1092,-8.1092,-8.1092,-8.1092,-8.1092,-8.1092,-8.0876,-8.0694,-8.0694,-8.0547,-7.9369,-7.8174,-7.7849,-7.7571,-7.7223,-7.7063,-7.7164,-7.7401,-7.7705,-7.8551,-7.9735,-8.0107,-8.0209,-8.009,-9.0701,-9.078,-9.0936,-9.0858,-9.0701,-9.0897,-9.1014,-9.1014,-9.113,-9.1865,-9.2961,-9.4494,-9.53,-9.534,-9.5379,-9.4721,-9.3958,-9.3412,-9.2754,-9.2023,-9.14,-9.1179,-9.0776,-9.0298,-8.9675,-8.9197,-8.894,-8.8648,-8.8428,-8.8243,-8.7731,-8.6925,-8.6011,-8.5607,-8.5972,-8.6444,-8.7142,-8.7582,-8.7729,-8.7509,-8.7511,-8.7107,-8.6997,-8.6997,-8.6848,-8.6224,-8.5673,-8.538,-8.4792,-8.4132,-8.3765,-8.3801,-8.3654,-8.3434,-8.3104,-8.2847,-8.259,-8.2186,-8.2186,-8.2186,-8.2186,-8.2186,-8.2553,-8.3074,-8.3848,-8.4578,-8.5353,-8.5909,-8.6238,-8.6165,-8.5367,-8.4999,-8.4854,-8.4381,-8.4351,-8.4427,-8.461,-8.4754,-8.4643,-8.4533,-8.4316,-8.4279,-8.3736,-8.3555,-8.2794,-8.2034,-8.178,-8.1491,-8.1092,-8.1092,-8.1092,-8.1092,-8.1092,-8.1092,-8.1092,-8.1092,-8.1056,-8.0876,-8.0731,-8.0547,-8.0137,-7.9049,-7.856,-7.8581,-7.8223,-7.7734,-7.7739,-7.8077,-7.828,-7.8517,-7.9363,-8.0141,-8.0344,-8.0412,-8.0226,-9.1014,-9.1206,-9.1243,-9.1128,-9.1009,-9.113,-9.1279,-9.1389,-9.1573,-9.2454,-9.4069,-9.557,-9.6309,-9.635,-9.624,-9.5506,-9.4443,-9.4225,-9.3748,-9.2831,-9.2134,-9.2317,-9.2134,-9.1657,-9.0702,-9.1326,-9.0665,-9.0041,-9.0041,-8.9124,-8.8463,-8.8096,-8.74,-8.7107,-8.8059,-8.883,-8.9198,-8.9198,-8.9014,-8.8316,-8.7582,-8.6921,-8.6664,-8.6481,-8.6114,-8.5453,-8.4829,-8.4646,-8.3985,-8.2994,-8.27,-8.2663,-8.259,-8.2517,-8.237,-8.2296,-8.226,-8.2186,-8.2186,-8.2186,-8.2223,-8.2406,-8.2884,-8.3511,-8.3878,-8.4792,-8.593,-8.6526,-8.6339,-8.6116,-8.5639,-8.5275,-8.5284,-8.5253,-8.5188,-8.5155,-8.5337,-8.5407,-8.5222,-8.5112,-8.5438,-8.5511,-8.4714,-8.4026,-8.3338,-8.2758,-8.2396,-8.1961,-8.1454,-8.1309,-8.1382,-8.1092,-8.1092,-8.1092,-8.1092,-8.1092,-8.1021,-8.084,-8.0731,-8.062,-7.9947,-7.8887,-7.8736,-7.9111,-7.8648,-7.7866,-7.8382,-7.9058,-7.9126,-7.9194,-7.9634,-8.0209,-8.0445,-8.0496,-8.0361,-9.113,-9.1243,-9.1979,-9.2198,-9.216,-9.2236,-9.2236,-9.2457,-9.3486,-9.4367,-9.5103,-9.6166,-9.6278,-9.6208,-9.6318,-9.5841,-9.4593,-9.4923,-9.452,-9.3161,-9.2648,-9.2391,-9.217,-9.1693,-9.1143,-9.0959,-9.0629,-9.0298,-8.9639,-8.9417,-8.9344,-8.9014,-8.839,-8.8426,-8.8133,-8.8133,-8.7802,-8.7655,-8.7252,-8.6591,-8.593,-8.5637,-8.549,-8.549,-8.5123,-8.4646,-8.3948,-8.3948,-8.3287,-8.237,-8.2186,-8.2186,-8.2186,-8.2186,-8.2186,-8.2186,-8.2186,-8.2186,-8.2186,-8.2223,-8.248,-8.2884,-8.3287,-8.4168,-8.5527,-8.6151,-8.6811,-8.7142,-8.7031,-8.6885,-8.6664,-8.6306,-8.6203,-8.6169,-8.6064,-8.5883,-8.5881,-8.5805,-8.5692,-8.5656,-8.5837,-8.5837,-8.5366,-8.4931,-8.4316,-8.3845,-8.3519,-8.2758,-8.2143,-8.1925,-8.1853,-8.1309,-8.1092,-8.1092,-8.1092,-8.1092,-8.1092,-8.0985,-8.0804,-8.0657,-7.9795,-7.8928,-7.8917,-7.9304,-7.8613,-7.8044,-7.8923,-7.9634,-7.9701,-7.987,-8.0073,-8.0547,-8.1021,-8.0834,-8.0445,-9.1943,-9.2347,-9.301,-9.3158,-9.2975,-9.3195,-9.3195,-9.3158,-9.4151,-9.4813,-9.518,-9.5914,-9.6245,-9.6135,-9.6282,-9.5804,-9.4483,-9.474,-9.452,-9.3161,-9.2721,-9.2537,-9.2097,-9.1436,-9.1289,-9.0922,-9.0629,-9.0298,-8.9968,-9.0078,-8.9601,-8.8977,-8.872,-8.8059,-8.7766,-8.7545,-8.7435,-8.7252,-8.6738,-8.6004,-8.5196,-8.4682,-8.4535,-8.4352,-8.4132,-8.3948,-8.3581,-8.3287,-8.303,-8.2443,-8.2186,-8.2186,-8.2186,-8.2186,-8.2186,-8.2186,-8.2186,-8.2186,-8.2186,-8.2186,-8.2553,-8.3251,-8.3581,-8.4535,-8.604,-8.6444,-8.7031,-8.7472,-8.7802,-8.7545,-8.707,-8.6821,-8.6643,-8.6572,-8.6392,-8.6174,-8.6025,-8.5947,-8.5909,-8.5909,-8.5909,-8.5909,-8.5909,-8.5764,-8.5366,-8.5004,-8.4678,-8.3809,-8.2939,-8.2722,-8.2432,-8.1853,-8.1418,-8.1418,-8.1309,-8.1092,-8.1092,-8.1092,-8.0948,-8.0767,-8.0399,-7.9676,-7.9585,-7.9466,-7.9039,-7.8899,-7.9648,-8.0141,-8.0006,-8.0006,-8.0141,-8.075,-8.1528,-8.1308,-8.0817,-9.3378,-9.4226,-9.4299,-9.3896,-9.3345,-9.3785,-9.3749,-9.3161,-9.3198,-9.3639,-9.441,-9.518,-9.5547,-9.6282,-9.6465,-9.5584,-9.4483,-9.4336,-9.3859,-9.3161,-9.2574,-9.2574,-9.2391,-9.1913,-9.14,-9.1253,-9.0886,-9.0152,-9.0335,-8.9234,-8.85,-8.8023,-8.7252,-8.6811,-8.6738,-8.6738,-8.6775,-8.6444,-8.604,-8.5196,-8.4278,-8.4168,-8.3838,-8.3544,-8.3324,-8.3324,-8.3177,-8.3141,-8.281,-8.2443,-8.2186,-8.2186,-8.2186,-8.2186,-8.2186,-8.2186,-8.2186,-8.2186,-8.2186,-8.2186,-8.2627,-8.3361,-8.4095,-8.4499,-8.5196,-8.6297,-8.6995,-8.7178,-8.7288,-8.7178,-8.6997,-8.6786,-8.6644,-8.6429,-8.6247,-8.6099,-8.5948,-8.5909,-8.5909,-8.5909,-8.5909,-8.5909,-8.5909,-8.5873,-8.5837,-8.5656,-8.5257,-8.4895,-8.4135,-8.3627,-8.3229,-8.2577,-8.2106,-8.1817,-8.1599,-8.1309,-8.1092,-8.1092,-8.1092,-8.0948,-8.0584,-8.0354,-8.0045,-7.9783,-7.9578,-7.9746,-8.0035,-8.0209,-8.0175,-8.0209,-8.0209,-8.0547,-8.1224,-8.1731,-8.1358,-9.4042,-9.4336,-9.4923,-9.4703,-9.3969,-9.3602,-9.3602,-9.3859,-9.3418,-9.3529,-9.4299,-9.452,-9.4593,-9.4189,-9.4703,-9.4299,-9.4042,-9.3859,-9.3712,-9.3198,-9.2611,-9.2464,-9.2024,-9.1436,-9.1033,-9.0665,-9.0188,-8.9491,-8.8683,-8.7692,-8.6921,-8.6371,-8.5673,-8.5123,-8.4829,-8.4719,-8.5013,-8.5159,-8.4866,-8.4095,-8.3361,-8.3104,-8.2847,-8.2737,-8.2663,-8.2663,-8.2663,-8.2627,-8.237,-8.226,-8.2186,-8.2186,-8.2186,-8.2186,-8.2186,-8.2186,-8.2186,-8.2186,-8.2186,-8.2186,-8.2553,-8.3361,-8.4168,-8.4903,-8.5527,-8.6261,-8.6958,-8.7031,-8.7031,-8.7031,-8.6925,-8.6786,-8.6609,-8.6429,-8.6247,-8.6025,-8.5911,-8.5909,-8.5909,-8.5909,-8.5909,-8.5909,-8.5909,-8.5909,-8.5873,-8.5909,-8.5764,-8.5475,-8.5185,-8.4642,-8.4026,-8.3301,-8.2831,-8.2541,-8.1961,-8.1599,-8.1309,-8.1092,-8.1201,-8.1201,-8.1021,-8.0755,-8.0368,-8.0146,-8.004,-8.0008,-8.0123,-8.0209,-8.0209,-8.0209,-8.0209,-8.0513,-8.0885,-8.1494,-8.1644,-9.4777,-9.485,-9.529,-9.4887,-9.3749,-9.2611,-9.2574,-9.3125,-9.2794,-9.3051,-9.3786,-9.3822,-9.3712,-9.3822,-9.4153,-9.3932,-9.3272,-9.3492,-9.3308,-9.2648,-9.2574,-9.1987,-9.1326,-9.0812,-9.0482,-9.0005,-8.9381,-8.8757,-8.7729,-8.6297,-8.5306,-8.4792,-8.4058,-8.3471,-8.3177,-8.3177,-8.3287,-8.3361,-8.3214,-8.2663,-8.237,-8.2186,-8.2186,-8.2186,-8.2186,-8.2186,-8.2186,-8.2186,-8.2186,-8.2186,-8.2186,-8.2186,-8.2186,-8.2186,-8.2186,-8.2186,-8.2186,-8.2186,-8.2186,-8.2186,-8.2663,-8.3361,-8.4168,-8.4939,-8.571,-8.6444,-8.6811,-8.7031,-8.7031,-8.6997,-8.6891,-8.6786,-8.6609,-8.6429,-8.621,-8.5987,-8.5948,-8.5909,-8.5909,-8.5909,-8.5909,-8.5909,-8.5909,-8.5909,-8.5909,-8.5909,-8.5909,-8.5801,-8.5619,-8.5402,-8.4786,-8.4098,-8.3627,-8.3229,-8.2577,-8.1961,-8.1599,-8.1454,-8.1599,-8.1599,-8.1455,-8.1556,-8.1545,-8.1102,-8.0519,-8.0414,-8.0209,-8.0209,-8.0209,-8.0209,-8.0209,-8.0344,-8.0818,-8.1528,-8.1405,-9.5401,-9.5327,-9.5364,-9.441,-9.3015,-9.1546,-9.1289,-9.1767,-9.1877,-9.2244,-9.2905,-9.3015,-9.3308,-9.3492,-9.3675,-9.3418,-9.2941,-9.2905,-9.2537,-9.173,-9.173,-9.1289,-9.0702,-9.0372,-8.9748,-8.916,-8.8426,-8.7545,-8.7142,-8.5857,-8.4425,-8.3398,-8.2774,-8.2406,-8.2443,-8.237,-8.2517,-8.2553,-8.2517,-8.2296,-8.226,-8.2186,-8.2186,-8.2186,-8.2186,-8.2186,-8.2186,-8.2186,-8.2186,-8.2186,-8.2186,-8.2186,-8.2186,-8.2186,-8.2186,-8.2186,-8.2186,-8.2186,-8.2186,-8.2186,-8.2774,-8.3471,-8.4168,-8.5086,-8.5967,-8.6591,-8.6921,-8.7031,-8.7031,-8.7031,-8.6925,-8.6821,-8.668,-8.6465,-8.6247,-8.6025,-8.5911,-8.5909,-8.5909,-8.5909,-8.5909,-8.5909,-8.5909,-8.5909,-8.5909,-8.5909,-8.5909,-8.5909,-8.5873,-8.5801,-8.5438,-8.4786,-8.4316,-8.3809,-8.3193,-8.2577,-8.1961,-8.1817,-8.1998,-8.2034,-8.1925,-8.2316,-8.2828,-8.1872,-8.0854,-8.0433,-8.0209,-8.0209,-8.0209,-8.0209,-8.0209,-8.0209,-8.0682,-8.1393,-8.1337,-9.4593,-9.452,-9.3932,-9.3418,-9.3015,-9.1987,-9.1583,-9.1803,-9.1803,-9.1877,-9.2097,-9.2134,-9.2207,-9.2464,-9.2427,-9.2207,-9.2097,-9.1913,-9.1583,-9.1106,-9.0886,-9.0445,-8.9711,-8.9271,-8.8793,-8.8096,-8.7252,-8.6334,-8.571,-8.4903,-8.4168,-8.3361,-8.259,-8.2186,-8.2186,-8.2186,-8.2186,-8.2186,-8.2186,-8.2186,-8.2186,-8.2186,-8.2186,-8.2186,-8.2186,-8.2186,-8.2186,-8.2186,-8.2186,-8.2186,-8.2186,-8.2186,-8.2186,-8.2186,-8.2186,-8.2186,-8.2186,-8.2186,-8.2186,-8.2296,-8.281,-8.3765,-8.4609,-8.549,-8.6261,-8.6738,-8.6995,-8.7031,-8.7031,-8.7031,-8.6997,-8.6856,-8.6715,-8.6537,-8.632,-8.6099,-8.5911,-8.5909,-8.5909,-8.5909,-8.5909,-8.5909,-8.5909,-8.5909,-8.5909,-8.5909,-8.5909,-8.5909,-8.5909,-8.5873,-8.5837,-8.533,-8.4859,-8.4352,-8.3772,-8.3265,-8.2686,-8.236,-8.2468,-8.2432,-8.2432,-8.2506,-8.262,-8.1857,-8.1042,-8.0516,-8.0209,-8.0209,-8.0209,-8.0209,-8.0209,-8.0209,-8.0412,-8.1021,-8.0949,-9.4079,-9.3675,-9.2868,-9.2501,-9.2427,-9.1987,-9.1803,-9.173,-9.1436,-9.1433,-9.1608,-9.1433,-9.1253,-9.1143,-9.0922,-9.0884,-9.0884,-9.0739,-9.0445,-9.0188,-9.0005,-8.9528,-8.8904,-8.8353,-8.8023,-8.7472,-8.6848,-8.6004,-8.4792,-8.4499,-8.4132,-8.3141,-8.2406,-8.226,-8.2223,-8.2223,-8.2223,-8.2186,-8.2186,-8.2186,-8.2186,-8.2186,-8.2186,-8.2186,-8.2186,-8.2186,-8.2186,-8.2186,-8.2186,-8.2186,-8.2186,-8.2186,-8.2186,-8.2186,-8.2186,-8.2186,-8.2186,-8.2186,-8.2186,-8.2406,-8.2884,-8.3838,-8.4572,-8.5306,-8.604,-8.6518,-8.6995,-8.7031,-8.7031,-8.7031,-8.6925,-8.6856,-8.675,-8.6609,-8.632,-8.6099,-8.5948,-8.5909,-8.5909,-8.5909,-8.5909,-8.5909,-8.5909,-8.5909,-8.5909,-8.5909,-8.5909,-8.5909,-8.5909,-8.5909,-8.5909,-8.5801,-8.533,-8.4895,-8.4388,-8.3953,-8.3519,-8.3229,-8.3085,-8.3627,-8.3913,-8.2968,-8.226,-8.1927,-8.133,-8.0471,-8.0209,-8.0209,-8.0209,-8.0209,-8.0209,-8.0209,-8.0445,-8.0699,-8.0863,-9.3235,-9.2684,-9.206,-9.1803,-9.1803,-9.1803,-9.173,-9.1546,-9.0993,-9.0974,-9.119,-9.075,-9.0582,-9.0398,-9.0029,-8.9808,-8.9772,-9.0133,-8.9808,-8.9446,-8.9306,-8.872,-8.8316,-8.7949,-8.7472,-8.7178,-8.6811,-8.5783,-8.4646,-8.4646,-8.4242,-8.281,-8.248,-8.248,-8.2406,-8.2333,-8.2406,-8.2223,-8.2186,-8.2186,-8.2186,-8.2186,-8.2186,-8.2186,-8.2186,-8.2186,-8.2186,-8.2186,-8.2186,-8.2186,-8.2186,-8.2186,-8.2186,-8.2186,-8.2186,-8.2186,-8.2186,-8.2296,-8.2406,-8.2517,-8.3104,-8.3765,-8.4352,-8.5086,-8.5894,-8.6444,-8.6885,-8.7031,-8.7031,-8.6997,-8.6925,-8.6891,-8.6786,-8.6609,-8.632,-8.6062,-8.5986,-8.5909,-8.5909,-8.5909,-8.5909,-8.5909,-8.5909,-8.5909,-8.5909,-8.5909,-8.5909,-8.5909,-8.5909,-8.5909,-8.5909,-8.5909,-8.5692,-8.5293,-8.4968,-8.475,-8.4424,-8.4135,-8.4098,-8.4968,-8.5167,-8.3739,-8.2796,-8.2537,-8.1851,-8.0591,-8.0209,-8.0209,-8.0209,-8.0209,-8.0209,-8.0209,-8.031,-8.0598,-8.1083,-9.0629,-9.1106,-9.1546,-9.1803,-9.1803,-9.1767,-9.1436,-9.0957,-9.1188,-9.1112,-9.0563,-9.0363,-9.0416,-9.1059,-9.0977,-9.0601,-8.9973,-8.9924,-8.953,-8.9234,-8.8635,-8.7947,-8.7545,-8.7435,-8.6775,-8.6628,-8.6591,-8.6004,-8.5086,-8.5233,-8.5086,-8.4058,-8.4022,-8.3765,-8.3214,-8.3104,-8.2957,-8.27,-8.237,-8.2333,-8.226,-8.2223,-8.2186,-8.2186,-8.2186,-8.2186,-8.2186,-8.2186,-8.2186,-8.2186,-8.2186,-8.2186,-8.2186,-8.2186,-8.2186,-8.2186,-8.2186,-8.2443,-8.259,-8.2884,-8.3471,-8.4499,-8.5123,-8.5673,-8.6334,-8.6701,-8.6995,-8.7031,-8.7031,-8.7031,-8.696,-8.696,-8.6891,-8.6501,-8.621,-8.6061,-8.5947,-8.5909,-8.5909,-8.5909,-8.5909,-8.5909,-8.5909,-8.5909,-8.5909,-8.5909,-8.5909,-8.5909,-8.5909,-8.5909,-8.5909,-8.5909,-8.5909,-8.5909,-8.5692,-8.5692,-8.5438,-8.5112,-8.4966,-8.5433,-8.5186,-8.3987,-8.3253,-8.2586,-8.1603,-8.0376,-8.0209,-8.0209,-8.0209,-8.0209,-8.0209,-8.0209,-8.0276,-8.0361,-8.0744]},{"header":{"parameterUnit":"m.s-1","parameterCategory":1,"la1":31.0,"la2":29.5877,"lo1":-88.7671,"lo2":-86.6584,"dx":0.0162,"dy":0.0185,"nx":115,"ny":88,"refTime":"2023-01-10T18:00:00:Z","depth":0,"parameterNumber":3,"parameterNumberName":"V-component_of_WINDS"},"data":[0.0,0.0,0.0,0.0,0.0,0.0,0.0,0.0,0.0,0.0,0.0,0.0,0.0,0.0,0.0,0.0,0.0,0.0,0.0,0.0,0.0,0.0,0.0,0.0,0.0,0.0,0.0,0.0,0.0,0.0,0.0,0.0,0.0,0.0,0.0,0.0,0.0,0.0,0.0,0.0,0.0,0.0,0.0,0.0,0.0,0.0,0.0,0.0,0.0,0.0,0.0,0.0,0.0,0.0,0.0,0.0,0.0,0.0,0.0,0.0,0.0,0.0,0.0,0.0,0.0,0.0,0.0,0.0,0.0,0.0,0.0,0.0,0.0,0.0,0.0,0.0,0.0,0.0,0.0,0.0,0.0,0.0,0.0,0.0,0.0,0.0,0.0,0.0,0.0,0.0,0.0,0.0,0.0,0.0,0.0,0.0,0.0,0.0,0.0,0.0,0.0,0.0,0.0,0.0,0.0,0.0,0.0,0.0,0.0,0.0,0.0,0.0,0.0,0.0,0.0,0.0,0.0,0.0,0.0,0.0,0.0,0.0,0.0,0.0,0.0,0.0,0.0,0.0,0.0,0.0,0.0,0.0,0.0,0.0,0.0,0.0,0.0,0.0,0.0,0.0,0.0,0.0,0.0,0.0,0.0,0.0,0.0,0.0,0.0,0.0,0.0,0.0,0.0,0.0,0.0,0.0,0.0,0.0,0.0,0.0,0.0,0.0,0.0,0.0,0.0,0.0,0.0,0.0,0.0,0.0,0.0,0.0,0.0,0.0,0.0,0.0,0.0,0.0,0.0,0.0,0.0,0.0,0.0,0.0,0.0,0.0,0.0,0.0,0.0,0.0,0.0,0.0,0.0,0.0,0.0,0.0,0.0,0.0,0.0,0.0,0.0,0.0,0.0,0.0,0.0,0.0,0.0,0.0,0.0,0.0,0.0,0.0,0.0,0.0,0.0,0.0,0.0,0.0,0.0,0.0,0.0,0.0,0.0,0.0,0.0,0.0,0.0,0.0,0.0,0.0,0.0,0.0,0.0,0.0,0.0,0.0,0.0,0.0,0.0,0.0,0.0,0.0,0.0,0.0,0.0,0.0,0.0,0.0,0.0,0.0,0.0,0.0,0.0,0.0,0.0,0.0,0.0,0.0,0.0,0.0,0.0,0.0,0.0,0.0,0.0,0.0,0.0,0.0,0.0,0.0,0.0,0.0,0.0,0.0,0.0,0.0,0.0,0.0,0.0,0.0,0.0,0.0,0.0,0.0,0.0,0.0,0.0,0.0,0.0,0.0,0.0,0.0,0.0,0.0,0.0,0.0,0.0,0.0,0.0,0.0,0.0,0.0,0.0,0.0,0.0,0.0,0.0,0.0,0.0,0.0,0.0,0.0,0.0,0.0,0.0,0.0,0.0,0.0,0.0,0.0,0.0,0.0,0.0,0.0,0.0,0.0,0.0,0.0,0.0,0.0,0.0,0.0,0.0,0.0,0.0,0.0,0.0,0.0,0.0,0.0,0.0,0.0,0.0,0.0,0.0,0.0,0.0,0.0,0.0,0.0,0.0,0.0,0.0,0.0,0.0,0.0,0.0,0.0,0.0,0.0,0.0,0.0,0.0,0.0,0.0,0.0,0.0,0.0,0.0,0.0,0.0,0.0,0.0,0.0,0.0,0.0,0.0,0.0,0.0,0.0,0.0,0.0,0.0,0.0,0.0,0.0,0.0,0.0,0.0,0.0,0.0,0.0,0.0,0.0,0.0,0.0,0.0,0.0,0.0,0.0,0.0,0.0,0.0,0.0,0.0,0.0,0.0,0.0,0.0,0.0,0.0,0.0,0.0,0.0,0.0,0.0,0.0,0.0,0.0,0.0,0.0,0.0,0.0,0.0,0.0,0.0,0.0,0.0,0.0,0.0,0.0,0.0,0.0,0.0,0.0,0.0,0.0,0.0,0.0,0.0,0.0,0.0,0.0,0.0,0.0,0.0,0.0,0.0,0.0,0.0,0.0,0.0,0.0,0.0,0.0,0.0,0.0,0.0,0.0,0.0,0.0,0.0,0.0,0.0,0.0,0.0,0.0,0.0,0.0,0.0,0.0,0.0,0.0,0.0,0.0,0.0,0.0,0.0,0.0,0.0,0.0,0.0,0.0,0.0,0.0,0.0,0.0,0.0,0.0,0.0,0.0,0.0,0.0,0.0,0.0,0.0,0.0,0.0,0.0,0.0,0.0,0.0,0.0,0.0,0.0,0.0,0.0,0.0,0.0,0.0,0.0,0.0,0.0,0.0,0.0,0.0,0.0,0.0,0.0,0.0,0.0,0.0,0.0,0.0,0.0,0.0,0.0,0.0,0.0,0.0,0.0,0.0,0.0,0.0,0.0,0.0,0.0,0.0,0.0,0.0,0.0,0.0,0.0,0.0,0.0,0.0,0.0,0.0,0.0,0.0,0.0,0.0,0.0,0.0,0.0,0.0,0.0,0.0,0.0,0.0,0.0,0.0,0.0,0.0,0.0,0.0,0.0,0.0,0.0,0.0,0.0,0.0,0.0,0.0,0.0,0.0,0.0,0.0,0.0,0.0,0.0,0.0,0.0,0.0,0.0,0.0,0.0,0.0,0.0,0.0,0.0,0.0,0.0,0.0,0.0,0.0,0.0,0.0,0.0,0.0,0.0,0.0,0.0,0.0,0.0,0.0,0.0,0.0,0.0,0.0,0.0,0.0,0.0,0.0,0.0,0.0,0.0,0.0,0.0,0.0,0.0,0.0,0.0,0.0,0.0,0.0,0.0,0.0,0.0,0.0,0.0,0.0,0.0,0.0,0.0,0.0,0.0,0.0,0.0,0.0,0.0,0.0,0.0,0.0,0.0,0.0,0.0,0.0,0.0,0.0,0.0,0.0,0.0,0.0,0.0,0.0,0.0,0.0,0.0,0.0,0.0,0.0,0.0,0.0,0.0,0.0,0.0,0.0,0.0,0.0,0.0,0.0,0.0,0.0,0.0,0.0,0.0,0.0,0.0,0.0,0.0,0.0,0.0,0.0,0.0,0.0,0.0,0.0,0.0,0.0,0.0,0.0,0.0,0.0,0.0,0.0,0.0,0.0,0.0,0.0,0.0,0.0,0.0,0.0,0.0,0.0,0.0,0.0,0.0,0.0,0.0,0.0,0.0,0.0,0.0,0.0,0.0,0.0,0.0,0.0,0.0,0.0,0.0,0.0,0.0,0.0,0.0,0.0,0.0,0.0,0.0,0.0,0.0,0.0,0.0,0.0,0.0,0.0,0.0,0.0,0.0,0.0,0.0,0.0,0.0,0.0,0.0,0.0,0.0,0.0,0.0,0.0,0.0,0.0,0.0,0.0,0.0,0.0,0.0,0.0,0.0,0.0,0.0,0.0,0.0,0.0,0.0,0.0,0.0,0.0,0.0,0.0,0.0,0.0,0.0,0.0,0.0,0.0,0.0,0.0,0.0,0.0,0.0,0.0,0.0,0.0,0.0,0.0,0.0,0.0,0.0,0.0,0.0,0.0,0.0,0.0,0.0,0.0,0.0,0.0,0.0,0.0,0.0,0.0,0.0,0.0,0.0,0.0,0.0,0.0,0.0,0.0,0.0,0.0,0.0,0.0,0.0,0.0,0.0,0.0,0.0,0.0,0.0,0.0,0.0,0.0,0.0,0.0,0.0,0.0,0.0,0.0,0.0,0.0,0.0,0.0,0.0,0.0,0.0,0.0,0.0,0.0,0.0,0.0,0.0,0.0,0.0,0.0,0.0,0.0,0.0,0.0,0.0,0.0,0.0,0.0,0.0,0.0,0.0,0.0,0.0,0.0,0.0,0.0,0.0,0.0,0.0,0.0,0.0,0.0,0.0,0.0,0.0,0.0,0.0,0.0,0.0,0.0,0.0,0.0,0.0,0.0,0.0,0.0,0.0,0.0,0.0,0.0,0.0,0.0,0.0,0.0,0.0,0.0,0.0,0.0,0.0,0.0,0.0,0.0,0.0,0.0,0.0,0.0,0.0,0.0,0.0,0.0,0.0,0.0,0.0,0.0,0.0,0.0,0.0,0.0,0.0,0.0,0.0,0.0,0.0,0.0,0.0,0.0,0.0,0.0,0.0,0.0,0.0,0.0,0.0,0.0,0.0,0.0,0.0,0.0,0.0,0.0,0.0,0.0,0.0,0.0,0.0,0.0,0.0,0.0,0.0,0.0,0.0,0.0,0.0,0.0,0.0,0.0,0.0,0.0,0.0,0.0,0.0,0.0,0.0,0.0,1.8985,0.0,0.0,0.0,1.8985,0.0,0.0,0.0,0.0,0.0,0.0,0.0,0.0,0.0,0.0,0.0,0.0,0.0,0.0,0.0,0.0,0.0,0.0,0.0,0.0,0.0,0.0,0.0,0.0,0.0,0.0,0.0,0.0,0.0,0.0,0.0,0.0,0.0,0.0,0.0,0.0,0.0,0.0,0.0,0.0,0.0,0.0,0.0,0.0,0.0,0.0,0.0,0.0,0.0,0.0,0.0,0.0,0.0,0.0,0.0,0.0,0.0,0.0,0.0,0.0,0.0,0.0,0.0,0.0,0.0,0.0,0.0,0.0,0.0,0.0,0.0,0.0,0.0,0.0,0.0,0.0,0.0,0.0,0.0,0.0,0.0,0.0,0.0,0.0,0.0,0.0,0.0,0.0,0.0,0.0,0.0,0.0,0.0,0.0,0.0,0.0,0.0,0.0,0.0,0.0,0.0,0.0,0.0,0.0,0.0,0.0,0.0,0.0,0.0,0.0,1.9101,1.9101,1.9101,1.9101,1.9101,0.0,0.0,0.0,0.0,0.0,0.0,0.0,0.0,0.0,0.0,0.0,0.0,0.0,0.0,0.0,0.0,0.0,0.0,0.0,0.0,0.0,0.0,0.0,0.0,0.0,0.0,0.0,0.0,0.0,0.0,0.0,0.0,0.0,0.0,0.0,0.0,0.0,0.0,0.0,0.0,0.0,0.0,0.0,0.0,0.0,0.0,0.0,0.0,0.0,0.0,0.0,0.0,0.0,0.0,0.0,0.0,0.0,0.0,0.0,0.0,0.0,0.0,0.0,0.0,0.0,0.0,0.0,0.0,0.0,0.0,0.0,0.0,0.0,0.0,0.0,0.0,0.0,0.0,0.0,0.0,0.0,0.0,0.0,0.0,0.0,0.0,0.0,0.0,0.0,0.0,0.0,0.0,0.0,0.0,0.0,0.0,0.0,0.0,0.0,0.0,0.0,0.0,0.0,0.0,0.0,0.0,0.0,0.0,0.0,0.0,0.0,0.0,1.9157,1.9176,1.9213,0.0,0.0,0.0,0.0,0.0,0.0,0.0,0.0,0.0,0.0,0.0,0.0,0.0,0.0,0.0,0.0,0.0,0.0,0.0,0.0,0.0,0.0,0.0,0.0,0.0,0.0,0.0,0.0,0.0,0.0,0.0,0.0,0.0,0.0,0.0,0.0,0.0,0.0,0.0,0.0,0.0,0.0,0.0,0.0,0.0,0.0,0.0,0.0,0.0,0.0,0.0,0.0,0.0,0.0,0.0,0.0,0.0,0.0,0.0,0.0,0.0,0.0,0.0,0.0,0.0,0.0,0.0,0.0,0.0,0.0,0.0,0.0,0.0,0.0,0.0,0.0,0.0,0.0,0.0,0.0,0.0,0.0,0.0,0.0,0.0,0.0,0.0,0.0,0.0,0.0,0.0,0.0,0.0,0.0,0.0,0.0,0.0,0.0,0.0,0.0,0.0,0.0,0.0,0.0,0.0,0.0,0.0,0.0,0.0,0.0,1.9317,1.9362,1.9391,0.0,1.9556,0.0,0.0,0.0,0.0,0.0,0.0,0.0,0.0,0.0,0.0,0.0,0.0,0.0,0.0,0.0,0.0,0.0,0.0,0.0,0.0,0.0,0.0,0.0,0.0,0.0,0.0,0.0,0.0,0.0,0.0,0.0,0.0,0.0,0.0,0.0,0.0,0.0,0.0,0.0,0.0,0.0,0.0,0.0,0.0,0.0,0.0,0.0,0.0,0.0,0.0,0.0,0.0,0.0,0.0,0.0,0.0,0.0,0.0,0.0,0.0,0.0,0.0,0.0,0.0,0.0,0.0,0.0,0.0,0.0,0.0,0.0,0.0,0.0,0.0,0.0,0.0,0.0,0.0,0.0,0.0,0.0,0.0,0.0,0.0,0.0,0.0,0.0,0.0,0.0,0.0,0.0,0.0,0.0,0.0,0.0,0.0,0.0,0.0,0.0,0.0,0.0,0.0,0.0,0.0,0.0,0.0,0.0,0.0,0.0,0.0,1.9306,1.9409,1.9409,1.9465,0.0,0.0,0.0,0.0,0.0,0.0,0.0,0.0,0.0,0.0,0.0,0.0,0.0,0.0,0.0,0.0,0.0,0.0,0.0,0.0,0.0,0.0,0.0,0.0,0.0,0.0,0.0,0.0,0.0,0.0,0.0,0.0,0.0,0.0,0.0,0.0,0.0,0.0,0.0,0.0,0.0,0.0,0.0,0.0,0.0,0.0,0.0,0.0,0.0,0.0,0.0,0.0,0.0,0.0,0.0,0.0,0.0,0.0,0.0,0.0,0.0,0.0,0.0,0.0,0.0,0.0,0.0,0.0,0.0,0.0,0.0,0.0,0.0,0.0,0.0,0.0,0.0,0.0,0.0,0.0,0.0,0.0,0.0,0.0,0.0,0.0,0.0,0.0,0.0,0.0,0.0,0.0,0.0,0.0,0.0,0.0,0.0,0.0,0.0,0.0,0.0,0.0,0.0,0.0,0.0,0.0,0.0,0.0,0.0,0.0,1.9108,1.9428,1.9472,1.9472,1.9538,1.9629,0.0,0.0,0.0,0.0,0.0,0.0,0.0,0.0,0.0,0.0,0.0,0.0,0.0,0.0,0.0,0.0,0.0,0.0,0.0,0.0,0.0,0.0,0.0,0.0,0.0,0.0,0.0,0.0,0.0,0.0,0.0,0.0,0.0,0.0,0.0,0.0,0.0,0.0,0.0,0.0,0.0,0.0,0.0,0.0,0.0,0.0,0.0,0.0,0.0,0.0,0.0,0.0,0.0,0.0,0.0,0.0,0.0,0.0,0.0,0.0,0.0,0.0,0.0,0.0,0.0,0.0,0.0,0.0,0.0,0.0,0.0,0.0,0.0,0.0,0.0,0.0,0.0,0.0,0.0,0.0,0.0,0.0,0.0,0.0,0.0,0.0,0.0,0.0,0.0,0.0,0.0,0.0,0.0,0.0,0.0,0.0,0.0,0.0,0.0,0.0,0.0,0.0,0.0,0.0,0.0,0.0,0.0,0.0,1.935,1.949,1.9629,1.9672,1.969,1.969,0.0,0.0,0.0,0.0,0.0,0.0,0.0,0.0,0.0,0.0,0.0,0.0,0.0,0.0,0.0,0.0,0.0,0.0,0.0,0.0,0.0,0.0,0.0,0.0,0.0,0.0,0.0,0.0,0.0,0.0,0.0,0.0,0.0,0.0,0.0,0.0,0.0,0.0,0.0,0.0,0.0,0.0,0.0,0.0,0.0,0.0,0.0,0.0,0.0,0.0,0.0,0.0,0.0,0.0,0.0,0.0,0.0,0.0,0.0,0.0,0.0,0.0,0.0,0.0,0.0,0.0,0.0,0.0,0.0,0.0,0.0,0.0,0.0,0.0,0.0,0.0,0.0,0.0,0.0,0.0,0.0,0.0,0.0,0.0,0.0,0.0,0.0,0.0,0.0,0.0,0.0,0.0,0.0,0.0,0.0,0.0,0.0,0.0,0.0,0.0,0.0,0.0,0.0,0.0,0.0,0.0,0.0,0.0,0.0,1.952,1.9629,1.9672,1.9708,1.9708,1.9708,0.0,0.0,0.0,0.0,0.0,0.0,0.0,0.0,0.0,0.0,0.0,0.0,0.0,0.0,0.0,0.0,0.0,0.0,0.0,0.0,0.0,0.0,0.0,0.0,0.0,0.0,0.0,0.0,0.0,0.0,0.0,0.0,0.0,0.0,0.0,0.0,0.0,0.0,0.0,0.0,0.0,0.0,0.0,0.0,0.0,0.0,0.0,0.0,0.0,0.0,0.0,0.0,0.0,0.0,0.0,0.0,0.0,0.0,0.0,0.0,0.0,0.0,0.0,0.0,0.0,0.0,0.0,0.0,0.0,0.0,0.0,0.0,0.0,0.0,0.0,0.0,0.0,0.0,0.0,0.0,0.0,0.0,0.0,0.0,0.0,0.0,0.0,0.0,0.0,0.0,0.0,0.0,0.0,0.0,0.0,0.0,0.0,0.0,0.0,0.0,0.0,0.0,0.0,0.0,0.0,0.0,0.0,0.0,0.0,1.9647,1.9672,1.9708,1.9708,1.9708,1.9708,0.0,0.0,0.0,0.0,0.0,0.0,0.0,0.0,0.0,0.0,0.0,0.0,0.0,0.0,0.0,0.0,0.0,0.0,0.0,0.0,0.0,0.0,0.0,0.0,0.0,0.0,0.0,0.0,0.0,0.0,0.0,0.0,0.0,0.0,0.0,0.0,0.0,0.0,0.0,0.0,0.0,0.0,0.0,0.0,0.0,0.0,0.0,0.0,0.0,0.0,0.0,0.0,0.0,0.0,0.0,0.0,0.0,0.0,0.0,0.0,0.0,0.0,0.0,0.0,0.0,0.0,0.0,0.0,0.0,0.0,0.0,0.0,0.0,0.0,0.0,0.0,0.0,0.0,0.0,0.0,0.0,0.0,0.0,0.0,0.0,0.0,0.0,0.0,0.0,0.0,0.0,0.0,0.0,0.0,0.0,0.0,0.0,0.0,0.0,0.0,0.0,0.0,0.0,0.0,0.0,0.0,0.0,0.0,1.9629,1.9708,1.9708,1.9708,1.9708,1.9708,1.9708,0.0,0.0,0.0,0.0,0.0,0.0,0.0,0.0,0.0,0.0,0.0,0.0,0.0,0.0,0.0,0.0,0.0,0.0,0.0,0.0,0.0,0.0,0.0,0.0,0.0,0.0,0.0,0.0,0.0,0.0,0.0,0.0,0.0,0.0,0.0,0.0,0.0,0.0,0.0,0.0,0.0,0.0,0.0,0.0,0.0,0.0,0.0,0.0,0.0,0.0,0.0,0.0,0.0,0.0,0.0,0.0,0.0,0.0,0.0,0.0,0.0,0.0,0.0,0.0,0.0,0.0,0.0,0.0,0.0,0.0,0.0,0.0,0.0,0.0,0.0,0.0,0.0,0.0,0.0,0.0,0.0,0.0,0.0,0.0,0.0,0.0,0.0,0.0,0.0,0.0,0.0,0.0,0.0,0.0,0.0,0.0,0.0,0.0,0.0,0.0,0.0,0.0,0.0,0.0,0.0,0.0,0.0,0.0,0.0,1.9738,1.9708,1.9708,1.9708,1.9708,1.9708,0.0,0.0,0.0,0.0,0.0,0.0,0.0,0.0,0.0,0.0,0.0,0.0,0.0,0.0,0.0,0.0,0.0,0.0,0.0,0.0,0.0,0.0,0.0,0.0,0.0,0.0,0.0,0.0,0.0,0.0,0.0,0.0,0.0,0.0,0.0,0.0,0.0,0.0,0.0,0.0,0.0,0.0,0.0,0.0,0.0,0.0,0.0,0.0,0.0,0.0,0.0,0.0,0.0,0.0,0.0,0.0,0.0,0.0,0.0,0.0,0.0,0.0,0.0,0.0,0.0,0.0,0.0,0.0,0.0,0.0,0.0,0.0,0.0,0.0,0.0,0.0,0.0,0.0,0.0,0.0,0.0,0.0,0.0,0.0,0.0,0.0,0.0,0.0,0.0,0.0,0.0,0.0,0.0,0.0,0.0,0.0,0.0,0.0,0.0,0.0,0.0,0.0,0.0,0.0,0.0,0.0,0.0,0.0,0.0,2.1545,2.1515,2.1515,2.1515,2.1545,2.0966,1.9768,0.0,0.0,0.0,0.0,0.0,0.0,0.0,0.0,0.0,0.0,0.0,0.0,0.0,0.0,0.0,0.0,0.0,0.0,0.0,0.0,0.0,0.0,0.0,0.0,0.0,0.0,0.0,0.0,0.0,0.0,0.0,0.0,0.0,0.0,0.0,0.0,0.0,0.0,0.0,0.0,0.0,0.0,0.0,0.0,0.0,0.0,0.0,0.0,0.0,0.0,0.0,0.0,0.0,0.0,0.0,0.0,0.0,0.0,0.0,0.0,0.0,0.0,0.0,0.0,0.0,0.0,0.0,0.0,0.0,0.0,0.0,0.0,0.0,0.0,0.0,0.0,0.0,0.0,0.0,0.0,0.0,0.0,0.0,0.0,0.0,0.0,0.0,0.0,0.0,0.0,0.0,0.0,0.0,0.0,0.0,0.0,0.0,0.0,0.0,0.0,0.0,0.0,0.0,0.0,0.0,0.0,0.0,0.0,2.4903,2.5023,2.4963,2.4754,2.4605,2.314,0.0,0.0,0.0,0.0,0.0,0.0,0.0,0.0,0.0,0.0,0.0,0.0,0.0,0.0,0.0,0.0,0.0,0.0,0.0,0.0,0.0,0.0,0.0,0.0,0.0,0.0,0.0,0.0,0.0,0.0,0.0,0.0,0.0,0.0,0.0,0.0,0.0,0.0,0.0,0.0,0.0,0.0,0.0,0.0,0.0,0.0,0.0,0.0,0.0,0.0,0.0,0.0,0.0,0.0,0.0,0.0,0.0,0.0,0.0,0.0,0.0,0.0,0.0,0.0,0.0,0.0,0.0,0.0,0.0,0.0,0.0,0.0,0.0,0.0,0.0,0.0,0.0,0.0,0.0,0.0,0.0,0.0,0.0,0.0,0.0,0.0,0.0,0.0,0.0,0.0,0.0,0.0,0.0,0.0,0.0,0.0,0.0,0.0,0.0,0.0,0.0,0.0,0.0,0.0,0.0,0.0,0.0,0.0,0.0,2.885,2.9896,2.9295,2.6901,2.5352,2.3977,0.0,0.0,0.0,0.0,0.0,0.0,0.0,0.0,0.0,0.0,0.0,0.0,0.0,0.0,0.0,0.0,0.0,0.0,0.0,0.0,0.0,0.0,0.0,0.0,0.0,0.0,0.0,0.0,0.0,0.0,0.0,0.0,0.0,0.0,0.0,0.0,0.0,0.0,0.0,0.0,0.0,0.0,0.0,0.0,0.0,0.0,0.0,0.0,0.0,0.0,0.0,0.0,0.0,0.0,0.0,0.0,0.0,0.0,0.0,0.0,0.0,0.0,0.0,0.0,0.0,0.0,0.0,0.0,0.0,0.0,0.0,0.0,0.0,0.0,0.0,0.0,0.0,0.0,0.0,0.0,0.0,0.0,0.0,0.0,0.0,0.0,0.0,0.0,0.0,0.0,0.0,0.0,0.0,0.0,0.0,0.0,0.0,0.0,0.0,0.0,0.0,0.0,0.0,0.0,0.0,0.0,0.0,0.0,2.8038,3.0462,3.3155,3.3544,3.1389,2.8338,2.5854,0.0,0.0,0.0,0.0,0.0,0.0,0.0,0.0,0.0,0.0,0.0,0.0,0.0,0.0,0.0,0.0,0.0,0.0,0.0,0.0,0.0,0.0,0.0,0.0,0.0,0.0,0.0,0.0,0.0,0.0,0.0,0.0,0.0,0.0,0.0,0.0,0.0,0.0,0.0,0.0,0.0,0.0,0.0,0.0,0.0,0.0,0.0,0.0,0.0,0.0,0.0,0.0,0.0,0.0,0.0,0.0,0.0,0.0,0.0,0.0,0.0,0.0,0.0,0.0,0.0,0.0,0.0,0.0,0.0,0.0,0.0,0.0,0.0,0.0,0.0,0.0,0.0,0.0,0.0,0.0,0.0,0.0,0.0,0.0,0.0,0.0,0.0,0.0,0.0,0.0,0.0,0.0,0.0,0.0,0.0,0.0,0.0,0.0,0.0,0.0,0.0,0.0,0.0,0.0,0.0,0.0,0.0,0.0,2.9475,3.0941,3.516,3.7135,3.6477,3.2137,2.8218,0.0,0.0,0.0,0.0,0.0,0.0,0.0,0.0,0.0,0.0,0.0,0.0,0.0,0.0,0.0,0.0,0.0,0.0,0.0,0.0,0.0,0.0,0.0,0.0,0.0,0.0,0.0,0.0,0.0,0.0,0.0,0.0,0.0,0.0,0.0,0.0,0.0,0.0,0.0,0.0,0.0,0.0,0.0,0.0,0.0,0.0,0.0,0.0,0.0,0.0,0.0,0.0,0.0,0.0,0.0,0.0,0.0,0.0,0.0,0.0,0.0,0.0,0.0,0.0,0.0,0.0,0.0,0.0,0.0,0.0,0.0,0.0,0.0,0.0,0.0,0.0,0.0,0.0,0.0,0.0,0.0,0.0,0.0,0.0,0.0,0.0,0.0,0.0,0.0,0.0,0.0,0.0,0.0,0.0,0.0,0.0,0.0,0.0,0.0,0.0,0.0,0.0,0.0,0.0,0.0,0.0,0.0,0.0,3.124,3.3635,3.6088,3.7345,3.7195,3.2736,2.9505,0.0,0.0,0.0,0.0,0.0,0.0,0.0,0.0,0.0,0.0,0.0,0.0,0.0,0.0,0.0,0.0,0.0,0.0,0.0,0.0,0.0,0.0,0.0,0.0,0.0,0.0,0.0,0.0,0.0,0.0,0.0,0.0,0.0,0.0,0.0,0.0,0.0,0.0,0.0,0.0,0.0,0.0,0.0,0.0,0.0,0.0,0.0,0.0,2.3538,0.0,0.0,0.0,0.0,0.0,0.0,0.0,0.0,0.0,0.0,0.0,0.0,0.0,0.0,0.0,0.0,0.0,0.0,0.0,0.0,0.0,0.0,0.0,0.0,0.0,0.0,0.0,0.0,0.0,0.0,0.0,0.0,0.0,0.0,0.0,0.0,0.0,0.0,0.0,0.0,0.0,0.0,0.0,0.0,0.0,0.0,0.0,0.0,0.0,0.0,0.0,0.0,0.0,0.0,0.0,0.0,0.0,0.0,0.0,3.2587,3.4921,3.7494,3.8512,3.7793,3.4592,3.1779,0.0,0.0,0.0,0.0,0.0,0.0,0.0,0.0,0.0,0.0,0.0,0.0,0.0,0.0,0.0,0.0,0.0,0.0,0.0,0.0,0.0,0.0,0.0,0.0,0.0,0.0,0.0,0.0,0.0,0.0,0.0,0.0,0.0,0.0,0.0,0.0,0.0,0.0,0.0,0.0,0.0,0.0,0.0,0.0,0.0,0.0,0.0,0.0,0.0,0.0,0.0,0.0,0.0,0.0,0.0,0.0,0.0,0.0,0.0,0.0,0.0,0.0,0.0,0.0,0.0,0.0,0.0,0.0,0.0,0.0,0.0,0.0,0.0,0.0,0.0,0.0,0.0,0.0,0.0,0.0,0.0,0.0,0.0,0.0,0.0,0.0,0.0,0.0,0.0,0.0,0.0,0.0,0.0,0.0,0.0,0.0,0.0,0.0,0.0,0.0,0.0,0.0,0.0,0.0,0.0,0.0,0.0,3.1152,3.3844,3.6237,3.899,3.9858,3.8691,3.6507,3.3933,3.0909,0.0,0.0,0.0,0.0,0.0,0.0,0.0,0.0,0.0,0.0,0.0,0.0,0.0,0.0,0.0,0.0,0.0,0.0,0.0,0.0,0.0,0.0,0.0,0.0,0.0,0.0,0.0,0.0,0.0,0.0,0.0,0.0,0.0,0.0,0.0,0.0,0.0,0.0,2.0791,2.0632,0.0,0.0,0.0,0.0,0.0,0.0,0.0,0.0,2.3468,0.0,0.0,0.0,0.0,0.0,0.0,0.0,0.0,0.0,0.0,0.0,0.0,0.0,0.0,0.0,0.0,0.0,0.0,0.0,0.0,0.0,0.0,0.0,0.0,0.0,0.0,0.0,0.0,0.0,0.0,0.0,0.0,0.0,0.0,0.0,0.0,0.0,0.0,0.0,0.0,0.0,0.0,0.0,0.0,0.0,0.0,0.0,0.0,0.0,0.0,0.0,0.0,0.0,0.0,0.0,0.0,3.1043,3.2555,3.537,3.9469,4.0127,4.0307,3.9978,3.657,3.3935,3.2255,0.0,0.0,0.0,0.0,0.0,0.0,0.0,0.0,0.0,0.0,0.0,0.0,0.0,0.0,0.0,0.0,0.0,0.0,0.0,0.0,0.0,0.0,0.0,0.0,0.0,0.0,0.0,0.0,0.0,0.0,0.0,0.0,0.0,0.0,0.0,0.0,0.0,0.0,0.0,2.2064,2.1515,0.0,0.0,0.0,0.0,0.0,0.0,0.0,0.0,2.3688,0.0,0.0,0.0,0.0,0.0,0.0,0.0,0.0,0.0,0.0,0.0,0.0,0.0,0.0,0.0,0.0,0.0,0.0,0.0,0.0,0.0,0.0,0.0,0.0,0.0,0.0,0.0,0.0,0.0,0.0,0.0,0.0,0.0,0.0,0.0,0.0,0.0,0.0,0.0,0.0,0.0,0.0,0.0,0.0,0.0,0.0,0.0,0.0,0.0,0.0,0.0,0.0,0.0,0.0,0.0,3.0945,3.3427,3.6431,4.0047,4.0557,4.0601,4.0367,3.7524,3.4805,0.0,0.0,0.0,0.0,0.0,0.0,0.0,0.0,0.0,0.0,0.0,0.0,0.0,0.0,0.0,0.0,0.0,0.0,0.0,0.0,0.0,0.0,0.0,0.0,0.0,0.0,0.0,0.0,0.0,0.0,0.0,0.0,0.0,0.0,0.0,0.0,0.0,0.0,0.0,0.0,2.2981,2.3229,2.6394,0.0,0.0,0.0,0.0,0.0,0.0,2.5743,2.4738,0.0,0.0,0.0,0.0,0.0,0.0,0.0,0.0,0.0,0.0,0.0,0.0,0.0,0.0,0.0,0.0,0.0,0.0,0.0,0.0,0.0,0.0,0.0,0.0,0.0,0.0,0.0,0.0,0.0,0.0,0.0,0.0,0.0,0.0,0.0,0.0,0.0,0.0,0.0,0.0,0.0,0.0,0.0,0.0,0.0,0.0,0.0,0.0,0.0,0.0,0.0,0.0,0.0,0.0,0.0,3.0592,3.4111,3.7264,3.9963,4.0493,4.0554,4.0191,3.7576,3.4744,0.0,0.0,0.0,0.0,0.0,0.0,0.0,0.0,0.0,0.0,0.0,0.0,0.0,0.0,0.0,0.0,0.0,0.0,0.0,0.0,0.0,0.0,0.0,0.0,0.0,0.0,0.0,0.0,0.0,0.0,0.0,0.0,0.0,0.0,0.0,0.0,0.0,0.0,0.0,0.0,0.0,2.4909,2.8088,2.6877,0.0,0.0,0.0,0.0,2.7494,2.7092,0.0,0.0,0.0,0.0,0.0,0.0,0.0,0.0,0.0,0.0,0.0,0.0,0.0,0.0,0.0,0.0,0.0,0.0,0.0,0.0,0.0,0.0,0.0,0.0,0.0,0.0,0.0,0.0,0.0,0.0,0.0,0.0,0.0,0.0,0.0,0.0,0.0,0.0,0.0,0.0,0.0,0.0,0.0,0.0,0.0,0.0,0.0,0.0,0.0,0.0,0.0,0.0,0.0,0.0,0.0,0.0,3.1344,3.4798,3.787,4.0252,4.0013,3.9745,3.9602,3.4687,3.1877,0.0,0.0,0.0,0.0,0.0,0.0,0.0,0.0,0.0,0.0,0.0,0.0,0.0,0.0,0.0,0.0,0.0,0.0,0.0,0.0,0.0,0.0,0.0,0.0,0.0,0.0,0.0,0.0,0.0,0.0,0.0,0.0,0.0,0.0,0.0,0.0,0.0,0.0,0.0,0.0,0.0,2.5133,2.8318,2.7068,2.5643,0.0,0.0,2.9592,2.91,3.0161,0.0,0.0,0.0,0.0,0.0,0.0,0.0,0.0,0.0,0.0,0.0,0.0,0.0,0.0,0.0,0.0,0.0,0.0,0.0,0.0,0.0,0.0,0.0,0.0,0.0,0.0,0.0,0.0,0.0,0.0,0.0,0.0,0.0,0.0,0.0,0.0,0.0,0.0,0.0,0.0,0.0,0.0,0.0,0.0,0.0,0.0,0.0,0.0,0.0,0.0,0.0,0.0,0.0,0.0,0.0,2.9467,3.1286,3.5907,3.8959,4.0233,4.0013,3.9806,3.9592,3.5218,3.2426,0.0,0.0,0.0,0.0,0.0,0.0,0.0,0.0,0.0,0.0,0.0,0.0,0.0,0.0,0.0,0.0,0.0,0.0,0.0,0.0,0.0,0.0,0.0,0.0,0.0,0.0,0.0,0.0,0.0,0.0,0.0,0.0,0.0,0.0,0.0,0.0,0.0,0.0,0.0,0.0,0.0,0.0,2.8786,2.8889,0.0,0.0,0.0,3.024,2.8395,0.0,0.0,0.0,0.0,0.0,0.0,0.0,0.0,0.0,0.0,0.0,0.0,0.0,0.0,0.0,0.0,0.0,0.0,0.0,0.0,0.0,0.0,0.0,0.0,0.0,0.0,0.0,0.0,0.0,0.0,0.0,0.0,0.0,0.0,0.0,0.0,0.0,0.0,0.0,0.0,0.0,0.0,0.0,0.0,0.0,0.0,0.0,0.0,0.0,0.0,0.0,0.0,0.0,0.0,0.0,0.0,0.0,3.1496,3.6828,3.9854,4.0348,4.0099,3.9852,3.9562,3.638,0.0,0.0,0.0,0.0,0.0,0.0,0.0,0.0,0.0,0.0,0.0,0.0,0.0,0.0,0.0,0.0,0.0,0.0,0.0,0.0,0.0,0.0,0.0,0.0,0.0,0.0,0.0,1.4862,0.0,0.0,0.0,0.0,0.0,0.0,0.0,0.0,0.0,0.0,0.0,0.0,0.0,0.0,2.8384,2.9474,3.0611,3.1498,0.0,0.0,3.1255,2.9479,3.2418,3.3053,0.0,0.0,0.0,0.0,0.0,0.0,0.0,0.0,0.0,0.0,0.0,0.0,0.0,0.0,0.0,0.0,0.0,0.0,0.0,0.0,0.0,0.0,0.0,0.0,0.0,0.0,0.0,0.0,0.0,0.0,0.0,0.0,0.0,0.0,0.0,0.0,0.0,0.0,0.0,0.0,0.0,0.0,0.0,0.0,0.0,0.0,0.0,0.0,0.0,0.0,0.0,0.0,0.0,0.0,3.091,3.2672,3.722,4.0122,4.1136,4.0193,3.9616,3.958,3.7243,3.4447,0.0,0.0,0.0,0.0,0.0,0.0,0.0,0.0,0.0,0.0,0.0,0.0,0.0,0.0,0.0,0.0,0.0,0.0,0.0,0.0,0.0,0.0,0.0,0.0,0.0,0.0,0.0,0.0,0.0,0.0,0.0,0.0,0.0,0.0,0.0,0.0,0.0,0.0,0.0,0.0,0.0,3.0064,3.0453,3.1552,3.2765,0.0,0.0,3.3222,3.451,3.6734,3.6703,3.1596,0.0,0.0,0.0,0.0,0.0,0.0,0.0,0.0,0.0,0.0,0.0,0.0,0.0,0.0,0.0,0.0,0.0,0.0,0.0,0.0,0.0,0.0,0.0,0.0,0.0,0.0,0.0,0.0,0.0,0.0,0.0,0.0,0.0,0.0,0.0,0.0,0.0,0.0,0.0,0.0,0.0,0.0,0.0,0.0,0.0,0.0,0.0,0.0,0.0,0.0,0.0,0.0,0.0,3.2306,3.3796,3.8658,4.1246,4.1272,4.0514,3.9965,3.9625,3.7691,3.5208,0.0,0.0,0.0,0.0,0.0,0.0,0.0,0.0,0.0,0.0,0.0,0.0,0.0,0.0,0.0,0.0,0.0,0.0,0.0,0.0,0.0,0.0,0.0,0.0,0.0,0.0,0.0,0.0,2.1695,2.2109,2.055,0.0,0.0,0.0,0.0,0.0,0.0,0.0,0.0,0.0,0.0,3.0739,3.2229,3.3134,0.0,0.0,3.2903,3.2474,3.225,3.4029,3.4074,3.0163,2.9816,0.0,0.0,0.0,0.0,0.0,0.0,0.0,0.0,0.0,0.0,0.0,0.0,0.0,0.0,0.0,0.0,0.0,0.0,0.0,0.0,0.0,0.0,0.0,0.0,0.0,0.0,0.0,0.0,0.0,0.0,0.0,0.0,0.0,0.0,0.0,0.0,0.0,0.0,0.0,0.0,0.0,0.0,0.0,0.0,0.0,0.0,0.0,0.0,0.0,0.0,0.0,0.0,3.3532,3.492,3.986,4.2396,4.2343,4.1585,4.101,4.0618,3.9259,3.7273,0.0,0.0,0.0,0.0,0.0,0.0,0.0,0.0,0.0,0.0,0.0,0.0,0.0,0.0,0.0,0.0,0.0,0.0,0.0,0.0,0.0,0.0,0.0,0.0,0.0,0.0,0.0,0.0,2.2959,2.3178,2.1399,0.0,0.0,0.0,0.0,0.0,0.0,0.0,0.0,0.0,0.0,3.1466,3.2704,3.331,3.341,3.281,3.2126,3.157,3.1274,3.2453,3.2526,3.0225,0.0,0.0,0.0,0.0,0.0,0.0,0.0,0.0,0.0,0.0,0.0,0.0,0.0,0.0,0.0,0.0,0.0,0.0,0.0,0.0,0.0,0.0,0.0,0.0,0.0,0.0,0.0,0.0,0.0,0.0,1.6264,0.0,0.0,0.0,0.0,0.0,0.0,0.0,0.0,0.0,0.0,0.0,0.0,0.0,0.0,0.0,0.0,0.0,0.0,0.0,0.0,0.0,0.0,3.4424,3.6053,4.0595,4.3467,4.4459,4.3546,4.2866,4.2892,4.2343,4.0981,3.8527,0.0,0.0,0.0,0.0,0.0,0.0,0.0,0.0,0.0,0.0,0.0,0.0,0.0,0.0,0.0,0.0,0.0,0.0,0.0,0.0,0.0,0.0,0.0,0.0,0.0,0.0,1.6886,1.9284,2.1182,0.0,0.0,0.0,0.0,0.0,0.0,0.0,0.0,0.0,0.0,2.97,3.2226,3.1321,3.1646,3.2178,3.2686,3.1343,3.0974,3.3007,3.333,3.3327,0.0,0.0,0.0,0.0,0.0,0.0,0.0,0.0,0.0,0.0,0.0,0.0,0.0,0.0,0.0,0.0,0.0,0.0,0.0,0.0,0.0,0.0,0.0,0.0,0.0,0.0,0.0,1.6373,1.6373,0.0,0.0,0.0,0.0,0.0,0.0,0.0,0.0,0.0,0.0,0.0,2.6177,2.6459,0.0,0.0,0.0,0.0,0.0,0.0,0.0,0.0,0.0,0.0,0.0,0.0,3.5506,3.6432,4.108,4.3581,4.3555,4.3018,4.2709,4.2709,4.2736,4.1455,3.8762,0.0,0.0,0.0,0.0,0.0,0.0,0.0,0.0,0.0,0.0,0.0,0.0,0.0,0.0,0.0,0.0,0.0,0.0,0.0,0.0,0.0,0.0,0.0,0.0,0.0,2.1248,0.0,0.0,0.0,0.0,0.0,0.0,0.0,0.0,0.0,0.0,0.0,2.6154,2.812,2.9647,3.0674,3.0987,3.1448,3.1993,0.0,0.0,0.0,0.0,0.0,0.0,0.0,0.0,0.0,0.0,0.0,0.0,0.0,0.0,2.8668,2.6989,2.8349,2.9854,3.0231,0.0,0.0,0.0,0.0,0.0,0.0,0.0,0.0,0.0,0.0,0.0,0.0,0.0,0.0,1.921,0.0,1.8579,0.0,0.0,0.0,0.0,0.0,0.0,0.0,0.0,2.6066,2.7496,2.834,2.8826,2.9471,0.0,2.9139,2.7554,0.0,0.0,0.0,0.0,0.0,0.0,0.0,0.0,3.6489,3.7339,4.1899,4.4305,4.4181,4.3807,4.3633,4.3633,4.3588,4.2502,4.0278,3.6817,3.3908,0.0,0.0,0.0,0.0,0.0,0.0,0.0,0.0,0.0,0.0,0.0,0.0,0.0,0.0,0.0,0.0,0.0,0.0,0.0,0.0,0.0,0.0,0.0,2.2567,0.0,0.0,0.0,0.0,0.0,0.0,0.0,0.0,0.0,2.32,2.5377,2.7632,2.9348,3.0171,3.0471,2.9996,0.0,0.0,0.0,0.0,0.0,0.0,0.0,2.8744,2.9062,2.9543,3.0249,3.1491,3.1862,3.1984,3.1984,0.0,0.0,3.0897,3.2123,3.3761,3.461,3.4625,3.4876,3.611,3.6558,3.696,0.0,0.0,0.0,0.0,0.0,0.0,0.0,0.0,2.4445,2.4404,0.0,2.2646,0.0,0.0,0.0,0.0,0.0,2.5568,0.0,0.0,3.0036,3.1091,2.9673,3.1137,3.1911,3.1899,3.1334,3.102,3.0815,2.9431,0.0,0.0,0.0,0.0,0.0,0.0,3.7194,3.871,4.3038,4.5591,4.605,4.5591,4.5368,4.54,4.4863,4.4064,4.3023,4.0482,3.87,3.7854,3.1941,0.0,0.0,0.0,0.0,0.0,0.0,0.0,0.0,0.0,0.0,0.0,0.0,0.0,0.0,0.0,0.0,0.0,0.0,0.0,0.0,2.2123,0.0,0.0,0.0,0.0,0.0,0.0,0.0,0.0,0.0,0.0,2.4386,2.6729,2.8752,2.9187,0.0,0.0,0.0,0.0,3.0263,2.7434,2.7247,2.7579,2.7683,2.9021,3.0698,3.2395,0.0,0.0,3.4318,3.2867,3.1913,3.1788,3.434,3.5801,3.4801,3.4662,3.5086,3.6378,3.7045,3.7541,3.8116,3.8885,3.9436,2.9653,0.0,0.0,0.0,0.0,2.5109,2.513,2.5502,2.5502,2.5482,2.5461,2.4943,0.0,0.0,0.0,0.0,0.0,0.0,2.8338,2.9756,3.0954,3.2126,3.3203,3.3684,3.4094,3.4365,3.4223,3.4091,3.407,3.3633,3.1558,2.7962,0.0,0.0,0.0,0.0,3.6221,3.7385,4.1094,4.281,4.2242,4.2909,4.3699,4.4556,4.3382,4.3193,4.4142,4.1843,3.9899,3.8486,3.4745,0.0,0.0,0.0,0.0,0.0,0.0,0.0,0.0,0.0,0.0,0.0,0.0,0.0,0.0,0.0,0.0,0.0,0.0,0.0,2.3598,2.5228,2.5182,0.0,0.0,0.0,0.0,0.0,0.0,0.0,0.0,0.0,2.8752,2.8359,2.8297,0.0,0.0,2.8131,2.7531,2.9125,3.0636,3.1374,3.1278,0.0,0.0,3.2706,3.2582,3.312,3.5148,3.6763,3.697,3.7632,3.815,3.8109,3.89,3.9678,4.0294,3.9515,3.9152,3.979,4.0376,4.101,4.1878,4.277,4.3813,3.2493,2.9943,2.9083,2.8731,2.8711,2.8442,2.8628,2.9125,2.9125,2.9176,2.9113,2.8429,2.8097,2.8028,2.7489,0.0,0.0,0.0,3.0594,3.2416,3.2437,3.3161,3.4505,3.4733,3.4983,3.5418,3.5604,3.5894,3.6225,3.55,3.3917,3.1495,0.0,0.0,3.1673,3.4715,3.668,3.7588,4.0609,4.1954,4.1525,4.2408,4.3112,4.3477,4.2484,4.2455,4.3375,4.2225,4.0985,3.9833,3.692,3.3993,0.0,0.0,0.0,0.0,0.0,0.0,0.0,0.0,0.0,0.0,0.0,1.969,1.8592,0.0,0.0,0.0,2.4564,2.5429,2.6652,2.6844,0.0,0.0,0.0,0.0,0.0,0.0,0.0,2.5057,2.8469,3.1079,3.1278,3.0483,3.0249,3.114,3.076,3.0201,2.9798,0.0,3.2374,3.2884,3.2662,3.2929,3.4183,3.4488,3.4817,3.5935,3.7425,3.8688,3.9206,4.0179,4.0841,4.0882,4.0882,4.1147,4.1975,4.1364,4.1195,4.2525,4.3081,4.3562,4.4363,4.5004,4.5897,3.4235,3.4072,3.283,3.2173,3.2091,3.205,3.2809,3.4049,3.4049,3.4031,3.4007,3.2369,3.1588,3.1505,3.0263,0.0,3.2215,3.2235,3.2996,3.4238,3.4339,3.4279,3.436,3.4795,3.5128,3.5542,3.5956,3.6597,3.7301,3.5749,3.5086,3.5397,3.459,3.3938,3.3667,3.5925,3.7679,3.8625,4.0666,4.2002,4.2616,4.296,4.2929,4.2397,4.2097,4.1827,4.1579,4.1864,4.1876,4.1405,3.8561,3.6316,3.4826,0.0,0.0,0.0,0.0,0.0,0.0,0.0,0.0,0.0,0.0,0.0,0.0,0.0,0.0,0.0,2.788,0.0,3.0455,2.7734,0.0,0.0,0.0,2.6243,2.7958,2.9446,3.0166,2.9599,0.0,0.0,3.2418,3.2824,3.3738,3.5479,3.579,3.5252,3.3641,3.4472,3.4819,3.2987,3.2702,3.2906,3.3881,3.5252,3.7171,3.9419,4.0274,4.0398,4.0903,4.1048,4.1069,4.1214,4.111,4.1203,4.111,4.1233,4.1925,4.4316,4.4618,4.4686,4.5046,4.5227,4.5522,3.5086,3.5066,3.4755,3.401,3.3037,3.2706,3.2934,3.3534,3.3555,3.38,3.409,3.3675,3.3489,3.3468,3.3078,3.3368,3.4113,3.4465,3.4983,3.5625,3.5997,3.6163,3.6163,3.6266,3.637,3.6473,3.6577,3.6763,3.6949,3.6535,3.6018,3.5438,3.5211,3.4523,3.3524,3.4043,3.5019,3.6237,3.7445,3.8804,4.0202,3.9781,4.0035,4.1241,4.0845,4.1027,4.1919,4.1135,4.0869,4.126,3.8972,3.7138,3.6031,3.2146,0.0,0.0,0.0,0.0,0.0,0.0,0.0,0.0,0.0,2.2338,2.0478,0.0,2.4472,0.0,2.9701,3.2531,3.2162,3.1733,0.0,0.0,2.9332,2.9188,3.0036,3.1958,3.2621,3.1264,3.2854,3.4322,3.4765,3.4906,3.5796,3.7806,3.5593,3.3656,3.3579,3.4445,3.5187,3.5348,3.6138,3.6965,3.7005,3.7758,3.8876,4.0525,4.0822,4.1161,4.2216,4.2435,4.2538,4.287,4.2952,4.2973,4.2911,4.2952,4.3156,4.3647,4.2852,4.2054,4.2521,4.2903,4.3649,3.6039,3.6018,3.5811,3.4941,3.3699,3.3844,3.4072,3.4279,3.43,3.4445,3.4693,3.4879,3.5086,3.5293,3.5293,3.5438,3.5687,3.5914,3.6163,3.6432,3.668,3.6804,3.6804,3.6804,3.7011,3.7405,3.7425,3.7632,3.8005,3.8005,3.7757,3.7195,3.726,3.6577,3.5231,3.4403,3.4465,3.5418,3.6742,3.8212,3.9695,3.9537,3.9511,3.9659,3.9256,3.8916,3.8869,3.8328,3.8065,3.8038,3.68,3.5678,3.4727,3.1651,2.9223,0.0,0.0,0.0,0.0,0.0,0.0,0.0,0.0,0.0,0.0,0.0,2.7138,2.7503,3.1712,3.3844,3.2483,3.2473,3.2395,3.2004,3.1753,3.2052,3.3174,3.4752,3.5312,3.423,3.5386,3.6214,3.6083,3.6504,3.7104,3.7897,3.6697,3.5811,3.6027,3.6376,3.6662,3.6961,3.7599,3.8377,3.8879,3.9372,4.0028,4.1076,4.1319,4.1617,4.2473,4.2844,4.3022,4.3248,4.3462,4.3615,4.3615,4.3615,4.3656,4.3739,4.3118,4.2497,4.2476,4.2683,4.3285,3.6804,3.6763,3.637,3.5521,3.4526,3.5273,3.5376,3.4983,3.4983,3.5128,3.5376,3.5956,3.6411,3.6804,3.6804,3.6804,3.6804,3.6867,3.6887,3.6887,3.6949,3.6991,3.697,3.697,3.7425,3.8253,3.8274,3.8709,3.9447,3.9468,3.9454,3.9288,3.9199,3.8626,3.7301,3.5728,3.5086,3.5438,3.7177,3.8667,3.9847,4.0075,3.9413,3.7922,3.7488,3.6535,3.4982,3.5173,3.4932,3.4271,3.4019,3.3725,3.3198,3.021,2.8462,0.0,2.6123,0.0,0.0,0.0,0.0,0.0,0.0,0.0,0.0,2.9187,3.0657,3.1719,3.3782,3.4445,3.2979,3.2608,3.2885,3.3963,3.4143,3.4799,3.6383,3.708,3.7391,3.7103,3.7195,3.7077,3.668,3.7483,3.7479,3.6885,3.7416,3.7947,3.8668,3.8509,3.828,3.8003,3.8023,3.864,3.9433,4.0018,4.0552,4.1294,4.1394,4.1731,4.2245,4.2632,4.2922,4.2984,4.331,4.3615,4.3615,4.3615,4.3739,4.407,4.4049,4.3905,4.3698,4.3635,4.3553,3.6804,3.6784,3.6701,3.6535,3.6308,3.6473,3.5066,3.2628,3.2628,3.3513,3.5023,3.6142,3.6722,3.6804,3.6804,3.6804,3.6825,3.7198,3.7363,3.7363,3.7757,3.7922,3.7922,3.7922,3.8212,3.8641,3.8662,3.8931,3.9468,3.9468,3.8978,3.7902,3.7881,3.7384,3.6411,0.0,0.0,0.0,3.6867,3.7757,3.7964,3.6991,3.6287,3.5956,3.6225,0.0,3.5335,3.5373,3.5143,3.4691,3.4306,0.0,0.0,0.0,0.0,0.0,0.0,0.0,0.0,0.0,0.0,0.0,2.9932,2.9518,2.9518,3.0491,3.2106,3.4424,3.5728,3.6614,3.7094,3.7371,3.7563,3.7448,3.7112,3.7097,3.75,3.6778,3.6227,3.6237,3.542,3.5255,3.6285,3.5722,3.5459,3.6192,3.5718,3.5901,3.7388,3.8341,3.8926,3.8941,3.9117,3.9543,3.9834,3.9932,4.018,4.0583,4.0658,4.1008,4.1731,4.2191,4.2637,4.2846,4.331,4.3615,4.3594,4.3615,4.3615,4.3739,4.3739,4.3822,4.4112,4.4174,4.4029,3.7488,0.0,3.7488,3.7094,0.0,3.6453,3.5148,3.3099,3.401,3.5045,3.6142,3.6846,3.726,3.7467,3.7011,3.6804,3.6804,3.6577,3.6846,3.7488,3.7736,3.8212,3.8854,3.8854,3.9102,3.9468,3.9744,4.0096,4.053,4.0779,4.053,3.9847,3.9847,3.9599,3.9164,3.9144,3.8481,3.7136,3.8026,3.8812,3.9454,3.8812,3.8129,3.7488,3.7239,0.0,0.0,0.0,0.0,0.0,0.0,0.0,0.0,0.0,0.0,3.4652,3.3451,3.3099,3.3948,3.3844,3.4196,3.5232,3.519,3.4486,3.3141,3.4279,3.6018,3.8212,3.8553,3.876,3.9208,3.8959,3.8678,3.8396,3.7527,3.6947,3.7058,3.6034,3.5366,3.5316,3.4623,3.4308,3.4418,3.4231,3.389,3.3966,3.4196,3.4563,3.5328,3.6327,3.7196,3.8141,3.9256,3.9961,4.0156,4.0195,4.0369,4.0678,4.0813,4.0988,4.1339,4.1762,4.2149,4.2427,4.2774,4.2943,4.2698,4.2829,4.2981,4.2981,4.3132,4.3428,4.3842,4.3967,4.3822,3.7193,3.7193,3.7193,3.6547,3.5537,3.5895,3.5556,3.4923,0.0,0.0,0.0,3.7525,3.7877,3.8253,3.7591,3.7281,3.7239,3.6494,3.6763,3.7839,3.786,3.8502,3.9571,3.9592,3.9951,4.0468,4.082,4.1276,4.1814,4.2124,4.2384,4.2447,4.2384,4.2322,4.2322,4.2322,4.1338,3.9558,3.9578,4.0199,4.1276,4.1089,4.0406,3.9206,3.846,3.7446,3.6163,3.5749,3.55,3.5418,3.5066,3.5085,3.5376,3.4921,3.4817,3.5128,3.5066,3.5707,3.7156,3.7301,3.7856,3.9316,3.9412,3.8691,3.7074,3.8269,3.9729,4.1369,4.0781,4.0248,4.0115,3.9218,3.8477,3.8119,3.6863,3.6087,3.6092,3.5028,3.4239,3.4289,3.3776,3.3286,3.2554,3.2679,3.267,3.1847,3.2647,3.3553,3.3342,3.4304,3.5799,3.744,3.8783,3.9816,4.0451,4.0644,4.082,4.1172,4.125,4.1308,4.1465,4.1777,4.2011,4.2148,4.2299,4.2402,4.2059,4.2255,4.2304,4.2379,4.2604,4.2932,4.3366,4.3491,4.3408,3.3411,3.3393,3.3411,3.3302,3.3244,3.4853,3.6397,3.7678,3.6302,3.5929,3.6348,3.7632,3.835,3.8703,3.904,3.9144,3.9075,3.8951,3.9081,3.9247,3.9247,3.9488,4.0116,4.0137,4.0572,4.1338,4.1441,4.1897,4.2621,4.2414,4.2456,4.2745,4.2456,4.2343,4.2322,4.2322,4.2177,4.1772,4.0675,4.0199,4.0406,3.9268,3.8378,3.7819,3.7736,3.7136,3.6163,3.6101,3.5832,3.5459,3.5355,3.6039,3.757,3.7281,3.7715,3.9185,3.8999,3.8895,3.9123,3.9144,3.9131,3.9032,3.905,3.9343,4.015,4.0165,4.0382,4.1015,4.0651,4.0064,3.9453,3.9116,3.8258,3.6848,3.6294,3.5806,3.4717,3.343,3.2746,3.2986,3.1842,3.1415,3.1983,3.1022,3.0805,3.1605,3.1461,3.0811,3.1629,3.358,3.5991,3.7819,3.8559,3.94,4.0453,4.1074,4.123,4.1641,4.168,4.1777,4.209,4.2447,4.2685,4.2843,4.2795,4.2738,4.2612,4.2474,4.2295,4.2212,4.2266,4.2538,4.2939,4.3063,4.3221,3.2932,3.3109,3.3056,3.3056,3.3145,3.4035,3.4929,3.5627,3.4639,3.5423,3.7313,3.8057,3.847,3.8588,3.8303,3.818,3.8092,3.7852,3.8227,3.9219,3.9399,4.0179,4.1255,4.1338,4.1545,4.1938,4.2186,4.2518,4.289,4.2952,4.3097,4.3284,4.3077,4.2994,4.2994,4.2994,4.2994,4.2973,4.2124,4.1669,4.169,4.1069,4.0655,4.0448,4.022,3.9889,3.9475,3.9206,3.9081,3.9144,3.8874,3.9247,4.0303,3.9951,4.0075,4.0862,4.053,4.0261,4.0261,4.005,3.9768,3.9415,3.9383,3.9306,3.934,4.0372,4.1124,4.1306,4.0259,3.9534,3.9445,3.7705,3.6586,3.6787,3.5386,3.4189,3.3638,3.2265,3.1295,3.1417,3.0743,3.0351,3.0911,3.02,2.9916,3.0801,3.0387,3.0261,3.0539,3.1899,3.3629,3.546,3.7357,3.8803,3.9707,4.0666,4.1269,4.1738,4.1797,4.1973,4.2324,4.2602,4.2583,4.2447,4.2367,4.2106,4.1805,4.167,4.1534,4.1306,4.1657,4.2125,4.2775,4.3504,4.3946,3.2091,3.2278,3.2278,3.2475,3.2836,3.2926,3.3106,3.3486,3.3284,3.4794,3.7364,3.7771,3.7916,3.7927,3.7717,3.7674,3.7722,3.7455,3.8146,3.9473,3.9947,4.0965,4.229,4.2414,4.2456,4.258,4.2911,4.3118,4.3263,4.3491,4.3615,4.3615,4.3615,4.3615,4.3615,4.3615,4.3615,4.3594,4.3263,4.3077,4.3077,4.3077,4.3014,4.2911,4.258,4.2447,4.2322,4.199,4.197,4.2281,4.1917,4.1876,4.2281,4.2021,4.1835,4.171,4.141,4.109,4.0761,4.0381,4.008,3.9871,3.9978,3.9761,3.9125,4.0316,4.1203,4.0715,3.903,3.8266,3.8574,3.6348,3.4865,3.5952,3.4175,3.276,3.2554,3.1302,3.0393,3.0393,3.0173,3.0064,2.9968,2.991,2.9976,3.0079,3.0246,3.0451,3.0481,3.0685,3.1467,3.2854,3.543,3.7596,3.8408,3.9629,4.078,4.1561,4.1894,4.2148,4.248,4.2656,4.2558,4.2345,4.2092,4.1758,4.1071,4.0983,4.0972,4.0823,4.1137,4.1793,4.28,4.389,4.4654,2.8715,2.8401,2.8657,2.944,3.1061,3.1077,3.2008,3.3481,3.3648,3.4118,3.5044,3.5962,3.6466,3.6971,3.8576,3.947,3.9903,4.0358,4.0727,4.129,4.1853,4.2311,4.2828,4.2849,4.3077,4.3408,4.3511,4.3698,4.4029,4.376,4.3615,4.3615,4.3615,4.3615,4.3615,4.3615,4.3615,4.3615,4.3573,4.3553,4.3553,4.3553,4.3346,4.2932,4.289,4.2663,4.2405,4.2302,4.2228,4.2322,4.2228,4.2281,4.2311,4.258,4.2621,4.2249,4.2146,4.1651,4.0585,4.0118,3.9983,4.0345,4.06,4.0937,4.1054,4.0424,3.9528,3.8372,3.6749,3.6375,3.7221,3.5667,3.3987,3.3267,3.265,3.1947,3.1003,3.0527,3.0466,3.0759,3.0451,3.0387,3.0328,3.0167,3.0027,3.0357,3.0539,3.0715,3.0729,3.0773,3.0817,3.1316,3.2772,3.5187,3.7596,3.8645,3.9798,4.1384,4.2109,4.2441,4.2812,4.3183,4.3418,4.2637,4.2466,4.2014,4.1616,4.1367,4.0998,4.1118,4.1249,4.1575,4.2708,4.3878,4.4506,2.9032,2.9076,2.9076,2.9542,3.0212,3.0487,3.1035,3.1714,3.1933,3.2167,3.2597,3.3855,3.4943,3.5887,3.7502,3.8404,3.8632,4.0018,4.1022,4.1629,4.212,4.2665,4.3284,4.3325,4.3428,4.3594,4.3615,4.3698,4.3842,4.3698,4.3615,4.3615,4.3615,4.3615,4.3615,4.3615,4.3615,4.3615,4.3615,4.3615,4.3615,4.3615,4.3532,4.3346,4.3325,4.3263,4.3056,4.2807,4.2766,4.3014,4.2807,4.2787,4.3056,4.3221,4.3091,4.27,4.222,4.1641,4.0883,4.042,4.0117,4.0089,3.9319,3.8583,3.7716,3.647,3.5502,3.5078,3.4592,3.4752,3.5409,3.3588,3.2201,3.2393,3.1903,3.1205,3.0763,3.0466,3.0504,3.051,3.0422,3.0431,3.0446,3.0407,3.0481,3.0627,3.0759,3.0832,3.0832,3.0817,3.0817,3.09,3.1467,3.3249,3.6316,3.7993,3.9384,4.1108,4.1933,4.2246,4.2871,4.291,4.2871,4.2715,4.2366,4.1916,4.1464,4.1363,4.1181,4.145,4.2564,4.3258,4.407,4.4831,4.5525,2.9778,3.0079,3.0086,3.0129,3.0144,3.0378,3.0481,3.051,3.0729,3.092,3.1164,3.2296,3.3375,3.462,3.6631,3.7609,3.7859,3.9912,4.131,4.1895,4.2317,4.2805,4.3398,4.3351,4.3371,4.3648,4.3669,4.3731,4.3967,4.3987,4.3987,4.3987,4.3987,4.3987,4.3987,4.3987,4.3987,4.3987,4.3987,4.3987,4.3987,4.3863,4.3739,4.3635,4.3615,4.3615,4.3615,4.3153,4.3174,4.353,4.3166,4.3131,4.3582,4.3828,4.3878,4.3528,4.2531,4.1725,4.1322,4.0312,3.9679,3.9453,3.8102,3.6798,3.5669,3.4294,3.3397,3.3447,3.3148,3.3301,3.393,3.2015,3.119,3.2007,3.1347,3.0817,3.0803,3.0598,3.0495,3.0481,3.0525,3.0481,3.051,3.0656,3.0788,3.0803,3.089,3.0949,3.0978,3.1037,3.111,3.1095,3.1095,3.2478,3.5335,3.6877,3.8811,4.0856,4.1699,4.2031,4.2656,4.2461,4.2324,4.2324,4.1992,4.168,4.1367,4.123,4.1444,4.2148,4.3134,4.431,4.469,4.5589,4.6041,3.0401,3.0378,3.0656,3.0788,3.0788,3.0817,3.0817,3.0876,3.0876,3.1198,3.1681,3.1616,3.1807,3.2823,3.6457,3.8292,3.8548,4.0877,4.2092,4.223,4.2759,4.3014,4.2994,4.2668,4.2941,4.3714,4.3735,4.4095,4.4857,4.4898,4.494,4.4898,4.4857,4.4898,4.4857,4.4836,4.4898,4.4758,4.4836,4.4877,4.4836,4.4484,4.407,4.3663,4.3615,4.3615,4.3539,4.3213,4.3188,4.3616,4.3207,4.3273,4.3737,4.4402,4.4802,4.4631,4.326,4.221,4.1483,3.9556,3.8301,3.8451,3.7548,3.7173,3.6943,3.5317,3.4292,3.4282,3.2479,3.2055,3.2972,3.1759,3.0842,3.0925,3.0871,3.0817,3.0817,3.0788,3.0803,3.0773,3.0759,3.0744,3.0773,3.0803,3.0846,3.0905,3.1081,3.1256,3.1315,3.152,3.1622,3.1666,3.1893,3.2692,3.5307,3.6085,3.7677,3.9655,4.0807,4.1618,4.1893,4.207,4.2031,4.1973,4.1797,4.1582,4.1289,4.1406,4.1699,4.2347,4.3138,4.4134,4.4978,4.5391,4.588,3.1271,3.1285,3.1402,3.1446,3.1476,3.1666,3.1754,3.1783,3.1973,3.2193,3.2368,3.2295,3.2383,3.2749,3.5365,3.6259,3.6171,3.9222,4.0768,4.1208,4.2721,4.344,4.3438,4.3577,4.3794,4.4028,4.4127,4.4424,4.496,4.5002,4.5002,4.5002,4.5002,4.5002,4.5002,4.5002,4.4902,4.4588,4.4824,4.4844,4.4608,4.4679,4.4494,4.4075,4.3521,4.3233,4.3233,4.3058,4.3049,4.321,4.3315,4.3557,4.3679,4.3979,4.4335,4.4469,4.3512,4.2275,4.0965,3.977,3.859,3.7532,3.6191,3.542,3.5233,3.3869,3.2598,3.2294,3.1687,3.1351,3.1443,3.115,3.0817,3.0817,3.0817,3.0817,3.0817,3.0817,3.0817,3.0817,3.0817,3.0817,3.0817,3.0817,3.0905,3.1081,3.1066,3.1212,3.1505,3.1578,3.1622,3.1754,3.1883,3.2549,3.4593,3.4996,3.5808,3.7742,3.9149,3.9894,4.0452,4.1185,4.1306,4.1758,4.1641,4.1523,4.1269,4.1581,4.1914,4.2702,4.3517,4.4337,4.5242,4.5675,4.5961,3.1959,3.1973,3.2076,3.212,3.2134,3.2339,3.2441,3.2471,3.2676,3.2763,3.2793,3.288,3.2924,3.3117,3.4329,3.4674,3.4713,3.8397,4.0428,4.0859,4.2794,4.3714,4.3698,4.3678,4.384,4.4119,4.44,4.47,4.4959,4.5039,4.5039,4.506,4.5039,4.5039,4.5039,4.5039,4.48,4.462,4.4859,4.48,4.462,4.4737,4.4655,4.4256,4.3592,4.3207,4.3241,4.3114,4.3119,4.3259,4.338,4.3679,4.3877,4.3931,4.4123,4.4439,4.3162,4.1928,4.051,3.898,3.7439,3.6225,3.4742,3.3716,3.3599,3.2408,3.1678,3.1446,3.1168,3.0964,3.0876,3.092,3.0934,3.0861,3.0817,3.0817,3.0817,3.0817,3.0817,3.0817,3.0817,3.0817,3.0817,3.0817,3.0978,3.1256,3.1183,3.1388,3.1783,3.19,3.1841,3.2061,3.2149,3.2597,3.3628,3.387,3.4999,3.6824,3.7585,3.8291,3.9373,4.0122,4.0917,4.1366,4.1543,4.1426,4.1523,4.1757,4.2347,4.3158,4.3837,4.4521,4.5248,4.5797,4.6042,3.228,3.2324,3.2632,3.2705,3.269,3.2705,3.2763,3.2778,3.2793,3.2837,3.2924,3.3129,3.3246,3.3305,3.3676,3.3747,3.4698,3.8767,4.0831,4.0965,4.2618,4.338,4.339,4.2806,4.2994,4.3877,4.4621,4.4985,4.5027,4.5006,4.5006,4.4985,4.5006,4.5048,4.5005,4.5006,4.4965,4.4945,4.4986,4.4945,4.4904,4.4684,4.4482,4.4321,4.3958,4.3779,4.3719,4.34,4.3359,4.3575,4.3349,4.3578,4.4146,4.4135,4.4408,4.4168,4.2321,4.1005,4.0289,3.6964,3.5016,3.4287,3.3183,3.251,3.2481,3.2278,3.1973,3.1695,3.1432,3.1168,3.0964,3.1139,3.1198,3.0905,3.0876,3.0876,3.0861,3.0832,3.0832,3.0846,3.0876,3.0846,3.0846,3.0978,3.1183,3.1461,3.1637,3.1885,3.2266,3.2456,3.2676,3.2705,3.2661,3.2896,3.2867,3.297,3.4635,3.6022,3.6274,3.6895,3.823,3.9283,4.0401,4.105,4.1855,4.1777,4.1797,4.2073,4.2625,4.332,4.4,4.4623,4.5311,4.5799,4.5982,3.2617,3.2632,3.2719,3.2763,3.2763,3.2763,3.288,3.3085,3.31,3.3217,3.3422,3.3539,3.3583,3.3597,3.3685,3.3846,3.4297,3.6916,3.8008,3.8157,3.9895,4.1312,4.1835,4.1863,4.2621,4.4028,4.472,4.4964,4.4984,4.4984,4.4984,4.4984,4.4984,4.4984,4.4964,4.4964,4.4882,4.4616,4.4882,4.4882,4.4616,4.4742,4.4681,4.4457,4.4551,4.4486,4.4222,4.4037,4.3856,4.3719,4.3891,4.3984,4.3696,4.2721,4.2106,4.2012,4.0287,3.8426,3.7261,3.5783,3.4143,3.3198,3.2291,3.2045,3.1915,3.1768,3.1622,3.149,3.1359,3.1256,3.1242,3.1446,3.1505,3.1198,3.1154,3.1154,3.1139,3.0978,3.0949,3.111,3.1154,3.1256,3.1476,3.1607,3.1856,3.212,3.2193,3.231,3.2763,3.2778,3.2778,3.2763,3.2895,3.2954,3.2837,3.2749,3.358,3.4767,3.5148,3.6174,3.7456,3.8932,4.0048,4.1103,4.1832,4.2226,4.2246,4.2521,4.3096,4.3415,4.3977,4.4642,4.5373,4.5759,4.5821,3.2763,3.2763,3.2763,3.2763,3.2763,3.2763,3.288,3.3056,3.3071,3.3188,3.3363,3.3495,3.3554,3.3568,3.3671,3.3846,3.4099,3.5061,3.5311,3.5655,3.8763,4.0532,4.131,4.2059,4.2881,4.3915,4.439,4.4554,4.4554,4.4534,4.4534,4.4534,4.4554,4.4452,4.4554,4.4554,4.437,4.4205,4.437,4.437,4.4205,4.437,4.4469,4.4482,4.4793,4.494,4.4844,4.5019,4.4824,4.4227,4.3933,4.3235,4.2077,4.0916,4.0193,3.9671,3.8255,3.6707,3.5581,3.4713,3.3675,3.2527,3.209,3.1988,3.1929,3.1681,3.1534,3.1651,3.1563,3.149,3.1534,3.1783,3.1856,3.171,3.1563,3.1505,3.1461,3.1315,3.1285,3.1446,3.149,3.1607,3.1798,3.2076,3.2339,3.2529,3.2529,3.2529,3.2924,3.288,3.2822,3.2793,3.2851,3.2851,3.2793,3.2749,3.2705,3.3403,3.4119,3.56,3.711,3.893,4.0428,4.1698,4.2598,4.2812,4.2891,4.3203,4.366,4.3864,4.4166,4.4872,4.5606,4.5593,4.5757,3.2763,3.2763,3.2763,3.2763,3.2763,3.2763,3.2807,3.2837,3.2837,3.291,3.2983,3.3261,3.3334,3.3273,3.3627,3.3758,3.3729,3.3776,3.3781,3.4855,3.802,4.0611,4.105,4.2618,4.3584,4.3711,4.3793,4.3774,4.3876,4.3876,4.3691,4.3793,4.3876,4.375,4.3954,4.375,4.3813,4.3891,4.3833,4.3793,4.3793,4.3852,4.4028,4.4355,4.4635,4.4853,4.5077,4.5222,4.5251,4.474,4.3491,4.19,3.9858,3.9154,3.8797,3.8253,3.6475,3.5637,3.5009,3.3955,3.2837,3.2485,3.2295,3.2266,3.2134,3.19,3.1827,3.2046,3.1929,3.1827,3.1885,3.212,3.2266,3.2266,3.2002,3.1827,3.1798,3.1754,3.1739,3.1783,3.1827,3.1856,3.1944,3.2222,3.2398,3.2485,3.2676,3.2837,3.288,3.291,3.2822,3.2822,3.288,3.2866,3.2822,3.2763,3.2822,3.3057,3.392,3.552,3.7383,3.9364,4.1227,4.2433,4.3164,4.3379,4.3652,4.3965,4.4238,4.4498,4.4901,4.547,4.5624,4.5557,4.5936,3.2763,3.2763,3.2763,3.2763,3.2763,3.2763,3.291,3.31,3.3115,3.3217,3.3436,3.3568,3.3539,3.3612,3.3656,3.3729,3.3641,3.3466,3.3349,3.3561,3.5676,3.7893,3.9572,4.2318,4.3711,4.373,4.3769,4.3691,4.3691,4.3769,4.375,4.3691,4.3789,4.3906,4.4121,4.3906,4.3906,4.4101,4.3867,4.373,4.3789,4.3979,4.4258,4.435,4.369,4.3479,4.3509,4.2748,4.2892,4.3611,4.3346,4.2121,3.9847,3.835,3.7443,3.6949,3.5401,3.4157,3.4023,3.3486,3.2968,3.2661,3.2398,3.2178,3.1944,3.1856,3.1841,3.1959,3.2017,3.2149,3.2207,3.2441,3.2602,3.2602,3.2339,3.2076,3.19,3.1812,3.1885,3.209,3.2149,3.2251,3.2456,3.2719,3.291,3.2924,3.2997,3.3056,3.3012,3.2997,3.2939,3.2895,3.291,3.2895,3.2866,3.2807,3.2837,3.3087,3.4119,3.5698,3.7891,4.0262,4.2106,4.3848,4.3887,4.4062,4.4414,4.4746,4.5,4.5195,4.5241,4.549,4.5693,4.5728,4.6129,3.2763,3.2763,3.2763,3.2763,3.2793,3.291,3.2997,3.3071,3.3202,3.3261,3.3334,3.3319,3.3319,3.3334,3.3319,3.3334,3.329,3.3129,3.3056,3.3279,3.485,3.6983,3.9568,4.2664,4.4004,4.4023,4.416,4.4258,4.4277,4.4258,4.4258,4.4297,4.4258,4.4414,4.4609,4.4433,4.4375,4.457,4.4375,4.4258,4.4297,4.363,4.3538,4.3348,4.2426,4.1639,4.187,4.1544,4.1419,4.1476,4.1292,4.0486,3.8469,3.7055,3.6021,3.5776,3.4438,3.3671,3.3524,3.3334,3.3027,3.2646,3.2354,3.2222,3.2061,3.2002,3.2017,3.2237,3.2398,3.2471,3.2515,3.2676,3.2749,3.2734,3.2602,3.2412,3.2222,3.2237,3.2295,3.2427,3.25,3.2544,3.2763,3.3041,3.3115,3.31,3.3115,3.3085,3.3041,3.3056,3.3041,3.2939,3.288,3.2851,3.2837,3.2793,3.2763,3.3014,3.4257,3.5859,3.8132,4.0566,4.2366,4.3857,4.4311,4.4726,4.4961,4.5273,4.5644,4.5723,4.5586,4.5613,4.5937,4.6081,4.6486,3.2837,3.2866,3.2866,3.2866,3.2939,3.3173,3.3217,3.3041,3.3232,3.3232,3.3085,3.2939,3.3056,3.2866,3.3115,3.2924,3.288,3.2939,3.2895,3.3442,3.4896,3.7181,3.973,4.187,4.3327,4.3779,4.4504,4.4732,4.4694,4.4941,4.498,4.4902,4.4922,4.5039,4.5039,4.5,4.5058,4.5051,4.445,4.4307,4.4004,4.2858,4.2033,4.2006,4.0663,3.9869,4.0134,4.0307,4.0137,3.87,3.8892,3.8193,3.6334,3.5508,3.5053,3.4676,3.4246,3.3788,3.3466,3.3451,3.3115,3.2632,3.2471,3.2354,3.2354,3.2339,3.2427,3.2632,3.2763,3.2719,3.2734,3.2763,3.2763,3.2778,3.2778,3.2822,3.2822,3.2793,3.2763,3.2763,3.2763,3.2763,3.2837,3.2968,3.31,3.2939,3.2997,3.2983,3.2924,3.2895,3.288,3.2822,3.2793,3.2778,3.2778,3.2763,3.2763,3.3029,3.4391,3.6107,3.8152,4.0384,4.2205,4.3465,4.4052,4.4609,4.5176,4.5566,4.6016,4.6152,4.5957,4.6268,4.6734,4.6657,4.6861,3.329,3.3524,3.3524,3.3524,3.3539,3.3597,3.3715,3.3846,3.3685,3.3671,3.3788,3.3627,3.351,3.351,3.3436,3.3393,3.3129,3.31,3.3144,3.3442,3.5351,3.6482,3.7832,3.9235,4.0916,4.2205,4.2679,4.3547,4.4613,4.5137,4.4973,4.5012,4.4892,4.5129,4.525,4.4856,4.541,4.5502,4.3906,4.3063,4.29,4.1408,4.0292,4.0269,3.8853,3.7721,3.697,3.6913,3.6765,3.693,3.7857,3.7913,3.6407,3.5588,3.5207,3.509,3.471,3.4314,3.4051,3.3769,3.3609,3.2923,3.2645,3.2924,3.2676,3.2602,3.2661,3.2763,3.2763,3.2749,3.2807,3.2778,3.2837,3.2895,3.3012,3.3144,3.31,3.2939,3.2851,3.2793,3.2793,3.2763,3.2778,3.2807,3.2851,3.2793,3.2807,3.2837,3.2807,3.2778,3.2763,3.2763,3.2763,3.2763,3.2763,3.2763,3.2763,3.2852,3.4055,3.551,3.7569,3.9551,4.121,4.2659,4.3783,4.445,4.5195,4.5723,4.6152,4.623,4.6308,4.6396,4.6619,4.6828,4.7115,3.3583,3.3729,3.3729,3.3729,3.3729,3.3729,3.3832,3.3934,3.3817,3.3817,3.3934,3.3788,3.3729,3.3715,3.3583,3.3393,3.3246,3.3085,3.3012,3.3249,3.4366,3.4967,3.5346,3.6469,3.8408,4.1704,4.2692,4.3815,4.5087,4.5452,4.5242,4.4572,4.4466,4.3974,4.377,4.3567,4.3374,4.3357,4.2478,4.1639,4.1461,3.983,3.8126,3.7611,3.6698,3.5949,3.5625,3.5462,3.5492,3.5753,3.6348,3.658,3.584,3.5265,3.5073,3.5009,3.4733,3.4158,3.3775,3.3307,3.2826,3.2215,3.2043,3.1885,3.1741,3.1698,3.1974,3.2149,3.2295,3.2367,3.2954,3.3173,3.3202,3.3246,3.3349,3.3375,3.3436,3.3319,3.3144,3.3056,3.3012,3.291,3.2851,3.2778,3.2763,3.2778,3.2778,3.2807,3.2793,3.2763,3.2763,3.2763,3.2763,3.2763,3.2763,3.2763,3.2763,3.2852,3.3279,3.4566,3.6102,3.81,4.001,4.156,4.3253,4.44,4.5117,4.5683,4.6113,4.625,4.6289,4.6308,4.6464,4.6734,4.7081,3.3758,3.3802,3.3802,3.3802,3.3817,3.3875,3.3963,3.3993,3.389,3.4022,3.3934,3.3905,3.3978,3.3861,3.3758,3.3568,3.3524,3.3393,3.3451,3.3468,3.3838,3.4211,3.4374,3.5059,3.704,4.1675,4.2334,4.3741,4.5121,4.5695,4.451,4.3686,4.3398,4.2908,4.1827,4.1594,4.1793,4.1729,4.092,4.04,3.994,3.83,3.6375,3.5491,3.5054,3.5138,3.5178,3.5029,3.4932,3.5023,3.4421,3.413,3.4255,3.4502,3.4631,3.4316,3.4082,3.3576,3.2995,3.2384,3.1791,3.0941,3.0702,3.059,3.0705,3.0803,3.1133,3.1478,3.1825,3.2306,3.3113,3.3466,3.3641,3.3685,3.3715,3.3729,3.3729,3.3729,3.3524,3.3261,3.3056,3.291,3.2837,3.2763,3.2763,3.2763,3.2763,3.2763,3.2763,3.2763,3.2763,3.2763,3.2763,3.2763,3.2763,3.2763,3.2763,3.2852,3.3029,3.3792,3.5074,3.7139,3.9228,4.1115,4.2612,4.3941,4.498,4.5449,4.582,4.6113,4.6289,4.6308,4.6483,4.6658,4.7094,3.389,3.4139,3.4139,3.4139,3.4183,3.4417,3.4622,3.4841,3.4578,3.468,3.4827,3.4651,3.4519,3.4549,3.4783,3.4812,3.4607,3.4446,3.4402,3.4314,3.4519,3.4666,3.4461,3.4642,3.6236,3.8229,4.0101,4.2031,4.3478,4.3763,4.3,4.1818,4.1556,4.1286,4.1238,4.1459,4.1067,4.0735,3.9576,3.8727,3.8273,3.676,3.5335,3.471,3.471,3.4856,3.4981,3.4731,3.4425,3.4309,3.3727,3.3229,3.3009,3.331,3.3577,3.3662,3.335,3.2824,3.2275,3.1798,3.1211,3.073,3.0447,3.0545,3.0685,3.0769,3.0765,3.1366,3.1902,3.2606,3.3142,3.3551,3.3729,3.3758,3.3773,3.3744,3.3744,3.3671,3.3568,3.329,3.3056,3.2866,3.2807,3.2763,3.2763,3.2763,3.2763,3.2763,3.2763,3.2763,3.2763,3.2763,3.2763,3.2763,3.2763,3.2763,3.2763,3.2763,3.294,3.3117,3.4566,3.6621,3.8614,4.0741,4.2526,4.3981,4.4766,4.5195,4.5547,4.5859,4.6074,4.6289,4.6396,4.6571,4.692,3.3919,3.4197,3.4036,3.4168,3.4432,3.4446,3.4636,3.4871,3.4768,3.4783,3.49,3.4914,3.4944,3.5002,3.509,3.509,3.4988,3.4914,3.4827,3.4783,3.5002,3.5002,3.4768,3.4856,3.5985,3.7454,3.8661,4.0027,4.1761,4.1851,4.1062,4.0141,3.9775,3.949,3.9069,3.8827,3.9037,3.8717,3.7877,3.7028,3.6955,3.5291,3.4833,3.471,3.471,3.4783,3.474,3.4546,3.4236,3.4018,3.3475,3.2878,3.2609,3.2504,3.2679,3.2859,3.2645,3.2239,3.1651,3.1173,3.0677,3.0041,2.9822,2.9795,2.9891,2.9959,3.0354,3.1034,3.2152,3.2933,3.3302,3.3823,3.4124,3.4022,3.3949,3.3861,3.3729,3.3583,3.3393,3.3232,3.3144,3.2983,3.2793,3.2763,3.2763,3.2763,3.2763,3.2763,3.2763,3.2763,3.2763,3.2763,3.2763,3.2763,3.2763,3.2763,3.2763,3.2763,3.2852,3.3029,3.4303,3.6535,3.8597,4.0668,4.234,4.4057,4.4512,4.4922,4.5273,4.5644,4.5957,4.6211,4.6269,4.6483,4.6745,3.3919,3.4197,3.4007,3.4256,3.471,3.4607,3.468,3.4856,3.4929,3.4929,3.4929,3.5134,3.5266,3.531,3.5339,3.5295,3.5075,3.5149,3.5163,3.5119,3.5207,3.5119,3.4944,3.5088,3.5637,3.6436,3.6961,3.8051,3.9573,3.9937,3.9145,3.8228,3.7898,3.7556,3.6803,3.7064,3.6334,3.6217,3.61,3.5778,3.5251,3.4776,3.4551,3.4609,3.4515,3.4436,3.4348,3.3996,3.3767,3.345,3.3062,3.2559,3.2358,3.2091,3.1894,3.1838,3.1974,3.1551,3.1166,3.0581,3.0076,2.9488,2.9152,2.9098,2.9279,2.9602,2.9839,3.076,3.2056,3.3014,3.3335,3.4094,3.4266,3.4139,3.3993,3.3905,3.3597,3.3378,3.3173,3.31,3.3158,3.3041,3.2822,3.2763,3.2763,3.2763,3.2763,3.2763,3.2763,3.2763,3.2763,3.2763,3.2763,3.2763,3.2763,3.2763,3.2763,3.2763,3.2852,3.3029,3.4653,3.6535,3.8511,4.021,4.2466,4.3945,4.4297,4.4609,4.4961,4.5371,4.5859,4.6152,4.625,4.6376,4.6551,3.3919,3.4241,3.4475,3.4797,3.5119,3.5324,3.5566,3.5581,3.55,3.5625,3.5456,3.5558,3.5602,3.5705,3.5924,3.6129,3.6261,3.609,3.5944,3.574,3.5564,3.5316,3.5105,3.4827,3.4812,3.5241,3.5148,3.6143,3.7375,3.7819,3.7148,3.6171,3.6155,3.5897,3.5798,3.6065,3.6422,3.6158,3.5988,3.5681,3.5127,3.437,3.4182,3.4231,3.4003,3.377,3.3756,3.3462,3.3065,3.2763,3.2259,3.1933,3.173,3.149,3.1343,3.1249,3.1114,3.0907,3.0627,3.0191,2.9743,2.9339,2.9152,2.9205,2.9467,2.9974,3.0396,3.0971,3.2239,3.3028,3.3292,3.3848,3.3974,3.3846,3.3612,3.348,3.3261,3.3173,3.2968,3.2924,3.2954,3.291,3.2763,3.2763,3.2763,3.2763,3.2763,3.2763,3.2763,3.2763,3.2763,3.2763,3.2763,3.2763,3.2763,3.2763,3.2763,3.2763,3.294,3.3029,3.4319,3.5928,3.7552,3.9515,4.1909,4.3628,4.3965,4.4277,4.4648,4.5098,4.5605,4.5976,4.625,4.6376,4.6464,3.4519,3.4505,3.4651,3.4988,3.5522,3.5684,3.5742,3.5772,3.5836,3.5807,3.5705,3.5851,3.61,3.6407,3.6626,3.6729,3.6732,3.6402,3.6045,3.5759,3.5359,3.4961,3.455,3.425,3.4064,3.4001,3.3807,3.3959,3.4955,3.5632,3.5405,3.4915,3.4818,3.4895,3.4857,3.5021,3.5064,3.4935,3.4792,3.4578,3.4293,3.3832,3.361,3.3766,3.3496,3.3387,3.3225,3.3078,3.29,3.2613,3.2325,3.2078,3.1904,3.165,3.1436,3.1196,3.0782,3.0617,3.0465,3.0124,2.978,2.9606,2.9526,2.9708,3.0007,3.0204,3.0758,3.1742,3.2246,3.2768,3.3214,3.3848,3.3769,3.3507,3.3169,3.3127,3.2996,3.291,3.2793,3.2778,3.2793,3.2837,3.2866,3.2837,3.2807,3.2763,3.2763,3.2763,3.2763,3.2763,3.2763,3.2763,3.2763,3.2763,3.2763,3.2763,3.2763,3.2852,3.294,3.3205,3.3719,3.5074,3.738,3.9345,4.1658,4.2863,4.3502,4.4043,4.4492,4.4941,4.5371,4.5742,4.6094,4.6289,4.6483,3.5266,3.5061,3.5061,3.5383,3.588,3.5895,3.5895,3.5924,3.6144,3.6144,3.6129,3.6167,3.6489,3.6708,3.6666,3.6637,3.655,3.6034,3.5692,3.5338,3.4998,3.4521,3.4268,3.4001,3.3749,3.3387,3.3548,3.3516,3.3469,3.3679,3.4139,3.3856,3.387,3.3946,3.3886,3.4015,3.421,3.4309,3.4041,3.3929,3.3777,3.3264,3.3141,3.3155,3.3047,3.2869,3.2841,3.2694,3.2545,3.2219,3.211,3.1757,3.1623,3.1423,3.1263,3.1022,3.0635,3.0408,3.0378,3.0194,3.0127,2.9993,2.9913,2.9936,3.0245,3.0236,3.0465,3.1634,3.2133,3.2563,3.2888,3.3271,3.3153,3.2985,3.2887,3.2861,3.2967,3.2981,3.3115,3.3188,3.3173,3.3041,3.3027,3.2939,3.2866,3.2793,3.2763,3.2763,3.2763,3.2763,3.2763,3.2763,3.2763,3.2763,3.2763,3.2763,3.2763,3.294,3.3029,3.319,3.3631,3.5771,3.8494,4.0295,4.1677,4.2914,4.3965,4.416,4.4355,4.4707,4.5078,4.5566,4.5918,4.6152,4.6483,3.6041,3.6027,3.5997,3.6187,3.6509,3.6539,3.6524,3.6352,3.6425,3.6586,3.6676,3.6767,3.6404,3.6213,3.6199,3.6071,3.5688,3.5559,3.5349,3.4983,3.4703,3.4338,3.4144,3.3963,3.3782,3.3698,3.3366,3.3322,3.332,3.2957,3.285,3.2513,3.2892,3.2906,3.2915,3.3088,3.3531,3.3643,3.3503,3.3627,3.3421,3.305,3.2736,3.2886,3.253,3.204,3.188,3.188,3.1692,3.1275,3.1236,3.1169,3.1116,3.0982,3.0875,3.0755,3.0501,3.0301,3.0261,3.0114,2.9967,2.9927,2.9913,3.0057,3.0344,3.0763,3.1022,3.1283,3.2066,3.2089,3.2111,3.1889,3.2358,3.2427,3.267,3.2865,3.3046,3.3405,3.3463,3.3627,3.3554,3.3378,3.329,3.3232,3.2939,3.2837,3.2778,3.2763,3.2763,3.2763,3.2763,3.2763,3.2763,3.2763,3.2763,3.2763,3.2763,3.3117,3.3279,3.3367,3.3455,3.6188,3.909,4.0421,4.1676,4.3021,4.4199,4.4355,4.4473,4.4512,4.4863,4.5625,4.6016,4.6211,4.6571,3.6407,3.6407,3.6013,3.6184,3.6612,3.6202,3.6103,3.6004,3.5805,3.5792,3.612,3.6385,3.642,3.6229,3.6201,3.6047,3.5651,3.5152,3.4816,3.4399,3.3926,3.3592,3.3415,3.3282,3.2844,3.2871,3.2735,3.2545,3.2341,3.2381,3.2178,3.2054,3.2088,3.171,3.1861,3.2136,3.245,3.2627,3.2613,3.26,3.2477,3.2327,3.2056,3.2218,3.2135,3.1677,3.145,3.1396,3.1142,3.0889,3.0782,3.0742,3.0702,3.0595,3.0528,3.0501,3.0261,3.014,3.0114,2.9993,2.9913,2.9913,2.994,3.0137,3.0573,3.0921,3.1522,3.1888,3.2198,3.2101,3.232,3.2329,3.2457,3.226,3.2387,3.2731,3.3196,3.3572,3.3784,3.3905,3.3788,3.3627,3.3583,3.3554,3.3202,3.2895,3.2822,3.2763,3.2763,3.2763,3.2763,3.2763,3.2763,3.2763,3.2763,3.2763,3.2763,3.319,3.3528,3.3631,3.388,3.6275,3.887,4.0202,4.1899,4.358,4.4492,4.4551,4.4687,4.4863,4.5351,4.6035,4.625,4.6308,4.659,3.6301,3.6103,3.5706,3.5905,3.6301,3.5805,3.5508,3.5508,3.521,3.5149,3.5452,3.6037,3.6225,3.6121,3.6017,3.5769,3.5246,3.4809,3.4449,3.4063,3.3606,3.3187,3.304,3.2866,3.275,3.2465,3.2372,3.2375,3.2294,3.2118,3.204,3.1853,3.1625,3.1476,3.1504,3.1463,3.1717,3.1877,3.1931,3.1851,3.1959,3.1812,3.1772,3.1772,3.161,3.1383,3.1183,3.1076,3.0862,3.0621,3.0488,3.0501,3.0448,3.0368,3.0247,3.0154,3.006,2.9913,2.9913,2.9913,2.9913,2.9913,3.0047,3.0442,3.0829,3.0993,3.1488,3.2013,3.2136,3.2109,3.2343,3.1991,3.2043,3.1969,3.2485,3.2832,3.3435,3.3813,3.3984,3.4154,3.4066,3.4051,3.3832,3.3758,3.3451,3.3144,3.3041,3.2924,3.2763,3.2763,3.2763,3.2763,3.2763,3.2763,3.2763,3.2763,3.2852,3.319,3.3543,3.388,3.4741,3.6966,3.8529,3.9715,4.1592,4.3868,4.4883,4.5078,4.5195,4.5332,4.582,4.6269,4.6387,4.6426,4.6669,3.5508,3.5011,3.5025,3.5323,3.5735,3.521,3.5039,3.5081,3.5037,3.5028,3.5171,3.5732,3.565,3.5426,3.5385,3.5116,3.4725,3.4412,3.4237,3.3902,3.3648,3.3601,3.3534,3.336,3.3013,3.324,3.3,3.2772,3.2772,3.2438,3.2198,3.2064,3.1919,3.1812,3.2051,3.2332,3.2576,3.2576,3.2398,3.2144,3.1877,3.1637,3.1543,3.1476,3.1343,3.1102,3.0875,3.0808,3.0568,3.0207,3.01,3.0087,3.006,3.0034,2.998,2.9953,2.994,2.9913,2.9913,2.9913,2.9927,2.9993,3.0167,3.0499,3.0633,3.0862,3.1276,3.1921,3.1638,3.145,3.1276,3.1248,3.1675,3.1981,3.2594,3.3115,3.3615,3.4074,3.4324,3.4388,3.4519,3.4549,3.4227,3.3949,3.3671,3.3436,3.329,3.3115,3.291,3.2851,3.288,3.2763,3.2763,3.2763,3.2763,3.2763,3.294,3.3279,3.3543,3.3807,3.5177,3.7311,3.8615,3.9443,4.1708,4.4504,4.5254,4.5644,4.5683,4.5723,4.5976,4.6308,4.6445,4.6592,4.6748,3.521,3.5025,3.4848,3.4931,3.5031,3.483,3.483,3.4798,3.4837,3.4931,3.4968,3.5359,3.528,3.5017,3.5057,3.4883,3.4429,3.4549,3.4402,3.3908,3.3721,3.3627,3.3547,3.3374,3.3173,3.3106,3.2986,3.2866,3.2737,3.2545,3.2519,3.2398,3.2171,3.2185,3.2078,3.2078,3.1957,3.1904,3.1757,3.1517,3.1276,3.1169,3.1116,3.1116,3.0982,3.0808,3.0555,3.0555,3.0314,2.998,2.9913,2.9913,2.9913,2.9913,2.9913,2.9913,2.9913,2.9913,2.9913,2.9927,3.002,3.0167,3.0314,3.0635,3.1129,3.1356,3.1597,3.1717,3.1677,3.1623,3.1543,3.184,3.223,3.2432,3.2929,3.3398,3.3938,3.4341,3.4622,3.4607,3.468,3.468,3.449,3.4314,3.4066,3.3875,3.3744,3.3436,3.3188,3.31,3.3071,3.2851,3.2763,3.2763,3.2763,3.2763,3.2763,3.3029,3.3367,3.3719,3.5423,3.7225,3.9132,4.019,4.2683,4.5058,4.5566,4.5976,4.6016,4.6113,4.623,4.6504,4.6777,4.6787,4.6679,3.4834,3.4757,3.4659,3.4483,3.4416,3.4497,3.4497,3.4483,3.4501,3.4509,3.4643,3.491,3.503,3.499,3.5044,3.487,3.4389,3.4482,3.4402,3.3908,3.3748,3.3681,3.3521,3.328,3.3227,3.3093,3.2986,3.2866,3.2746,3.2786,3.2612,3.2385,3.2291,3.2051,3.1944,3.1864,3.1824,3.1757,3.157,3.1303,3.1009,3.0822,3.0768,3.0702,3.0621,3.0555,3.0421,3.0314,3.0221,3.0007,2.9913,2.9913,2.9913,2.9913,2.9913,2.9913,2.9913,2.9913,2.9913,2.9913,3.0047,3.0301,3.0421,3.0768,3.1316,3.1463,3.1677,3.1837,3.1957,3.1864,3.1799,3.2138,3.2502,3.2691,3.3163,3.3728,3.4212,3.4616,3.471,3.471,3.471,3.471,3.471,3.4651,3.449,3.4344,3.4212,3.3861,3.351,3.3422,3.3305,3.3071,3.2895,3.2895,3.2851,3.2763,3.2763,3.2763,3.3117,3.3455,3.4231,3.5787,3.8387,4.0818,4.2469,4.4186,4.5638,4.6269,4.6191,4.6191,4.6269,4.6621,4.707,4.7061,4.6895,3.4565,3.4295,3.4322,3.4175,3.3975,3.4251,3.4122,3.3908,3.3921,3.4082,3.4362,3.4643,3.4776,3.5044,3.511,3.479,3.4389,3.4336,3.4162,3.3908,3.3694,3.3694,3.3627,3.3454,3.3267,3.3213,3.308,3.2812,3.2879,3.2478,3.2211,3.2038,3.1757,3.1597,3.157,3.157,3.1583,3.1463,3.1316,3.1009,3.0675,3.0635,3.0515,3.0408,3.0327,3.0327,3.0274,3.0261,3.014,3.0007,2.9913,2.9913,2.9913,2.9913,2.9913,2.9913,2.9913,2.9913,2.9913,2.9913,3.0074,3.0341,3.0608,3.0755,3.1009,3.141,3.1664,3.173,3.177,3.173,3.1772,3.2232,3.2611,3.3069,3.354,3.4024,3.4508,3.471,3.471,3.471,3.471,3.471,3.471,3.4695,3.468,3.4607,3.4446,3.43,3.3993,3.3788,3.3627,3.3259,3.3173,3.3056,3.2968,3.2851,3.2763,3.2763,3.2763,3.3117,3.3792,3.4731,3.7326,3.967,4.1536,4.3298,4.5512,4.6308,4.6289,4.6308,4.6308,4.6504,4.6894,4.7187,4.7209,3.4345,3.4336,3.4549,3.4469,3.4202,3.4068,3.4068,3.4162,3.4002,3.4042,3.4322,3.4402,3.4429,3.4282,3.4469,3.4322,3.4229,3.4162,3.4108,3.3921,3.3708,3.3654,3.3494,3.328,3.3133,3.3,3.2826,3.2572,3.2278,3.1917,3.1637,3.1436,3.1183,3.0982,3.0875,3.0835,3.0942,3.0996,3.0889,3.0608,3.0341,3.0247,3.0154,3.0114,3.0087,3.0087,3.0087,3.0074,2.998,2.994,2.9913,2.9913,2.9913,2.9913,2.9913,2.9913,2.9913,2.9913,2.9913,2.9913,3.0047,3.0341,3.0635,3.0902,3.1129,3.1396,3.165,3.1677,3.1677,3.1677,3.1853,3.2232,3.2705,3.3177,3.3648,3.4212,3.4601,3.471,3.471,3.471,3.471,3.471,3.471,3.471,3.4695,3.471,3.4651,3.4534,3.4417,3.4197,3.3949,3.3656,3.3466,3.3349,3.3115,3.2968,3.2851,3.2763,3.2807,3.291,3.3353,3.4591,3.6626,3.9198,4.2,4.4121,4.591,4.6308,4.6308,4.6308,4.6308,4.6484,4.6699,4.7051,4.7494,3.4496,3.4523,3.4683,3.4536,3.4122,3.3708,3.3694,3.3895,3.3774,3.3868,3.4135,3.4148,3.4108,3.4148,3.4269,3.4189,3.3948,3.4028,3.3961,3.3721,3.3694,3.348,3.324,3.3053,3.2933,3.2759,3.2532,3.2305,3.1931,3.141,3.1049,3.0862,3.0595,3.0381,3.0274,3.0274,3.0314,3.0341,3.0287,3.0087,2.998,2.9913,2.9913,2.9913,2.9913,2.9913,2.9913,2.9913,2.9913,2.9913,2.9913,2.9913,2.9913,2.9913,2.9913,2.9913,2.9913,2.9913,2.9913,2.9913,3.0087,3.0341,3.0635,3.0915,3.1196,3.1463,3.1597,3.1677,3.1677,3.1772,3.1948,3.2232,3.2705,3.3177,3.3742,3.4305,3.4508,3.471,3.471,3.471,3.471,3.471,3.471,3.471,3.471,3.471,3.471,3.4666,3.4592,3.4505,3.4256,3.3978,3.3788,3.3627,3.3363,3.3115,3.2968,3.291,3.2968,3.3072,3.322,3.4304,3.62,3.9556,4.3264,4.4919,4.6308,4.6308,4.6308,4.6308,4.6308,4.6387,4.666,4.707,4.7593,3.4723,3.4696,3.471,3.4362,3.3855,3.332,3.3227,3.34,3.344,3.3574,3.3814,3.3855,3.3961,3.4028,3.4095,3.4002,3.3828,3.3814,3.3681,3.3387,3.3387,3.3227,3.3013,3.2893,3.2666,3.2452,3.2185,3.1864,3.1717,3.1249,3.0728,3.0354,3.0127,2.9993,3.0007,2.998,3.0034,3.0047,3.0034,2.9953,2.994,2.9913,2.9913,2.9913,2.9913,2.9913,2.9913,2.9913,2.9913,2.9913,2.9913,2.9913,2.9913,2.9913,2.9913,2.9913,2.9913,2.9913,2.9913,2.9913,3.0127,3.0381,3.0635,3.0969,3.1289,3.1517,3.1637,3.1677,3.1677,3.1677,3.1853,3.2138,3.2516,3.3083,3.3648,3.4212,3.4601,3.471,3.471,3.471,3.471,3.471,3.471,3.471,3.471,3.471,3.471,3.471,3.4695,3.4666,3.4519,3.4256,3.4066,3.3861,3.3612,3.3363,3.3115,3.3056,3.3129,3.3144,3.3204,3.4307,3.58,3.949,4.3217,4.5045,4.6308,4.6308,4.6308,4.6308,4.6308,4.6308,4.6582,4.6992,4.7554,3.4429,3.4402,3.4189,3.4002,3.3855,3.348,3.3334,3.3414,3.3414,3.344,3.3521,3.3534,3.3561,3.3654,3.3641,3.3561,3.3521,3.3454,3.3334,3.316,3.308,3.2919,3.2652,3.2492,3.2318,3.2064,3.1757,3.1423,3.1196,3.0902,3.0635,3.0341,3.006,2.9913,2.9913,2.9913,2.9913,2.9913,2.9913,2.9913,2.9913,2.9913,2.9913,2.9913,2.9913,2.9913,2.9913,2.9913,2.9913,2.9913,2.9913,2.9913,2.9913,2.9913,2.9913,2.9913,2.9913,2.9913,2.9913,2.9953,3.014,3.0488,3.0795,3.1116,3.1396,3.157,3.1664,3.1677,3.1677,3.1677,3.1772,3.2043,3.2421,3.2894,3.346,3.4024,3.4601,3.471,3.471,3.471,3.471,3.471,3.471,3.471,3.471,3.471,3.471,3.471,3.471,3.4695,3.468,3.4475,3.4285,3.408,3.3846,3.3641,3.3407,3.3276,3.3319,3.3305,3.3305,3.5661,3.8088,4.0146,4.2864,4.4976,4.6308,4.6308,4.6308,4.6308,4.6308,4.6308,4.6426,4.6777,4.7445,3.4242,3.4095,3.3801,3.3668,3.3641,3.348,3.3414,3.3387,3.328,3.2715,3.2103,3.2715,3.3213,3.3173,3.3093,3.2855,3.2855,3.3026,3.2919,3.2826,3.2759,3.2585,3.2358,3.2158,3.2038,3.1837,3.161,3.1303,3.0862,3.0755,3.0621,3.0261,2.9993,2.994,2.9927,2.9927,2.9927,2.9913,2.9913,2.9913,2.9913,2.9913,2.9913,2.9913,2.9913,2.9913,2.9913,2.9913,2.9913,2.9913,2.9913,2.9913,2.9913,2.9913,2.9913,2.9913,2.9913,2.9913,2.9913,2.9993,3.0167,3.0515,3.0782,3.1049,3.1316,3.149,3.1664,3.1677,3.1677,3.1677,3.1853,3.2043,3.2327,3.2705,3.346,3.4024,3.4508,3.471,3.471,3.471,3.471,3.471,3.471,3.471,3.471,3.471,3.471,3.471,3.471,3.471,3.471,3.4666,3.4475,3.43,3.4095,3.3919,3.3744,3.3627,3.3463,3.3788,3.433,3.7702,4.0566,4.1407,4.2903,4.5297,4.6308,4.6308,4.6308,4.6308,4.6308,4.6308,4.6445,4.6709,4.7513,3.3935,3.3734,3.3507,3.3414,3.3414,3.3414,3.3387,3.3207,3.2782,3.1547,3.018,3.1359,3.2077,3.2011,3.1881,3.1803,3.179,3.1586,3.1803,3.2004,3.2394,3.2291,3.2144,3.2011,3.1837,3.173,3.1597,3.1223,3.0808,3.0808,3.0662,3.014,3.002,3.002,2.9993,2.9967,2.9993,2.9927,2.9913,2.9913,2.9913,2.9913,2.9913,2.9913,2.9913,2.9913,2.9913,2.9913,2.9913,2.9913,2.9913,2.9913,2.9913,2.9913,2.9913,2.9913,2.9913,2.9953,2.9993,3.0034,3.0247,3.0488,3.0702,3.0969,3.1263,3.1463,3.1623,3.1677,3.1677,3.1772,3.1853,3.1948,3.2232,3.2705,3.346,3.4118,3.4414,3.471,3.471,3.471,3.471,3.471,3.471,3.471,3.471,3.471,3.471,3.471,3.471,3.471,3.471,3.471,3.4622,3.4461,3.4329,3.4241,3.411,3.3993,3.3978,3.4329,3.5386,3.8272,4.0271,4.1151,4.2836,4.548,4.6308,4.6308,4.6308,4.6308,4.6308,4.6308,4.6367,4.665,4.7524,3.2986,3.316,3.332,3.3414,3.3414,3.34,3.328,3.2769,3.1287,3.0044,2.9207,2.7627,2.732,2.7622,2.7489,2.7916,2.9126,2.9653,2.9848,2.9749,3.1605,3.1902,3.1864,3.1824,3.1583,3.153,3.1517,3.1303,3.0969,3.1022,3.0969,3.0595,3.0581,3.0488,3.0287,3.0247,3.0194,3.01,2.998,2.9967,2.994,2.9927,2.9913,2.9913,2.9913,2.9913,2.9913,2.9913,2.9913,2.9913,2.9913,2.9913,2.9913,2.9913,2.9913,2.9913,2.9913,3.0007,3.006,3.0167,3.0381,3.0755,3.0982,3.1183,3.1423,3.1557,3.1664,3.1677,3.1677,3.1677,3.1758,3.1758,3.1948,3.2988,3.3742,3.4226,3.4616,3.471,3.471,3.471,3.471,3.471,3.471,3.471,3.471,3.471,3.471,3.471,3.471,3.471,3.471,3.471,3.471,3.471,3.4622,3.4622,3.4519,3.4388,3.4436,3.4843,3.605,3.8386,4.0044,4.1401,4.3389,4.5939,4.6308,4.6308,4.6308,4.6308,4.6308,4.6308,4.6348,4.6748,4.7562]}]]